Wetterdaten: Dienstag, 03.05.2022
Datum Zeit Temp. 2m Temp +5 cm Feuchte A. Luftdruck Regen Wind Richtung Richtung Sonnenschein UV Solar Taupunkt Windchill Windben
03.05.2022 00:00 9,4 C 6,1 C 73 % 1019,3 hPa 0,0 l/m 6,4 km/h (2 Bft) N 360 0 min 0,0 UV-I 0 W/m 4,8 C 9,4 C 9,7 km/h (2 Bft)
03.05.2022 00:01 9,5 C 6,1 C 73 % 1019,2 hPa 0,0 l/m 6,4 km/h (2 Bft) N 360 0 min 0,0 UV-I 0 W/m 4,9 C 9,5 C 11,3 km/h (2 Bft)
03.05.2022 00:02 9,6 C 6,7 C 73 % 1019,2 hPa 0,0 l/m 6,4 km/h (2 Bft) N 360 0 min 0,0 UV-I 0 W/m 5,0 C 9,6 C 12,9 km/h (3 Bft)
03.05.2022 00:03 9,6 C 6,7 C 73 % 1019,2 hPa 0,0 l/m 6,4 km/h (2 Bft) N 360 0 min 0,0 UV-I 0 W/m 5,0 C 9,6 C 9,7 km/h (2 Bft)
03.05.2022 00:04 9,6 C 6,7 C 73 % 1019,2 hPa 0,0 l/m 6,4 km/h (2 Bft) N 360 0 min 0,0 UV-I 0 W/m 5,0 C 9,6 C 6,4 km/h (2 Bft)
03.05.2022 00:05 9,6 C 6,7 C 73 % 1019,2 hPa 0,0 l/m 4,8 km/h (1 Bft) N 360 0 min 0,0 UV-I 0 W/m 5,0 C 9,6 C 6,4 km/h (2 Bft)
03.05.2022 00:06 9,6 C 6,7 C 73 % 1019,2 hPa 0,0 l/m 4,8 km/h (1 Bft) N 360 0 min 0,0 UV-I 0 W/m 5,0 C 9,6 C 6,4 km/h (2 Bft)
03.05.2022 00:07 9,6 C 6,7 C 73 % 1019,2 hPa 0,0 l/m 4,8 km/h (1 Bft) N 360 0 min 0,0 UV-I 0 W/m 5,0 C 9,6 C 6,4 km/h (2 Bft)
03.05.2022 00:08 9,6 C 6,7 C 72 % 1019,2 hPa 0,0 l/m 4,8 km/h (1 Bft) N 360 0 min 0,0 UV-I 0 W/m 4,8 C 9,6 C 6,4 km/h (2 Bft)
03.05.2022 00:09 9,6 C 6,7 C 72 % 1019,2 hPa 0,0 l/m 4,8 km/h (1 Bft) N 360 0 min 0,0 UV-I 0 W/m 4,8 C 9,6 C 6,4 km/h (2 Bft)
03.05.2022 00:10 9,6 C 6,7 C 73 % 1019,1 hPa 0,0 l/m 6,4 km/h (2 Bft) N 360 0 min 0,0 UV-I 0 W/m 5,0 C 9,6 C 9,7 km/h (2 Bft)
03.05.2022 00:11 9,6 C 6,7 C 73 % 1019,2 hPa 0,0 l/m 6,4 km/h (2 Bft) N 360 0 min 0,0 UV-I 0 W/m 5,0 C 9,6 C 8,0 km/h (2 Bft)
03.05.2022 00:12 9,6 C 6,7 C 72 % 1019,1 hPa 0,0 l/m 6,4 km/h (2 Bft) N 360 0 min 0,0 UV-I 0 W/m 4,8 C 9,6 C 8,0 km/h (2 Bft)
03.05.2022 00:13 9,6 C 6,7 C 73 % 1019,0 hPa 0,0 l/m 6,4 km/h (2 Bft) N 360 0 min 0,0 UV-I 0 W/m 5,0 C 9,6 C 8,0 km/h (2 Bft)
03.05.2022 00:14 9,6 C 6,7 C 72 % 1019,0 hPa 0,0 l/m 8,0 km/h (2 Bft) N 360 0 min 0,0 UV-I 0 W/m 4,8 C 8,4 C 9,7 km/h (2 Bft)
03.05.2022 00:15 9,7 C 6,7 C 72 % 1019,0 hPa 0,0 l/m 8,0 km/h (2 Bft) N-NW 337 0 min 0,0 UV-I 0 W/m 4,9 C 8,5 C 8,0 km/h (2 Bft)
03.05.2022 00:16 9,8 C 6,7 C 72 % 1019,1 hPa 0,0 l/m 6,4 km/h (2 Bft) N-NW 337 0 min 0,0 UV-I 0 W/m 5,0 C 9,8 C 8,0 km/h (2 Bft)
03.05.2022 00:17 9,8 C 6,7 C 72 % 1019,1 hPa 0,0 l/m 6,4 km/h (2 Bft) N 360 0 min 0,0 UV-I 0 W/m 5,0 C 9,8 C 8,0 km/h (2 Bft)
03.05.2022 00:18 9,7 C 6,7 C 72 % 1019,1 hPa 0,0 l/m 6,4 km/h (2 Bft) N 360 0 min 0,0 UV-I 0 W/m 4,9 C 9,7 C 6,4 km/h (2 Bft)
03.05.2022 00:19 9,7 C 6,7 C 72 % 1019,0 hPa 0,0 l/m 11,3 km/h (2 Bft) N 360 0 min 0,0 UV-I 0 W/m 4,9 C 6,5 C 14,5 km/h (3 Bft)
03.05.2022 00:20 9,8 C 6,7 C 72 % 1019,1 hPa 0,0 l/m 6,4 km/h (2 Bft) N 360 0 min 0,0 UV-I 0 W/m 5,0 C 9,8 C 14,5 km/h (3 Bft)
03.05.2022 00:21 9,8 C 6,7 C 72 % 1019,1 hPa 0,0 l/m 6,4 km/h (2 Bft) N 360 0 min 0,0 UV-I 0 W/m 5,0 C 9,8 C 9,7 km/h (2 Bft)
03.05.2022 00:22 9,8 C 6,7 C 72 % 1019,1 hPa 0,0 l/m 6,4 km/h (2 Bft) N 360 0 min 0,0 UV-I 0 W/m 5,0 C 9,8 C 9,7 km/h (2 Bft)
03.05.2022 00:23 9,8 C 6,7 C 72 % 1019,1 hPa 0,0 l/m 6,4 km/h (2 Bft) N 360 0 min 0,0 UV-I 0 W/m 5,0 C 9,8 C 9,7 km/h (2 Bft)
03.05.2022 00:24 9,8 C 7,2 C 72 % 1019,1 hPa 0,0 l/m 8,0 km/h (2 Bft) N 360 0 min 0,0 UV-I 0 W/m 5,0 C 8,6 C 12,9 km/h (3 Bft)
03.05.2022 00:25 9,7 C 7,2 C 72 % 1019,1 hPa 0,0 l/m 9,7 km/h (2 Bft) N 360 0 min 0,0 UV-I 0 W/m 4,9 C 7,4 C 12,9 km/h (3 Bft)
03.05.2022 00:26 9,8 C 7,2 C 72 % 1019,0 hPa 0,0 l/m 8,0 km/h (2 Bft) N 360 0 min 0,0 UV-I 0 W/m 5,0 C 8,6 C 12,9 km/h (3 Bft)
03.05.2022 00:27 9,8 C 7,2 C 72 % 1019,1 hPa 0,0 l/m 8,0 km/h (2 Bft) N 360 0 min 0,0 UV-I 0 W/m 5,0 C 8,6 C 9,7 km/h (2 Bft)
03.05.2022 00:28 9,8 C 7,2 C 72 % 1019,0 hPa 0,0 l/m 6,4 km/h (2 Bft) N 360 0 min 0,0 UV-I 0 W/m 5,0 C 9,8 C 9,7 km/h (2 Bft)
03.05.2022 00:29 9,8 C 7,2 C 72 % 1019,0 hPa 0,0 l/m 6,4 km/h (2 Bft) N 360 0 min 0,0 UV-I 0 W/m 5,0 C 9,8 C 9,7 km/h (2 Bft)
03.05.2022 00:30 9,8 C 7,2 C 72 % 1019,0 hPa 0,0 l/m 6,4 km/h (2 Bft) N 360 0 min 0,0 UV-I 0 W/m 5,0 C 9,8 C 8,0 km/h (2 Bft)
03.05.2022 00:31 9,8 C 7,2 C 72 % 1019,0 hPa 0,0 l/m 6,4 km/h (2 Bft) N 360 0 min 0,0 UV-I 0 W/m 5,0 C 9,8 C 9,7 km/h (2 Bft)
03.05.2022 00:32 9,8 C 7,2 C 72 % 1019,0 hPa 0,0 l/m 8,0 km/h (2 Bft) N 360 0 min 0,0 UV-I 0 W/m 5,0 C 8,6 C 9,7 km/h (2 Bft)
03.05.2022 00:33 9,8 C 7,8 C 72 % 1019,0 hPa 0,0 l/m 9,7 km/h (2 Bft) N 360 0 min 0,0 UV-I 0 W/m 5,0 C 7,6 C 14,5 km/h (3 Bft)
03.05.2022 00:34 9,9 C 7,8 C 72 % 1018,9 hPa 0,0 l/m 8,0 km/h (2 Bft) N 360 0 min 0,0 UV-I 0 W/m 5,1 C 8,7 C 9,7 km/h (2 Bft)
03.05.2022 00:35 9,9 C 7,2 C 72 % 1018,9 hPa 0,0 l/m 8,0 km/h (2 Bft) N 360 0 min 0,0 UV-I 0 W/m 5,1 C 8,7 C 9,7 km/h (2 Bft)
03.05.2022 00:36 9,9 C 7,8 C 72 % 1018,9 hPa 0,0 l/m 6,4 km/h (2 Bft) N 360 0 min 0,0 UV-I 0 W/m 5,1 C 9,9 C 12,9 km/h (3 Bft)
03.05.2022 00:37 9,9 C 7,8 C 72 % 1018,9 hPa 0,0 l/m 9,7 km/h (2 Bft) N 360 0 min 0,0 UV-I 0 W/m 5,1 C 7,7 C 14,5 km/h (3 Bft)
03.05.2022 00:38 9,9 C 7,8 C 72 % 1019,0 hPa 0,0 l/m 11,3 km/h (2 Bft) N 360 0 min 0,0 UV-I 0 W/m 5,1 C 6,8 C 14,5 km/h (3 Bft)
03.05.2022 00:39 9,9 C 7,8 C 72 % 1018,9 hPa 0,0 l/m 9,7 km/h (2 Bft) N 360 0 min 0,0 UV-I 0 W/m 5,1 C 7,7 C 12,9 km/h (3 Bft)
03.05.2022 00:40 9,9 C 7,8 C 72 % 1018,9 hPa 0,0 l/m 11,3 km/h (2 Bft) N 360 0 min 0,0 UV-I 0 W/m 5,1 C 6,8 C 16,1 km/h (3 Bft)
03.05.2022 00:41 9,9 C 7,8 C 71 % 1018,9 hPa 0,0 l/m 8,0 km/h (2 Bft) N 360 0 min 0,0 UV-I 0 W/m 4,9 C 8,7 C 16,1 km/h (3 Bft)
03.05.2022 00:42 9,9 C 7,8 C 71 % 1019,0 hPa 0,0 l/m 6,4 km/h (2 Bft) N 360 0 min 0,0 UV-I 0 W/m 4,9 C 9,9 C 8,0 km/h (2 Bft)
03.05.2022 00:43 9,9 C 7,8 C 72 % 1018,9 hPa 0,0 l/m 9,7 km/h (2 Bft) N 360 0 min 0,0 UV-I 0 W/m 5,1 C 7,7 C 12,9 km/h (3 Bft)
03.05.2022 00:44 9,9 C 7,8 C 72 % 1018,9 hPa 0,0 l/m 9,7 km/h (2 Bft) N 360 0 min 0,0 UV-I 0 W/m 5,1 C 7,7 C 14,5 km/h (3 Bft)
03.05.2022 00:45 9,9 C 7,8 C 72 % 1018,9 hPa 0,0 l/m 8,0 km/h (2 Bft) N 360 0 min 0,0 UV-I 0 W/m 5,1 C 8,7 C 12,9 km/h (3 Bft)
03.05.2022 00:46 9,9 C 7,8 C 72 % 1018,9 hPa 0,0 l/m 8,0 km/h (2 Bft) N 360 0 min 0,0 UV-I 0 W/m 5,1 C 8,7 C 9,7 km/h (2 Bft)
03.05.2022 00:47 9,9 C 7,8 C 72 % 1018,9 hPa 0,0 l/m 8,0 km/h (2 Bft) N 360 0 min 0,0 UV-I 0 W/m 5,1 C 8,7 C 9,7 km/h (2 Bft)
03.05.2022 00:48 9,9 C 7,8 C 72 % 1018,9 hPa 0,0 l/m 9,7 km/h (2 Bft) N 360 0 min 0,0 UV-I 0 W/m 5,1 C 7,7 C 12,9 km/h (3 Bft)
03.05.2022 00:49 9,9 C 7,2 C 72 % 1018,9 hPa 0,0 l/m 6,4 km/h (2 Bft) N 360 0 min 0,0 UV-I 0 W/m 5,1 C 9,9 C 8,0 km/h (2 Bft)
03.05.2022 00:50 9,8 C 7,2 C 72 % 1018,9 hPa 0,0 l/m 6,4 km/h (2 Bft) N 360 0 min 0,0 UV-I 0 W/m 5,0 C 9,8 C 8,0 km/h (2 Bft)
03.05.2022 00:51 9,8 C 7,2 C 72 % 1018,9 hPa 0,0 l/m 6,4 km/h (2 Bft) N 360 0 min 0,0 UV-I 0 W/m 5,0 C 9,8 C 8,0 km/h (2 Bft)
03.05.2022 00:52 9,8 C 7,2 C 72 % 1018,9 hPa 0,0 l/m 8,0 km/h (2 Bft) N 360 0 min 0,0 UV-I 0 W/m 5,0 C 8,6 C 9,7 km/h (2 Bft)
03.05.2022 00:53 9,8 C 7,2 C 72 % 1018,8 hPa 0,0 l/m 8,0 km/h (2 Bft) N 360 0 min 0,0 UV-I 0 W/m 5,0 C 8,6 C 9,7 km/h (2 Bft)
03.05.2022 00:54 9,7 C 7,2 C 72 % 1018,8 hPa 0,0 l/m 8,0 km/h (2 Bft) N 360 0 min 0,0 UV-I 0 W/m 4,9 C 8,5 C 12,9 km/h (3 Bft)
03.05.2022 00:55 9,7 C 6,7 C 72 % 1018,8 hPa 0,0 l/m 6,4 km/h (2 Bft) N 360 0 min 0,0 UV-I 0 W/m 4,9 C 9,7 C 9,7 km/h (2 Bft)
03.05.2022 00:56 9,7 C 6,7 C 72 % 1018,9 hPa 0,0 l/m 8,0 km/h (2 Bft) N 360 0 min 0,0 UV-I 0 W/m 4,9 C 8,5 C 9,7 km/h (2 Bft)
03.05.2022 00:57 9,7 C 6,7 C 72 % 1018,9 hPa 0,0 l/m 8,0 km/h (2 Bft) N 360 0 min 0,0 UV-I 0 W/m 4,9 C 8,5 C 11,3 km/h (2 Bft)
03.05.2022 00:58 9,7 C 6,7 C 72 % 1018,8 hPa 0,0 l/m 8,0 km/h (2 Bft) N 360 0 min 0,0 UV-I 0 W/m 4,9 C 8,5 C 9,7 km/h (2 Bft)
03.05.2022 00:59 9,6 C 6,7 C 72 % 1018,8 hPa 0,0 l/m 8,0 km/h (2 Bft) N 360 0 min 0,0 UV-I 0 W/m 4,8 C 8,4 C 12,9 km/h (3 Bft)
03.05.2022 01:00 9,6 C 6,7 C 72 % 1018,8 hPa 0,0 l/m 9,7 km/h (2 Bft) N 360 0 min 0,0 UV-I 0 W/m 4,8 C 7,3 C 12,9 km/h (3 Bft)
03.05.2022 01:01 9,6 C 6,7 C 72 % 1018,8 hPa 0,0 l/m 9,7 km/h (2 Bft) N 360 0 min 0,0 UV-I 0 W/m 4,8 C 7,3 C 12,9 km/h (3 Bft)
03.05.2022 01:02 9,6 C 6,7 C 72 % 1018,9 hPa 0,0 l/m 9,7 km/h (2 Bft) N 360 0 min 0,0 UV-I 0 W/m 4,8 C 7,3 C 14,5 km/h (3 Bft)
03.05.2022 01:03 9,6 C 6,7 C 72 % 1018,8 hPa 0,0 l/m 11,3 km/h (2 Bft) N 360 0 min 0,0 UV-I 0 W/m 4,8 C 6,4 C 14,5 km/h (3 Bft)
03.05.2022 01:04 9,6 C 6,7 C 72 % 1018,9 hPa 0,0 l/m 11,3 km/h (2 Bft) N 360 0 min 0,0 UV-I 0 W/m 4,8 C 6,4 C 14,5 km/h (3 Bft)
03.05.2022 01:05 9,6 C 7,2 C 72 % 1018,9 hPa 0,0 l/m 9,7 km/h (2 Bft) N 360 0 min 0,0 UV-I 0 W/m 4,8 C 7,3 C 12,9 km/h (3 Bft)
03.05.2022 01:06 9,7 C 7,2 C 72 % 1018,8 hPa 0,0 l/m 11,3 km/h (2 Bft) N 360 0 min 0,0 UV-I 0 W/m 4,9 C 6,5 C 12,9 km/h (3 Bft)
03.05.2022 01:07 9,7 C 6,7 C 72 % 1018,7 hPa 0,0 l/m 11,3 km/h (2 Bft) N 360 0 min 0,0 UV-I 0 W/m 4,9 C 6,5 C 14,5 km/h (3 Bft)
03.05.2022 01:08 9,6 C 6,7 C 72 % 1018,8 hPa 0,0 l/m 12,9 km/h (3 Bft) N 360 0 min 0,0 UV-I 0 W/m 4,8 C 5,6 C 16,1 km/h (3 Bft)
03.05.2022 01:09 9,6 C 6,7 C 72 % 1018,9 hPa 0,0 l/m 8,0 km/h (2 Bft) N 360 0 min 0,0 UV-I 0 W/m 4,8 C 8,4 C 14,5 km/h (3 Bft)
03.05.2022 01:10 9,6 C 6,7 C 72 % 1018,9 hPa 0,0 l/m 11,3 km/h (2 Bft) N 360 0 min 0,0 UV-I 0 W/m 4,8 C 6,4 C 14,5 km/h (3 Bft)
03.05.2022 01:11 9,6 C 6,7 C 72 % 1018,8 hPa 0,0 l/m 11,3 km/h (2 Bft) N 360 0 min 0,0 UV-I 0 W/m 4,8 C 6,4 C 14,5 km/h (3 Bft)
03.05.2022 01:12 9,6 C 6,7 C 72 % 1018,9 hPa 0,0 l/m 11,3 km/h (2 Bft) N 360 0 min 0,0 UV-I 0 W/m 4,8 C 6,4 C 14,5 km/h (3 Bft)
03.05.2022 01:13 9,6 C 6,7 C 72 % 1018,8 hPa 0,0 l/m 11,3 km/h (2 Bft) N 360 0 min 0,0 UV-I 0 W/m 4,8 C 6,4 C 14,5 km/h (3 Bft)
03.05.2022 01:14 9,5 C 6,7 C 72 % 1018,8 hPa 0,0 l/m 11,3 km/h (2 Bft) N 360 0 min 0,0 UV-I 0 W/m 4,7 C 6,3 C 14,5 km/h (3 Bft)
03.05.2022 01:15 9,4 C 6,7 C 72 % 1018,8 hPa 0,0 l/m 11,3 km/h (2 Bft) N 360 0 min 0,0 UV-I 0 W/m 4,6 C 6,2 C 14,5 km/h (3 Bft)
03.05.2022 01:16 9,4 C 6,7 C 72 % 1018,8 hPa 0,0 l/m 9,7 km/h (2 Bft) N-NW 337 0 min 0,0 UV-I 0 W/m 4,6 C 7,1 C 12,9 km/h (3 Bft)
03.05.2022 01:17 9,4 C 6,7 C 72 % 1018,9 hPa 0,0 l/m 9,7 km/h (2 Bft) N 360 0 min 0,0 UV-I 0 W/m 4,6 C 7,1 C 12,9 km/h (3 Bft)
03.05.2022 01:18 9,4 C 6,7 C 72 % 1018,8 hPa 0,0 l/m 11,3 km/h (2 Bft) N 360 0 min 0,0 UV-I 0 W/m 4,6 C 6,2 C 14,5 km/h (3 Bft)
03.05.2022 01:19 9,3 C 6,7 C 72 % 1018,8 hPa 0,0 l/m 11,3 km/h (2 Bft) N-NW 337 0 min 0,0 UV-I 0 W/m 4,5 C 6,1 C 16,1 km/h (3 Bft)
03.05.2022 01:20 9,3 C 6,7 C 72 % 1018,6 hPa 0,0 l/m 9,7 km/h (2 Bft) N-NW 337 0 min 0,0 UV-I 0 W/m 4,5 C 7,0 C 12,9 km/h (3 Bft)
03.05.2022 01:21 9,3 C 6,7 C 72 % 1018,7 hPa 0,0 l/m 8,0 km/h (2 Bft) N-NW 337 0 min 0,0 UV-I 0 W/m 4,5 C 8,1 C 12,9 km/h (3 Bft)
03.05.2022 01:22 9,3 C 6,7 C 72 % 1018,8 hPa 0,0 l/m 8,0 km/h (2 Bft) N-NW 337 0 min 0,0 UV-I 0 W/m 4,5 C 8,1 C 12,9 km/h (3 Bft)
03.05.2022 01:23 9,3 C 6,7 C 72 % 1018,8 hPa 0,0 l/m 4,8 km/h (1 Bft) N 360 0 min 0,0 UV-I 0 W/m 4,5 C 9,3 C 8,0 km/h (2 Bft)
03.05.2022 01:24 9,3 C 6,7 C 72 % 1018,7 hPa 0,0 l/m 6,4 km/h (2 Bft) N 360 0 min 0,0 UV-I 0 W/m 4,5 C 9,3 C 11,3 km/h (2 Bft)
03.05.2022 01:25 9,2 C 6,7 C 72 % 1018,7 hPa 0,0 l/m 9,7 km/h (2 Bft) N-NW 337 0 min 0,0 UV-I 0 W/m 4,4 C 6,9 C 14,5 km/h (3 Bft)
03.05.2022 01:26 9,2 C 6,7 C 72 % 1018,7 hPa 0,0 l/m 6,4 km/h (2 Bft) N-NW 337 0 min 0,0 UV-I 0 W/m 4,4 C 9,2 C 9,7 km/h (2 Bft)
03.05.2022 01:27 9,3 C 6,7 C 72 % 1018,8 hPa 0,0 l/m 8,0 km/h (2 Bft) N-NW 337 0 min 0,0 UV-I 0 W/m 4,5 C 8,1 C 9,7 km/h (2 Bft)
03.05.2022 01:28 9,2 C 6,7 C 72 % 1018,7 hPa 0,0 l/m 6,4 km/h (2 Bft) N-NW 337 0 min 0,0 UV-I 0 W/m 4,4 C 9,2 C 12,9 km/h (3 Bft)
03.05.2022 01:29 9,2 C 6,7 C 72 % 1018,7 hPa 0,0 l/m 6,4 km/h (2 Bft) N-NW 337 0 min 0,0 UV-I 0 W/m 4,4 C 9,2 C 12,9 km/h (3 Bft)
03.05.2022 01:30 9,3 C 6,7 C 72 % 1018,7 hPa 0,0 l/m 9,7 km/h (2 Bft) N-NW 337 0 min 0,0 UV-I 0 W/m 4,5 C 7,0 C 12,9 km/h (3 Bft)
03.05.2022 01:31 9,2 C 6,7 C 72 % 1018,7 hPa 0,0 l/m 8,0 km/h (2 Bft) N-NW 337 0 min 0,0 UV-I 0 W/m 4,4 C 8,0 C 9,7 km/h (2 Bft)
03.05.2022 01:32 9,3 C 6,7 C 72 % 1018,7 hPa 0,0 l/m 9,7 km/h (2 Bft) N 360 0 min 0,0 UV-I 0 W/m 4,5 C 7,0 C 12,9 km/h (3 Bft)
03.05.2022 01:33 9,3 C 6,7 C 72 % 1018,6 hPa 0,0 l/m 8,0 km/h (2 Bft) N-NW 337 0 min 0,0 UV-I 0 W/m 4,5 C 8,1 C 9,7 km/h (2 Bft)
03.05.2022 01:34 9,2 C 6,7 C 72 % 1018,6 hPa 0,0 l/m 4,8 km/h (1 Bft) NW 315 0 min 0,0 UV-I 0 W/m 4,4 C 9,2 C 8,0 km/h (2 Bft)
03.05.2022 01:35 9,2 C 6,7 C 72 % 1018,7 hPa 0,0 l/m 8,0 km/h (2 Bft) N 360 0 min 0,0 UV-I 0 W/m 4,4 C 8,0 C 9,7 km/h (2 Bft)
03.05.2022 01:36 9,1 C 6,7 C 73 % 1018,6 hPa 0,0 l/m 8,0 km/h (2 Bft) N-NW 337 0 min 0,0 UV-I 0 W/m 4,5 C 7,9 C 9,7 km/h (2 Bft)
03.05.2022 01:37 9,1 C 6,7 C 73 % 1018,6 hPa 0,0 l/m 6,4 km/h (2 Bft) N 360 0 min 0,0 UV-I 0 W/m 4,5 C 9,1 C 14,5 km/h (3 Bft)
03.05.2022 01:38 9,1 C 6,7 C 73 % 1018,7 hPa 0,0 l/m 8,0 km/h (2 Bft) N-NW 337 0 min 0,0 UV-I 0 W/m 4,5 C 7,9 C 12,9 km/h (3 Bft)
03.05.2022 01:39 9,1 C 6,7 C 73 % 1018,8 hPa 0,0 l/m 8,0 km/h (2 Bft) N-NW 337 0 min 0,0 UV-I 0 W/m 4,5 C 7,9 C 11,3 km/h (2 Bft)
03.05.2022 01:40 9,2 C 6,7 C 73 % 1018,7 hPa 0,0 l/m 9,7 km/h (2 Bft) N-NW 337 0 min 0,0 UV-I 0 W/m 4,6 C 6,9 C 14,5 km/h (3 Bft)
03.05.2022 01:41 9,2 C 6,7 C 73 % 1018,6 hPa 0,0 l/m 8,0 km/h (2 Bft) N 360 0 min 0,0 UV-I 0 W/m 4,6 C 8,0 C 12,9 km/h (3 Bft)
03.05.2022 01:42 9,2 C 6,7 C 73 % 1018,6 hPa 0,0 l/m 4,8 km/h (1 Bft) N 360 0 min 0,0 UV-I 0 W/m 4,6 C 9,2 C 8,0 km/h (2 Bft)
03.05.2022 01:43 9,2 C 6,7 C 73 % 1018,6 hPa 0,0 l/m 8,0 km/h (2 Bft) N-NW 337 0 min 0,0 UV-I 0 W/m 4,6 C 8,0 C 9,7 km/h (2 Bft)
03.05.2022 01:44 9,2 C 6,7 C 73 % 1018,6 hPa 0,0 l/m 4,8 km/h (1 Bft) N-NW 337 0 min 0,0 UV-I 0 W/m 4,6 C 9,2 C 6,4 km/h (2 Bft)
03.05.2022 01:45 9,1 C 6,7 C 73 % 1018,6 hPa 0,0 l/m 6,4 km/h (2 Bft) N-NW 337 0 min 0,0 UV-I 0 W/m 4,5 C 9,1 C 12,9 km/h (3 Bft)
03.05.2022 01:46 9,1 C 6,7 C 73 % 1018,6 hPa 0,0 l/m 6,4 km/h (2 Bft) N 360 0 min 0,0 UV-I 0 W/m 4,5 C 9,1 C 8,0 km/h (2 Bft)
03.05.2022 01:47 9,1 C 6,7 C 73 % 1018,6 hPa 0,0 l/m 8,0 km/h (2 Bft) N-NW 337 0 min 0,0 UV-I 0 W/m 4,5 C 7,9 C 12,9 km/h (3 Bft)
03.05.2022 01:48 9,0 C 6,7 C 73 % 1018,6 hPa 0,0 l/m 6,4 km/h (2 Bft) N-NW 337 0 min 0,0 UV-I 0 W/m 4,4 C 9,0 C 9,7 km/h (2 Bft)
03.05.2022 01:49 9,0 C 6,1 C 73 % 1018,6 hPa 0,0 l/m 4,8 km/h (1 Bft) N-NW 337 0 min 0,0 UV-I 0 W/m 4,4 C 9,0 C 6,4 km/h (2 Bft)
03.05.2022 01:50 8,9 C 6,1 C 73 % 1018,5 hPa 0,0 l/m 6,4 km/h (2 Bft) N 360 0 min 0,0 UV-I 0 W/m 4,3 C 8,9 C 9,7 km/h (2 Bft)
03.05.2022 01:51 8,9 C 6,1 C 73 % 1018,6 hPa 0,0 l/m 8,0 km/h (2 Bft) N-NW 337 0 min 0,0 UV-I 0 W/m 4,3 C 7,7 C 12,9 km/h (3 Bft)
03.05.2022 01:52 9,0 C 6,7 C 73 % 1018,5 hPa 0,0 l/m 6,4 km/h (2 Bft) N-NW 337 0 min 0,0 UV-I 0 W/m 4,4 C 9,0 C 9,7 km/h (2 Bft)
03.05.2022 01:53 8,9 C 6,7 C 73 % 1018,5 hPa 0,0 l/m 6,4 km/h (2 Bft) N-NW 337 0 min 0,0 UV-I 0 W/m 4,3 C 8,9 C 9,7 km/h (2 Bft)
03.05.2022 01:54 8,9 C 6,7 C 73 % 1018,6 hPa 0,0 l/m 6,4 km/h (2 Bft) N 360 0 min 0,0 UV-I 0 W/m 4,3 C 8,9 C 11,3 km/h (2 Bft)
03.05.2022 01:55 8,9 C 6,7 C 73 % 1018,6 hPa 0,0 l/m 4,8 km/h (1 Bft) NW 315 0 min 0,0 UV-I 0 W/m 4,3 C 8,9 C 6,4 km/h (2 Bft)
03.05.2022 01:56 8,9 C 6,7 C 73 % 1018,5 hPa 0,0 l/m 6,4 km/h (2 Bft) N-NW 337 0 min 0,0 UV-I 0 W/m 4,3 C 8,9 C 8,0 km/h (2 Bft)
03.05.2022 01:57 8,9 C 6,1 C 73 % 1018,6 hPa 0,0 l/m 4,8 km/h (1 Bft) N 360 0 min 0,0 UV-I 0 W/m 4,3 C 8,9 C 6,4 km/h (2 Bft)
03.05.2022 01:58 8,8 C 6,7 C 74 % 1018,6 hPa 0,0 l/m 6,4 km/h (2 Bft) N-NW 337 0 min 0,0 UV-I 0 W/m 4,4 C 8,8 C 9,7 km/h (2 Bft)
03.05.2022 01:59 8,9 C 6,7 C 74 % 1018,6 hPa 0,0 l/m 8,0 km/h (2 Bft) N-NW 337 0 min 0,0 UV-I 0 W/m 4,5 C 7,7 C 14,5 km/h (3 Bft)
03.05.2022 02:00 8,9 C 6,7 C 74 % 1018,6 hPa 0,0 l/m 6,4 km/h (2 Bft) N 360 0 min 0,0 UV-I 0 W/m 4,5 C 8,9 C 12,9 km/h (3 Bft)
03.05.2022 02:01 8,9 C 6,7 C 74 % 1018,6 hPa 0,0 l/m 4,8 km/h (1 Bft) N 360 0 min 0,0 UV-I 0 W/m 4,5 C 8,9 C 6,4 km/h (2 Bft)
03.05.2022 02:02 8,9 C 6,7 C 73 % 1018,5 hPa 0,0 l/m 6,4 km/h (2 Bft) N 360 0 min 0,0 UV-I 0 W/m 4,3 C 8,9 C 9,7 km/h (2 Bft)
03.05.2022 02:03 8,9 C 6,7 C 73 % 1018,5 hPa 0,0 l/m 4,8 km/h (1 Bft) N-NW 337 0 min 0,0 UV-I 0 W/m 4,3 C 8,9 C 8,0 km/h (2 Bft)
03.05.2022 02:04 8,9 C 6,7 C 74 % 1018,6 hPa 0,0 l/m 4,8 km/h (1 Bft) N-NW 337 0 min 0,0 UV-I 0 W/m 4,5 C 8,9 C 8,0 km/h (2 Bft)
03.05.2022 02:05 8,9 C 6,7 C 74 % 1018,5 hPa 0,0 l/m 4,8 km/h (1 Bft) N-NW 337 0 min 0,0 UV-I 0 W/m 4,5 C 8,9 C 9,7 km/h (2 Bft)
03.05.2022 02:06 8,9 C 6,7 C 74 % 1018,5 hPa 0,0 l/m 6,4 km/h (2 Bft) N 360 0 min 0,0 UV-I 0 W/m 4,5 C 8,9 C 12,9 km/h (3 Bft)
03.05.2022 02:07 8,9 C 6,7 C 74 % 1018,5 hPa 0,0 l/m 8,0 km/h (2 Bft) N-NW 337 0 min 0,0 UV-I 0 W/m 4,5 C 7,7 C 9,7 km/h (2 Bft)
03.05.2022 02:08 8,9 C 6,7 C 74 % 1018,5 hPa 0,0 l/m 8,0 km/h (2 Bft) N 360 0 min 0,0 UV-I 0 W/m 4,5 C 7,7 C 12,9 km/h (3 Bft)
03.05.2022 02:09 8,9 C 6,7 C 74 % 1018,5 hPa 0,0 l/m 6,4 km/h (2 Bft) N 360 0 min 0,0 UV-I 0 W/m 4,5 C 8,9 C 9,7 km/h (2 Bft)
03.05.2022 02:10 8,9 C 6,7 C 74 % 1018,5 hPa 0,0 l/m 11,3 km/h (2 Bft) N 360 0 min 0,0 UV-I 0 W/m 4,5 C 5,6 C 14,5 km/h (3 Bft)
03.05.2022 02:11 8,9 C 6,7 C 74 % 1018,5 hPa 0,0 l/m 9,7 km/h (2 Bft) N-NW 337 0 min 0,0 UV-I 0 W/m 4,5 C 6,6 C 14,5 km/h (3 Bft)
03.05.2022 02:12 8,9 C 6,7 C 73 % 1018,4 hPa 0,0 l/m 11,3 km/h (2 Bft) N 360 0 min 0,0 UV-I 0 W/m 4,3 C 5,6 C 16,1 km/h (3 Bft)
03.05.2022 02:13 8,9 C 6,7 C 73 % 1018,4 hPa 0,0 l/m 9,7 km/h (2 Bft) N 360 0 min 0,0 UV-I 0 W/m 4,3 C 6,6 C 12,9 km/h (3 Bft)
03.05.2022 02:14 9,0 C 6,7 C 73 % 1018,4 hPa 0,0 l/m 8,0 km/h (2 Bft) N 360 0 min 0,0 UV-I 0 W/m 4,4 C 7,8 C 12,9 km/h (3 Bft)
03.05.2022 02:15 9,0 C 6,7 C 73 % 1018,4 hPa 0,0 l/m 9,7 km/h (2 Bft) N 360 0 min 0,0 UV-I 0 W/m 4,4 C 6,7 C 12,9 km/h (3 Bft)
03.05.2022 02:16 9,0 C 6,7 C 73 % 1018,5 hPa 0,0 l/m 11,3 km/h (2 Bft) N 360 0 min 0,0 UV-I 0 W/m 4,4 C 5,7 C 14,5 km/h (3 Bft)
03.05.2022 02:17 9,0 C 6,7 C 73 % 1018,5 hPa 0,0 l/m 11,3 km/h (2 Bft) N 360 0 min 0,0 UV-I 0 W/m 4,4 C 5,7 C 14,5 km/h (3 Bft)
03.05.2022 02:18 9,0 C 6,7 C 73 % 1018,5 hPa 0,0 l/m 11,3 km/h (2 Bft) N 360 0 min 0,0 UV-I 0 W/m 4,4 C 5,7 C 14,5 km/h (3 Bft)
03.05.2022 02:19 9,0 C 7,2 C 73 % 1018,4 hPa 0,0 l/m 9,7 km/h (2 Bft) N-NW 337 0 min 0,0 UV-I 0 W/m 4,4 C 6,7 C 12,9 km/h (3 Bft)
03.05.2022 02:20 9,0 C 7,2 C 73 % 1018,5 hPa 0,0 l/m 9,7 km/h (2 Bft) N 360 0 min 0,0 UV-I 0 W/m 4,4 C 6,7 C 12,9 km/h (3 Bft)
03.05.2022 02:21 9,0 C 6,7 C 73 % 1018,4 hPa 0,0 l/m 9,7 km/h (2 Bft) N-NW 337 0 min 0,0 UV-I 0 W/m 4,4 C 6,7 C 14,5 km/h (3 Bft)
03.05.2022 02:22 8,9 C 7,2 C 73 % 1018,4 hPa 0,0 l/m 11,3 km/h (2 Bft) N-NW 337 0 min 0,0 UV-I 0 W/m 4,3 C 5,6 C 14,5 km/h (3 Bft)
03.05.2022 02:23 8,9 C 7,2 C 73 % 1018,3 hPa 0,0 l/m 9,7 km/h (2 Bft) N 360 0 min 0,0 UV-I 0 W/m 4,3 C 6,6 C 12,9 km/h (3 Bft)
03.05.2022 02:24 8,9 C 6,7 C 73 % 1018,4 hPa 0,0 l/m 9,7 km/h (2 Bft) N 360 0 min 0,0 UV-I 0 W/m 4,3 C 6,6 C 14,5 km/h (3 Bft)
03.05.2022 02:25 8,9 C 6,7 C 73 % 1018,4 hPa 0,0 l/m 9,7 km/h (2 Bft) N-NW 337 0 min 0,0 UV-I 0 W/m 4,3 C 6,6 C 14,5 km/h (3 Bft)
03.05.2022 02:26 8,9 C 6,7 C 73 % 1018,4 hPa 0,0 l/m 9,7 km/h (2 Bft) N-NW 337 0 min 0,0 UV-I 0 W/m 4,3 C 6,6 C 12,9 km/h (3 Bft)
03.05.2022 02:27 8,9 C 7,2 C 73 % 1018,3 hPa 0,0 l/m 8,0 km/h (2 Bft) N 360 0 min 0,0 UV-I 0 W/m 4,3 C 7,7 C 9,7 km/h (2 Bft)
03.05.2022 02:28 8,9 C 7,2 C 73 % 1018,4 hPa 0,0 l/m 8,0 km/h (2 Bft) N-NW 337 0 min 0,0 UV-I 0 W/m 4,3 C 7,7 C 11,3 km/h (2 Bft)
03.05.2022 02:29 8,9 C 7,2 C 73 % 1018,4 hPa 0,0 l/m 9,7 km/h (2 Bft) N 360 0 min 0,0 UV-I 0 W/m 4,3 C 6,6 C 12,9 km/h (3 Bft)
03.05.2022 02:30 8,9 C 7,2 C 73 % 1018,3 hPa 0,0 l/m 8,0 km/h (2 Bft) N-NW 337 0 min 0,0 UV-I 0 W/m 4,3 C 7,7 C 9,7 km/h (2 Bft)
03.05.2022 02:31 8,8 C 7,2 C 74 % 1018,4 hPa 0,0 l/m 6,4 km/h (2 Bft) N 360 0 min 0,0 UV-I 0 W/m 4,4 C 8,8 C 9,7 km/h (2 Bft)
03.05.2022 02:32 8,8 C 7,2 C 74 % 1018,4 hPa 0,0 l/m 9,7 km/h (2 Bft) N-NW 337 0 min 0,0 UV-I 0 W/m 4,4 C 6,5 C 12,9 km/h (3 Bft)
03.05.2022 02:33 8,8 C 6,7 C 74 % 1018,4 hPa 0,0 l/m 6,4 km/h (2 Bft) N-NW 337 0 min 0,0 UV-I 0 W/m 4,4 C 8,8 C 9,7 km/h (2 Bft)
03.05.2022 02:34 8,8 C 6,7 C 74 % 1018,3 hPa 0,0 l/m 9,7 km/h (2 Bft) N 360 0 min 0,0 UV-I 0 W/m 4,4 C 6,5 C 12,9 km/h (3 Bft)
03.05.2022 02:35 8,9 C 6,7 C 74 % 1018,2 hPa 0,0 l/m 8,0 km/h (2 Bft) N-NW 337 0 min 0,0 UV-I 0 W/m 4,5 C 7,7 C 14,5 km/h (3 Bft)
03.05.2022 02:36 8,8 C 6,7 C 74 % 1018,3 hPa 0,0 l/m 8,0 km/h (2 Bft) N-NW 337 0 min 0,0 UV-I 0 W/m 4,4 C 7,6 C 12,9 km/h (3 Bft)
03.05.2022 02:37 8,8 C 6,7 C 74 % 1018,4 hPa 0,0 l/m 8,0 km/h (2 Bft) N 360 0 min 0,0 UV-I 0 W/m 4,4 C 7,6 C 12,9 km/h (3 Bft)
03.05.2022 02:38 8,9 C 6,7 C 74 % 1018,3 hPa 0,0 l/m 8,0 km/h (2 Bft) N 360 0 min 0,0 UV-I 0 W/m 4,5 C 7,7 C 9,7 km/h (2 Bft)
03.05.2022 02:39 8,8 C 6,7 C 74 % 1018,2 hPa 0,0 l/m 8,0 km/h (2 Bft) N 360 0 min 0,0 UV-I 0 W/m 4,4 C 7,6 C 12,9 km/h (3 Bft)
03.05.2022 02:40 8,8 C 6,7 C 74 % 1018,3 hPa 0,0 l/m 6,4 km/h (2 Bft) N 360 0 min 0,0 UV-I 0 W/m 4,4 C 8,8 C 9,7 km/h (2 Bft)
03.05.2022 02:41 8,8 C 6,7 C 74 % 1018,2 hPa 0,0 l/m 8,0 km/h (2 Bft) N 360 0 min 0,0 UV-I 0 W/m 4,4 C 7,6 C 9,7 km/h (2 Bft)
03.05.2022 02:42 8,8 C 6,7 C 74 % 1018,3 hPa 0,0 l/m 6,4 km/h (2 Bft) N 360 0 min 0,0 UV-I 0 W/m 4,4 C 8,8 C 9,7 km/h (2 Bft)
03.05.2022 02:43 8,7 C 6,7 C 74 % 1018,2 hPa 0,0 l/m 6,4 km/h (2 Bft) N 360 0 min 0,0 UV-I 0 W/m 4,3 C 8,7 C 9,7 km/h (2 Bft)
03.05.2022 02:44 8,7 C 6,7 C 74 % 1018,2 hPa 0,0 l/m 6,4 km/h (2 Bft) N 360 0 min 0,0 UV-I 0 W/m 4,3 C 8,7 C 8,0 km/h (2 Bft)
03.05.2022 02:45 8,6 C 6,7 C 74 % 1018,2 hPa 0,0 l/m 6,4 km/h (2 Bft) N 360 0 min 0,0 UV-I 0 W/m 4,2 C 8,6 C 9,7 km/h (2 Bft)
03.05.2022 02:46 8,5 C 6,7 C 74 % 1018,2 hPa 0,0 l/m 4,8 km/h (1 Bft) N 360 0 min 0,0 UV-I 0 W/m 4,1 C 8,5 C 8,0 km/h (2 Bft)
03.05.2022 02:47 8,4 C 6,7 C 75 % 1018,2 hPa 0,0 l/m 4,8 km/h (1 Bft) N 360 0 min 0,0 UV-I 0 W/m 4,2 C 8,4 C 6,4 km/h (2 Bft)
03.05.2022 02:48 8,4 C 6,7 C 75 % 1018,1 hPa 0,0 l/m 4,8 km/h (1 Bft) N-NW 337 0 min 0,0 UV-I 0 W/m 4,2 C 8,4 C 8,0 km/h (2 Bft)
03.05.2022 02:49 8,4 C 6,1 C 75 % 1018,3 hPa 0,0 l/m 3,2 km/h (1 Bft) N-NW 337 0 min 0,0 UV-I 0 W/m 4,2 C 8,4 C 4,8 km/h (1 Bft)
03.05.2022 02:50 8,3 C 6,1 C 75 % 1018,1 hPa 0,0 l/m 4,8 km/h (1 Bft) N-NW 337 0 min 0,0 UV-I 0 W/m 4,1 C 8,3 C 6,4 km/h (2 Bft)
03.05.2022 02:51 8,3 C 6,1 C 75 % 1018,3 hPa 0,0 l/m 4,8 km/h (1 Bft) N-NW 337 0 min 0,0 UV-I 0 W/m 4,1 C 8,3 C 6,4 km/h (2 Bft)
03.05.2022 02:52 8,3 C 6,1 C 75 % 1018,3 hPa 0,0 l/m 6,4 km/h (2 Bft) N-NW 337 0 min 0,0 UV-I 0 W/m 4,1 C 8,3 C 8,0 km/h (2 Bft)
03.05.2022 02:53 8,4 C 6,1 C 75 % 1018,2 hPa 0,0 l/m 6,4 km/h (2 Bft) N-NW 337 0 min 0,0 UV-I 0 W/m 4,2 C 8,4 C 9,7 km/h (2 Bft)
03.05.2022 02:54 8,4 C 6,7 C 75 % 1018,2 hPa 0,0 l/m 6,4 km/h (2 Bft) N-NW 337 0 min 0,0 UV-I 0 W/m 4,2 C 8,4 C 8,0 km/h (2 Bft)
03.05.2022 02:55 8,4 C 6,7 C 75 % 1018,2 hPa 0,0 l/m 6,4 km/h (2 Bft) N-NW 337 0 min 0,0 UV-I 0 W/m 4,2 C 8,4 C 9,7 km/h (2 Bft)
03.05.2022 02:56 8,4 C 6,7 C 75 % 1018,2 hPa 0,0 l/m 3,2 km/h (1 Bft) N-NW 337 0 min 0,0 UV-I 0 W/m 4,2 C 8,4 C 4,8 km/h (1 Bft)
03.05.2022 02:57 8,4 C 6,7 C 75 % 1018,2 hPa 0,0 l/m 4,8 km/h (1 Bft) N-NW 337 0 min 0,0 UV-I 0 W/m 4,2 C 8,4 C 8,0 km/h (2 Bft)
03.05.2022 02:58 8,4 C 6,7 C 75 % 1018,2 hPa 0,0 l/m 6,4 km/h (2 Bft) N 360 0 min 0,0 UV-I 0 W/m 4,2 C 8,4 C 8,0 km/h (2 Bft)
03.05.2022 02:59 8,5 C 6,7 C 75 % 1018,3 hPa 0,0 l/m 4,8 km/h (1 Bft) N-NW 337 0 min 0,0 UV-I 0 W/m 4,3 C 8,5 C 6,4 km/h (2 Bft)
03.05.2022 03:00 8,5 C 6,7 C 75 % 1018,2 hPa 0,0 l/m 4,8 km/h (1 Bft) N-NW 337 0 min 0,0 UV-I 0 W/m 4,3 C 8,5 C 8,0 km/h (2 Bft)
03.05.2022 03:01 8,6 C 6,1 C 75 % 1018,1 hPa 0,0 l/m 3,2 km/h (1 Bft) N 360 0 min 0,0 UV-I 0 W/m 4,4 C 8,6 C 6,4 km/h (2 Bft)
03.05.2022 03:02 8,4 C 6,7 C 75 % 1018,2 hPa 0,0 l/m 3,2 km/h (1 Bft) N-NO 22 0 min 0,0 UV-I 0 W/m 4,2 C 8,4 C 6,4 km/h (2 Bft)
03.05.2022 03:03 8,4 C 6,7 C 75 % 1018,2 hPa 0,0 l/m 3,2 km/h (1 Bft) N-NO 22 0 min 0,0 UV-I 0 W/m 4,2 C 8,4 C 6,4 km/h (2 Bft)
03.05.2022 03:04 8,4 C 6,1 C 75 % 1018,2 hPa 0,0 l/m 1,6 km/h (1 Bft) N 360 0 min 0,0 UV-I 0 W/m 4,2 C 8,4 C 4,8 km/h (1 Bft)
03.05.2022 03:05 8,4 C 6,1 C 75 % 1018,3 hPa 0,0 l/m 1,6 km/h (1 Bft) N 360 0 min 0,0 UV-I 0 W/m 4,2 C 8,4 C 3,2 km/h (1 Bft)
03.05.2022 03:06 8,3 C 6,1 C 75 % 1018,2 hPa 0,0 l/m 0,0 km/h (0 Bft) N 360 0 min 0,0 UV-I 0 W/m 4,1 C 8,3 C 1,6 km/h (1 Bft)
03.05.2022 03:07 8,3 C 6,1 C 75 % 1018,2 hPa 0,0 l/m 0,0 km/h (0 Bft) N 360 0 min 0,0 UV-I 0 W/m 4,1 C 8,3 C 1,6 km/h (1 Bft)
03.05.2022 03:08 8,2 C 6,1 C 75 % 1018,2 hPa 0,0 l/m 1,6 km/h (1 Bft) N 360 0 min 0,0 UV-I 0 W/m 4,0 C 8,2 C 3,2 km/h (1 Bft)
03.05.2022 03:09 8,2 C 6,1 C 75 % 1018,3 hPa 0,0 l/m 0,0 km/h (0 Bft) N 0 0 min 0,0 UV-I 0 W/m 4,0 C 8,2 C 0,0 km/h (0 Bft)
03.05.2022 03:10 8,2 C 6,1 C 76 % 1018,2 hPa 0,0 l/m 0,0 km/h (0 Bft) N 0 0 min 0,0 UV-I 0 W/m 4,2 C 8,2 C 0,0 km/h (0 Bft)
03.05.2022 03:11 8,1 C 5,6 C 76 % 1018,2 hPa 0,0 l/m 0,0 km/h (0 Bft) N 0 0 min 0,0 UV-I 0 W/m 4,1 C 8,1 C 0,0 km/h (0 Bft)
03.05.2022 03:12 8,0 C 5,6 C 76 % 1018,2 hPa 0,0 l/m 0,0 km/h (0 Bft) N 360 0 min 0,0 UV-I 0 W/m 4,0 C 8,0 C 1,6 km/h (1 Bft)
03.05.2022 03:13 7,9 C 5,6 C 76 % 1018,3 hPa 0,0 l/m 1,6 km/h (1 Bft) N 360 0 min 0,0 UV-I 0 W/m 3,9 C 7,9 C 3,2 km/h (1 Bft)
03.05.2022 03:14 7,8 C 5,6 C 76 % 1018,2 hPa 0,0 l/m 1,6 km/h (1 Bft) N 360 0 min 0,0 UV-I 0 W/m 3,8 C 7,8 C 3,2 km/h (1 Bft)
03.05.2022 03:15 7,7 C 5,6 C 77 % 1018,2 hPa 0,0 l/m 1,6 km/h (1 Bft) N 360 0 min 0,0 UV-I 0 W/m 3,9 C 7,7 C 3,2 km/h (1 Bft)
03.05.2022 03:16 7,7 C 5,6 C 77 % 1018,2 hPa 0,0 l/m 1,6 km/h (1 Bft) N 360 0 min 0,0 UV-I 0 W/m 3,9 C 7,7 C 3,2 km/h (1 Bft)
03.05.2022 03:17 7,6 C 6,1 C 78 % 1018,2 hPa 0,0 l/m 1,6 km/h (1 Bft) N 360 0 min 0,0 UV-I 0 W/m 4,0 C 7,6 C 3,2 km/h (1 Bft)
03.05.2022 03:18 7,7 C 6,1 C 78 % 1018,2 hPa 0,0 l/m 3,2 km/h (1 Bft) N 360 0 min 0,0 UV-I 0 W/m 4,1 C 7,7 C 3,2 km/h (1 Bft)
03.05.2022 03:19 7,7 C 6,1 C 78 % 1018,2 hPa 0,0 l/m 3,2 km/h (1 Bft) N 360 0 min 0,0 UV-I 0 W/m 4,1 C 7,7 C 4,8 km/h (1 Bft)
03.05.2022 03:20 7,7 C 6,1 C 78 % 1018,2 hPa 0,0 l/m 3,2 km/h (1 Bft) N 360 0 min 0,0 UV-I 0 W/m 4,1 C 7,7 C 6,4 km/h (2 Bft)
03.05.2022 03:21 7,7 C 6,1 C 78 % 1018,2 hPa 0,0 l/m 3,2 km/h (1 Bft) N 360 0 min 0,0 UV-I 0 W/m 4,1 C 7,7 C 4,8 km/h (1 Bft)
03.05.2022 03:22 7,8 C 6,1 C 77 % 1018,1 hPa 0,0 l/m 3,2 km/h (1 Bft) N 360 0 min 0,0 UV-I 0 W/m 4,0 C 7,8 C 4,8 km/h (1 Bft)
03.05.2022 03:23 7,8 C 6,1 C 77 % 1018,1 hPa 0,0 l/m 3,2 km/h (1 Bft) N 360 0 min 0,0 UV-I 0 W/m 4,0 C 7,8 C 4,8 km/h (1 Bft)
03.05.2022 03:24 7,9 C 6,1 C 77 % 1018,2 hPa 0,0 l/m 3,2 km/h (1 Bft) N 360 0 min 0,0 UV-I 0 W/m 4,1 C 7,9 C 4,8 km/h (1 Bft)
03.05.2022 03:25 7,9 C 6,1 C 77 % 1018,2 hPa 0,0 l/m 1,6 km/h (1 Bft) N 360 0 min 0,0 UV-I 0 W/m 4,1 C 7,9 C 3,2 km/h (1 Bft)
03.05.2022 03:26 7,9 C 6,1 C 77 % 1018,2 hPa 0,0 l/m 1,6 km/h (1 Bft) N 360 0 min 0,0 UV-I 0 W/m 4,1 C 7,9 C 3,2 km/h (1 Bft)
03.05.2022 03:27 7,9 C 6,1 C 77 % 1018,2 hPa 0,0 l/m 3,2 km/h (1 Bft) N 360 0 min 0,0 UV-I 0 W/m 4,1 C 7,9 C 4,8 km/h (1 Bft)
03.05.2022 03:28 7,8 C 6,1 C 77 % 1018,2 hPa 0,0 l/m 4,8 km/h (1 Bft) N 360 0 min 0,0 UV-I 0 W/m 4,0 C 7,8 C 4,8 km/h (1 Bft)
03.05.2022 03:29 7,8 C 6,1 C 77 % 1018,2 hPa 0,0 l/m 3,2 km/h (1 Bft) N 360 0 min 0,0 UV-I 0 W/m 4,0 C 7,8 C 6,4 km/h (2 Bft)
03.05.2022 03:30 7,8 C 6,1 C 77 % 1018,1 hPa 0,0 l/m 3,2 km/h (1 Bft) N 360 0 min 0,0 UV-I 0 W/m 4,0 C 7,8 C 4,8 km/h (1 Bft)
03.05.2022 03:31 7,8 C 6,1 C 77 % 1018,1 hPa 0,0 l/m 4,8 km/h (1 Bft) N 360 0 min 0,0 UV-I 0 W/m 4,0 C 7,8 C 4,8 km/h (1 Bft)
03.05.2022 03:32 7,8 C 6,1 C 77 % 1018,2 hPa 0,0 l/m 3,2 km/h (1 Bft) N 360 0 min 0,0 UV-I 0 W/m 4,0 C 7,8 C 4,8 km/h (1 Bft)
03.05.2022 03:33 7,7 C 6,1 C 78 % 1018,1 hPa 0,0 l/m 4,8 km/h (1 Bft) N 360 0 min 0,0 UV-I 0 W/m 4,1 C 7,7 C 4,8 km/h (1 Bft)
03.05.2022 03:34 7,8 C 6,1 C 78 % 1018,1 hPa 0,0 l/m 3,2 km/h (1 Bft) N 360 0 min 0,0 UV-I 0 W/m 4,2 C 7,8 C 4,8 km/h (1 Bft)
03.05.2022 03:35 7,8 C 6,1 C 78 % 1018,1 hPa 0,0 l/m 3,2 km/h (1 Bft) N 360 0 min 0,0 UV-I 0 W/m 4,2 C 7,8 C 4,8 km/h (1 Bft)
03.05.2022 03:36 7,7 C 6,1 C 78 % 1018,2 hPa 0,0 l/m 4,8 km/h (1 Bft) N 360 0 min 0,0 UV-I 0 W/m 4,1 C 7,7 C 6,4 km/h (2 Bft)
03.05.2022 03:37 7,8 C 6,1 C 78 % 1018,1 hPa 0,0 l/m 4,8 km/h (1 Bft) N 360 0 min 0,0 UV-I 0 W/m 4,2 C 7,8 C 6,4 km/h (2 Bft)
03.05.2022 03:38 7,7 C 6,1 C 78 % 1018,1 hPa 0,0 l/m 3,2 km/h (1 Bft) N 360 0 min 0,0 UV-I 0 W/m 4,1 C 7,7 C 4,8 km/h (1 Bft)
03.05.2022 03:39 7,8 C 6,1 C 78 % 1018,1 hPa 0,0 l/m 4,8 km/h (1 Bft) N 360 0 min 0,0 UV-I 0 W/m 4,2 C 7,8 C 4,8 km/h (1 Bft)
03.05.2022 03:40 7,8 C 6,7 C 78 % 1018,0 hPa 0,0 l/m 3,2 km/h (1 Bft) N 360 0 min 0,0 UV-I 0 W/m 4,2 C 7,8 C 4,8 km/h (1 Bft)
03.05.2022 03:41 7,9 C 6,7 C 78 % 1018,2 hPa 0,0 l/m 3,2 km/h (1 Bft) N 360 0 min 0,0 UV-I 0 W/m 4,3 C 7,9 C 4,8 km/h (1 Bft)
03.05.2022 03:42 7,9 C 6,7 C 77 % 1018,1 hPa 0,0 l/m 4,8 km/h (1 Bft) N 360 0 min 0,0 UV-I 0 W/m 4,1 C 7,9 C 4,8 km/h (1 Bft)
03.05.2022 03:43 7,9 C 6,7 C 77 % 1018,1 hPa 0,0 l/m 3,2 km/h (1 Bft) N 360 0 min 0,0 UV-I 0 W/m 4,1 C 7,9 C 4,8 km/h (1 Bft)
03.05.2022 03:44 7,9 C 6,7 C 77 % 1018,1 hPa 0,0 l/m 3,2 km/h (1 Bft) N 360 0 min 0,0 UV-I 0 W/m 4,1 C 7,9 C 4,8 km/h (1 Bft)
03.05.2022 03:45 7,8 C 6,7 C 78 % 1018,2 hPa 0,0 l/m 3,2 km/h (1 Bft) N 360 0 min 0,0 UV-I 0 W/m 4,2 C 7,8 C 4,8 km/h (1 Bft)
03.05.2022 03:46 7,9 C 6,7 C 78 % 1018,0 hPa 0,0 l/m 4,8 km/h (1 Bft) NW 315 0 min 0,0 UV-I 0 W/m 4,3 C 7,9 C 6,4 km/h (2 Bft)
03.05.2022 03:47 7,8 C 6,7 C 78 % 1018,0 hPa 0,0 l/m 4,8 km/h (1 Bft) NW 315 0 min 0,0 UV-I 0 W/m 4,2 C 7,8 C 6,4 km/h (2 Bft)
03.05.2022 03:48 7,8 C 6,7 C 78 % 1018,1 hPa 0,0 l/m 3,2 km/h (1 Bft) NW 315 0 min 0,0 UV-I 0 W/m 4,2 C 7,8 C 4,8 km/h (1 Bft)
03.05.2022 03:49 7,8 C 6,7 C 78 % 1018,1 hPa 0,0 l/m 3,2 km/h (1 Bft) NW 315 0 min 0,0 UV-I 0 W/m 4,2 C 7,8 C 4,8 km/h (1 Bft)
03.05.2022 03:50 7,8 C 6,7 C 78 % 1018,1 hPa 0,0 l/m 4,8 km/h (1 Bft) NW 315 0 min 0,0 UV-I 0 W/m 4,2 C 7,8 C 6,4 km/h (2 Bft)
03.05.2022 03:51 7,9 C 6,7 C 78 % 1018,1 hPa 0,0 l/m 6,4 km/h (2 Bft) NW 315 0 min 0,0 UV-I 0 W/m 4,3 C 7,9 C 8,0 km/h (2 Bft)
03.05.2022 03:52 7,9 C 6,7 C 77 % 1018,1 hPa 0,0 l/m 6,4 km/h (2 Bft) NW 315 0 min 0,0 UV-I 0 W/m 4,1 C 7,9 C 8,0 km/h (2 Bft)
03.05.2022 03:53 8,0 C 6,7 C 77 % 1018,1 hPa 0,0 l/m 4,8 km/h (1 Bft) NW 315 0 min 0,0 UV-I 0 W/m 4,2 C 8,0 C 6,4 km/h (2 Bft)
03.05.2022 03:54 8,0 C 6,7 C 77 % 1018,2 hPa 0,0 l/m 4,8 km/h (1 Bft) NW 315 0 min 0,0 UV-I 0 W/m 4,2 C 8,0 C 6,4 km/h (2 Bft)
03.05.2022 03:55 8,1 C 6,7 C 77 % 1018,0 hPa 0,0 l/m 4,8 km/h (1 Bft) NW 315 0 min 0,0 UV-I 0 W/m 4,3 C 8,1 C 6,4 km/h (2 Bft)
03.05.2022 03:56 8,1 C 6,7 C 77 % 1018,1 hPa 0,0 l/m 3,2 km/h (1 Bft) NW 315 0 min 0,0 UV-I 0 W/m 4,3 C 8,1 C 4,8 km/h (1 Bft)
03.05.2022 03:57 8,1 C 6,7 C 77 % 1018,1 hPa 0,0 l/m 4,8 km/h (1 Bft) NW 315 0 min 0,0 UV-I 0 W/m 4,3 C 8,1 C 6,4 km/h (2 Bft)
03.05.2022 03:58 8,1 C 6,7 C 77 % 1018,2 hPa 0,0 l/m 4,8 km/h (1 Bft) NW 315 0 min 0,0 UV-I 0 W/m 4,3 C 8,1 C 6,4 km/h (2 Bft)
03.05.2022 03:59 8,1 C 6,7 C 77 % 1018,2 hPa 0,0 l/m 4,8 km/h (1 Bft) NW 315 0 min 0,0 UV-I 0 W/m 4,3 C 8,1 C 6,4 km/h (2 Bft)
03.05.2022 04:00 8,2 C 6,7 C 77 % 1018,0 hPa 0,0 l/m 6,4 km/h (2 Bft) NW 315 0 min 0,0 UV-I 0 W/m 4,4 C 8,2 C 6,4 km/h (2 Bft)
03.05.2022 04:01 8,1 C 6,7 C 77 % 1018,0 hPa 0,0 l/m 4,8 km/h (1 Bft) NW 315 0 min 0,0 UV-I 0 W/m 4,3 C 8,1 C 6,4 km/h (2 Bft)
03.05.2022 04:02 8,1 C 6,7 C 77 % 1018,2 hPa 0,0 l/m 4,8 km/h (1 Bft) NW 315 0 min 0,0 UV-I 0 W/m 4,3 C 8,1 C 6,4 km/h (2 Bft)
03.05.2022 04:03 8,1 C 6,7 C 77 % 1018,0 hPa 0,0 l/m 4,8 km/h (1 Bft) NW 315 0 min 0,0 UV-I 0 W/m 4,3 C 8,1 C 6,4 km/h (2 Bft)
03.05.2022 04:04 8,1 C 7,2 C 77 % 1018,1 hPa 0,0 l/m 4,8 km/h (1 Bft) NW 315 0 min 0,0 UV-I 0 W/m 4,3 C 8,1 C 4,8 km/h (1 Bft)
03.05.2022 04:05 8,1 C 7,2 C 77 % 1018,0 hPa 0,0 l/m 4,8 km/h (1 Bft) NW 315 0 min 0,0 UV-I 0 W/m 4,3 C 8,1 C 4,8 km/h (1 Bft)
03.05.2022 04:06 8,1 C 7,2 C 76 % 1018,0 hPa 0,0 l/m 4,8 km/h (1 Bft) NW 315 0 min 0,0 UV-I 0 W/m 4,1 C 8,1 C 6,4 km/h (2 Bft)
03.05.2022 04:07 8,1 C 7,2 C 76 % 1018,0 hPa 0,0 l/m 4,8 km/h (1 Bft) NW 315 0 min 0,0 UV-I 0 W/m 4,1 C 8,1 C 6,4 km/h (2 Bft)
03.05.2022 04:08 8,2 C 7,2 C 76 % 1018,0 hPa 0,0 l/m 3,2 km/h (1 Bft) NW 315 0 min 0,0 UV-I 0 W/m 4,2 C 8,2 C 4,8 km/h (1 Bft)
03.05.2022 04:09 8,2 C 7,2 C 76 % 1018,0 hPa 0,0 l/m 4,8 km/h (1 Bft) NW 315 0 min 0,0 UV-I 0 W/m 4,2 C 8,2 C 6,4 km/h (2 Bft)
03.05.2022 04:10 8,1 C 7,2 C 77 % 1018,1 hPa 0,0 l/m 4,8 km/h (1 Bft) NW 315 0 min 0,0 UV-I 0 W/m 4,3 C 8,1 C 6,4 km/h (2 Bft)
03.05.2022 04:11 8,1 C 7,2 C 76 % 1018,1 hPa 0,0 l/m 4,8 km/h (1 Bft) N-NW 337 0 min 0,0 UV-I 0 W/m 4,1 C 8,1 C 6,4 km/h (2 Bft)
03.05.2022 04:12 8,2 C 7,2 C 76 % 1018,0 hPa 0,0 l/m 4,8 km/h (1 Bft) N-NW 337 0 min 0,0 UV-I 0 W/m 4,2 C 8,2 C 8,0 km/h (2 Bft)
03.05.2022 04:13 8,2 C 7,2 C 76 % 1018,0 hPa 0,0 l/m 6,4 km/h (2 Bft) N 360 0 min 0,0 UV-I 0 W/m 4,2 C 8,2 C 8,0 km/h (2 Bft)
03.05.2022 04:14 8,2 C 7,2 C 76 % 1018,1 hPa 0,0 l/m 4,8 km/h (1 Bft) N-NW 337 0 min 0,0 UV-I 0 W/m 4,2 C 8,2 C 8,0 km/h (2 Bft)
03.05.2022 04:15 8,2 C 7,2 C 76 % 1018,0 hPa 0,0 l/m 4,8 km/h (1 Bft) N-NW 337 0 min 0,0 UV-I 0 W/m 4,2 C 8,2 C 8,0 km/h (2 Bft)
03.05.2022 04:16 8,2 C 7,2 C 76 % 1018,1 hPa 0,0 l/m 4,8 km/h (1 Bft) N-NW 337 0 min 0,0 UV-I 0 W/m 4,2 C 8,2 C 6,4 km/h (2 Bft)
03.05.2022 04:17 8,2 C 7,2 C 76 % 1018,0 hPa 0,0 l/m 3,2 km/h (1 Bft) N-NW 337 0 min 0,0 UV-I 0 W/m 4,2 C 8,2 C 4,8 km/h (1 Bft)
03.05.2022 04:18 8,2 C 7,2 C 76 % 1018,0 hPa 0,0 l/m 1,6 km/h (1 Bft) N-NW 337 0 min 0,0 UV-I 0 W/m 4,2 C 8,2 C 4,8 km/h (1 Bft)
03.05.2022 04:19 8,2 C 7,2 C 76 % 1017,9 hPa 0,0 l/m 3,2 km/h (1 Bft) N-NW 337 0 min 0,0 UV-I 0 W/m 4,2 C 8,2 C 4,8 km/h (1 Bft)
03.05.2022 04:20 8,2 C 7,2 C 76 % 1018,1 hPa 0,0 l/m 4,8 km/h (1 Bft) N-NW 337 0 min 0,0 UV-I 0 W/m 4,2 C 8,2 C 8,0 km/h (2 Bft)
03.05.2022 04:21 8,2 C 7,2 C 76 % 1018,0 hPa 0,0 l/m 3,2 km/h (1 Bft) N-NW 337 0 min 0,0 UV-I 0 W/m 4,2 C 8,2 C 6,4 km/h (2 Bft)
03.05.2022 04:22 8,2 C 7,2 C 77 % 1017,9 hPa 0,0 l/m 3,2 km/h (1 Bft) N-NW 337 0 min 0,0 UV-I 0 W/m 4,4 C 8,2 C 4,8 km/h (1 Bft)
03.05.2022 04:23 8,2 C 7,2 C 77 % 1017,9 hPa 0,0 l/m 3,2 km/h (1 Bft) N-NW 337 0 min 0,0 UV-I 0 W/m 4,4 C 8,2 C 4,8 km/h (1 Bft)
03.05.2022 04:24 8,1 C 7,2 C 77 % 1018,0 hPa 0,0 l/m 4,8 km/h (1 Bft) N-NW 337 0 min 0,0 UV-I 0 W/m 4,3 C 8,1 C 6,4 km/h (2 Bft)
03.05.2022 04:25 8,1 C 7,2 C 77 % 1017,9 hPa 0,0 l/m 4,8 km/h (1 Bft) N-NW 337 0 min 0,0 UV-I 0 W/m 4,3 C 8,1 C 6,4 km/h (2 Bft)
03.05.2022 04:26 8,1 C 7,2 C 77 % 1017,9 hPa 0,0 l/m 4,8 km/h (1 Bft) N-NW 337 0 min 0,0 UV-I 0 W/m 4,3 C 8,1 C 6,4 km/h (2 Bft)
03.05.2022 04:27 8,1 C 7,2 C 77 % 1017,9 hPa 0,0 l/m 4,8 km/h (1 Bft) N 360 0 min 0,0 UV-I 0 W/m 4,3 C 8,1 C 8,0 km/h (2 Bft)
03.05.2022 04:28 8,1 C 7,2 C 77 % 1017,9 hPa 0,0 l/m 4,8 km/h (1 Bft) N-NW 337 0 min 0,0 UV-I 0 W/m 4,3 C 8,1 C 8,0 km/h (2 Bft)
03.05.2022 04:29 8,1 C 7,2 C 77 % 1017,9 hPa 0,0 l/m 3,2 km/h (1 Bft) N-NW 337 0 min 0,0 UV-I 0 W/m 4,3 C 8,1 C 8,0 km/h (2 Bft)
03.05.2022 04:30 8,1 C 7,2 C 77 % 1018,0 hPa 0,0 l/m 4,8 km/h (1 Bft) N-NW 337 0 min 0,0 UV-I 0 W/m 4,3 C 8,1 C 6,4 km/h (2 Bft)
03.05.2022 04:31 8,1 C 7,2 C 77 % 1017,9 hPa 0,0 l/m 3,2 km/h (1 Bft) N-NW 337 0 min 0,0 UV-I 0 W/m 4,3 C 8,1 C 4,8 km/h (1 Bft)
03.05.2022 04:32 8,1 C 7,2 C 77 % 1017,9 hPa 0,0 l/m 1,6 km/h (1 Bft) N-NW 337 0 min 0,0 UV-I 0 W/m 4,3 C 8,1 C 1,6 km/h (1 Bft)
03.05.2022 04:33 8,1 C 7,2 C 77 % 1018,0 hPa 0,0 l/m 0,0 km/h (0 Bft) N-NW 337 0 min 0,0 UV-I 0 W/m 4,3 C 8,1 C 3,2 km/h (1 Bft)
03.05.2022 04:34 8,1 C 7,2 C 77 % 1017,9 hPa 0,0 l/m 1,6 km/h (1 Bft) N-NW 337 0 min 0,0 UV-I 0 W/m 4,3 C 8,1 C 3,2 km/h (1 Bft)
03.05.2022 04:35 8,1 C 7,2 C 77 % 1017,9 hPa 0,0 l/m 1,6 km/h (1 Bft) N-NW 337 0 min 0,0 UV-I 0 W/m 4,3 C 8,1 C 3,2 km/h (1 Bft)
03.05.2022 04:36 8,0 C 7,2 C 77 % 1017,8 hPa 0,0 l/m 1,6 km/h (1 Bft) N-NW 337 0 min 0,0 UV-I 0 W/m 4,2 C 8,0 C 3,2 km/h (1 Bft)
03.05.2022 04:37 8,1 C 7,2 C 77 % 1017,9 hPa 0,0 l/m 0,0 km/h (0 Bft) N-NW 337 0 min 0,0 UV-I 0 W/m 4,3 C 8,1 C 1,6 km/h (1 Bft)
03.05.2022 04:38 8,0 C 6,7 C 77 % 1018,0 hPa 0,0 l/m 0,0 km/h (0 Bft) N-NW 337 0 min 0,0 UV-I 0 W/m 4,2 C 8,0 C 1,6 km/h (1 Bft)
03.05.2022 04:39 8,0 C 6,7 C 77 % 1017,9 hPa 0,0 l/m 1,6 km/h (1 Bft) N-NW 337 0 min 0,0 UV-I 0 W/m 4,2 C 8,0 C 3,2 km/h (1 Bft)
03.05.2022 04:40 7,9 C 6,7 C 77 % 1018,0 hPa 0,0 l/m 1,6 km/h (1 Bft) N-NW 337 0 min 0,0 UV-I 0 W/m 4,1 C 7,9 C 3,2 km/h (1 Bft)
03.05.2022 04:41 7,9 C 6,7 C 77 % 1017,8 hPa 0,0 l/m 0,0 km/h (0 Bft) N-NW 337 0 min 0,0 UV-I 0 W/m 4,1 C 7,9 C 1,6 km/h (1 Bft)
03.05.2022 04:42 7,9 C 6,7 C 77 % 1017,9 hPa 0,0 l/m 1,6 km/h (1 Bft) N-NW 337 0 min 0,0 UV-I 0 W/m 4,1 C 7,9 C 1,6 km/h (1 Bft)
03.05.2022 04:43 7,9 C 6,7 C 78 % 1017,9 hPa 0,0 l/m 0,0 km/h (0 Bft) N 0 0 min 0,0 UV-I 0 W/m 4,3 C 7,9 C 0,0 km/h (0 Bft)
03.05.2022 04:44 7,8 C 6,7 C 78 % 1017,9 hPa 0,0 l/m 0,0 km/h (0 Bft) N-NW 337 0 min 0,0 UV-I 0 W/m 4,2 C 7,8 C 1,6 km/h (1 Bft)
03.05.2022 04:45 7,8 C 6,7 C 78 % 1017,9 hPa 0,0 l/m 0,0 km/h (0 Bft) N 0 0 min 0,0 UV-I 0 W/m 4,2 C 7,8 C 0,0 km/h (0 Bft)
03.05.2022 04:46 7,8 C 6,7 C 78 % 1017,8 hPa 0,0 l/m 0,0 km/h (0 Bft) N-NW 337 0 min 0,0 UV-I 0 W/m 4,2 C 7,8 C 1,6 km/h (1 Bft)
03.05.2022 04:47 7,8 C 6,7 C 78 % 1017,9 hPa 0,0 l/m 0,0 km/h (0 Bft) N-NW 337 0 min 0,0 UV-I 0 W/m 4,2 C 7,8 C 1,6 km/h (1 Bft)
03.05.2022 04:48 7,8 C 6,7 C 78 % 1017,9 hPa 0,0 l/m 1,6 km/h (1 Bft) N-NW 337 0 min 0,0 UV-I 0 W/m 4,2 C 7,8 C 3,2 km/h (1 Bft)
03.05.2022 04:49 7,8 C 6,7 C 78 % 1017,9 hPa 0,0 l/m 1,6 km/h (1 Bft) N-NW 337 0 min 0,0 UV-I 0 W/m 4,2 C 7,8 C 3,2 km/h (1 Bft)
03.05.2022 04:50 7,8 C 6,7 C 79 % 1017,8 hPa 0,0 l/m 1,6 km/h (1 Bft) N-NW 337 0 min 0,0 UV-I 0 W/m 4,4 C 7,8 C 3,2 km/h (1 Bft)
03.05.2022 04:51 7,7 C 6,7 C 79 % 1017,8 hPa 0,0 l/m 1,6 km/h (1 Bft) N-NW 337 0 min 0,0 UV-I 0 W/m 4,3 C 7,7 C 1,6 km/h (1 Bft)
03.05.2022 04:52 7,8 C 6,7 C 79 % 1017,9 hPa 0,0 l/m 0,0 km/h (0 Bft) N 0 0 min 0,0 UV-I 0 W/m 4,4 C 7,8 C 0,0 km/h (0 Bft)
03.05.2022 04:53 7,7 C 6,7 C 79 % 1017,8 hPa 0,0 l/m 0,0 km/h (0 Bft) N-NW 337 0 min 0,0 UV-I 0 W/m 4,3 C 7,7 C 1,6 km/h (1 Bft)
03.05.2022 04:54 7,7 C 6,7 C 79 % 1017,8 hPa 0,0 l/m 0,0 km/h (0 Bft) N 0 0 min 0,0 UV-I 0 W/m 4,3 C 7,7 C 0,0 km/h (0 Bft)
03.05.2022 04:55 7,7 C 6,7 C 79 % 1017,8 hPa 0,0 l/m 0,0 km/h (0 Bft) N 0 0 min 0,0 UV-I 0 W/m 4,3 C 7,7 C 0,0 km/h (0 Bft)
03.05.2022 04:56 7,7 C 6,7 C 80 % 1017,8 hPa 0,0 l/m 0,0 km/h (0 Bft) N 0 0 min 0,0 UV-I 0 W/m 4,5 C 7,7 C 0,0 km/h (0 Bft)
03.05.2022 04:57 7,6 C 6,7 C 81 % 1017,9 hPa 0,0 l/m 0,0 km/h (0 Bft) N 0 0 min 0,0 UV-I 0 W/m 4,6 C 7,6 C 0,0 km/h (0 Bft)
03.05.2022 04:58 7,6 C 6,7 C 81 % 1017,8 hPa 0,0 l/m 0,0 km/h (0 Bft) N 0 0 min 0,0 UV-I 0 W/m 4,6 C 7,6 C 0,0 km/h (0 Bft)
03.05.2022 04:59 7,6 C 6,7 C 80 % 1017,9 hPa 0,0 l/m 0,0 km/h (0 Bft) N 0 0 min 0,0 UV-I 0 W/m 4,4 C 7,6 C 0,0 km/h (0 Bft)
03.05.2022 05:00 7,6 C 6,7 C 80 % 1017,8 hPa 0,0 l/m 0,0 km/h (0 Bft) N 0 0 min 0,0 UV-I 0 W/m 4,4 C 7,6 C 0,0 km/h (0 Bft)
03.05.2022 05:01 7,6 C 6,7 C 80 % 1017,8 hPa 0,0 l/m 0,0 km/h (0 Bft) N-NW 337 0 min 0,0 UV-I 0 W/m 4,4 C 7,6 C 1,6 km/h (1 Bft)
03.05.2022 05:02 7,6 C 6,7 C 80 % 1017,8 hPa 0,0 l/m 1,6 km/h (1 Bft) N-NW 337 0 min 0,0 UV-I 0 W/m 4,4 C 7,6 C 1,6 km/h (1 Bft)
03.05.2022 05:03 7,6 C 6,7 C 80 % 1017,8 hPa 0,0 l/m 1,6 km/h (1 Bft) N-NW 337 0 min 0,0 UV-I 0 W/m 4,4 C 7,6 C 3,2 km/h (1 Bft)
03.05.2022 05:04 7,6 C 6,7 C 80 % 1017,8 hPa 0,0 l/m 1,6 km/h (1 Bft) N-NW 337 0 min 0,0 UV-I 0 W/m 4,4 C 7,6 C 3,2 km/h (1 Bft)
03.05.2022 05:05 7,6 C 6,7 C 80 % 1017,8 hPa 0,0 l/m 3,2 km/h (1 Bft) N-NW 337 0 min 0,0 UV-I 0 W/m 4,4 C 7,6 C 3,2 km/h (1 Bft)
03.05.2022 05:06 7,6 C 6,7 C 80 % 1017,8 hPa 0,0 l/m 3,2 km/h (1 Bft) N-NW 337 0 min 0,0 UV-I 0 W/m 4,4 C 7,6 C 4,8 km/h (1 Bft)
03.05.2022 05:07 7,6 C 6,7 C 80 % 1017,7 hPa 0,0 l/m 3,2 km/h (1 Bft) N-NW 337 0 min 0,0 UV-I 0 W/m 4,4 C 7,6 C 4,8 km/h (1 Bft)
03.05.2022 05:08 7,6 C 6,7 C 80 % 1017,8 hPa 0,0 l/m 0,0 km/h (0 Bft) N-NW 337 0 min 0,0 UV-I 0 W/m 4,4 C 7,6 C 1,6 km/h (1 Bft)
03.05.2022 05:09 7,6 C 6,7 C 80 % 1017,8 hPa 0,0 l/m 1,6 km/h (1 Bft) N-NW 337 0 min 0,0 UV-I 0 W/m 4,4 C 7,6 C 3,2 km/h (1 Bft)
03.05.2022 05:10 7,6 C 6,7 C 80 % 1017,8 hPa 0,0 l/m 3,2 km/h (1 Bft) N-NW 337 0 min 0,0 UV-I 0 W/m 4,4 C 7,6 C 4,8 km/h (1 Bft)
03.05.2022 05:11 7,6 C 6,7 C 80 % 1017,8 hPa 0,0 l/m 1,6 km/h (1 Bft) N-NW 337 0 min 0,0 UV-I 0 W/m 4,4 C 7,6 C 3,2 km/h (1 Bft)
03.05.2022 05:12 7,6 C 6,7 C 80 % 1017,7 hPa 0,0 l/m 3,2 km/h (1 Bft) N-NW 337 0 min 0,0 UV-I 0 W/m 4,4 C 7,6 C 6,4 km/h (2 Bft)
03.05.2022 05:13 7,6 C 6,7 C 80 % 1017,8 hPa 0,0 l/m 4,8 km/h (1 Bft) N-NW 337 0 min 0,0 UV-I 0 W/m 4,4 C 7,6 C 6,4 km/h (2 Bft)
03.05.2022 05:14 7,6 C 6,7 C 80 % 1017,9 hPa 0,0 l/m 3,2 km/h (1 Bft) N-NW 337 0 min 0,0 UV-I 0 W/m 4,4 C 7,6 C 6,4 km/h (2 Bft)
03.05.2022 05:15 7,6 C 6,7 C 79 % 1017,8 hPa 0,0 l/m 3,2 km/h (1 Bft) N-NW 337 0 min 0,0 UV-I 0 W/m 4,2 C 7,6 C 6,4 km/h (2 Bft)
03.05.2022 05:16 7,7 C 6,7 C 79 % 1017,8 hPa 0,0 l/m 3,2 km/h (1 Bft) N-NW 337 0 min 0,0 UV-I 0 W/m 4,3 C 7,7 C 6,4 km/h (2 Bft)
03.05.2022 05:17 7,7 C 6,7 C 80 % 1017,8 hPa 0,0 l/m 3,2 km/h (1 Bft) N-NW 337 0 min 0,0 UV-I 0 W/m 4,5 C 7,7 C 4,8 km/h (1 Bft)
03.05.2022 05:18 7,7 C 6,7 C 80 % 1017,8 hPa 0,0 l/m 1,6 km/h (1 Bft) N-NW 337 0 min 0,0 UV-I 0 W/m 4,5 C 7,7 C 4,8 km/h (1 Bft)
03.05.2022 05:19 7,6 C 6,7 C 80 % 1017,8 hPa 0,0 l/m 4,8 km/h (1 Bft) N-NW 337 0 min 0,0 UV-I 0 W/m 4,4 C 7,6 C 6,4 km/h (2 Bft)
03.05.2022 05:20 7,6 C 6,7 C 80 % 1017,7 hPa 0,0 l/m 4,8 km/h (1 Bft) N-NW 337 0 min 0,0 UV-I 0 W/m 4,4 C 7,6 C 6,4 km/h (2 Bft)
03.05.2022 05:21 7,6 C 6,7 C 80 % 1017,7 hPa 0,0 l/m 3,2 km/h (1 Bft) N-NW 337 0 min 0,0 UV-I 0 W/m 4,4 C 7,6 C 4,8 km/h (1 Bft)
03.05.2022 05:22 7,6 C 6,7 C 80 % 1017,7 hPa 0,0 l/m 3,2 km/h (1 Bft) N-NW 337 0 min 0,0 UV-I 0 W/m 4,4 C 7,6 C 4,8 km/h (1 Bft)
03.05.2022 05:23 7,6 C 6,7 C 80 % 1017,7 hPa 0,0 l/m 4,8 km/h (1 Bft) N-NW 337 0 min 0,0 UV-I 0 W/m 4,4 C 7,6 C 6,4 km/h (2 Bft)
03.05.2022 05:24 7,6 C 6,7 C 80 % 1017,8 hPa 0,0 l/m 1,6 km/h (1 Bft) N-NW 337 0 min 0,0 UV-I 0 W/m 4,4 C 7,6 C 3,2 km/h (1 Bft)
03.05.2022 05:25 7,6 C 6,7 C 80 % 1017,8 hPa 0,0 l/m 1,6 km/h (1 Bft) N-NW 337 0 min 0,0 UV-I 0 W/m 4,4 C 7,6 C 3,2 km/h (1 Bft)
03.05.2022 05:26 7,6 C 6,7 C 80 % 1017,8 hPa 0,0 l/m 3,2 km/h (1 Bft) N-NW 337 0 min 0,0 UV-I 0 W/m 4,4 C 7,6 C 4,8 km/h (1 Bft)
03.05.2022 05:27 7,6 C 6,7 C 80 % 1017,8 hPa 0,0 l/m 3,2 km/h (1 Bft) N-NW 337 0 min 0,0 UV-I 0 W/m 4,4 C 7,6 C 6,4 km/h (2 Bft)
03.05.2022 05:28 7,6 C 6,7 C 80 % 1017,7 hPa 0,0 l/m 3,2 km/h (1 Bft) N-NW 337 0 min 0,0 UV-I 0 W/m 4,4 C 7,6 C 4,8 km/h (1 Bft)
03.05.2022 05:29 7,6 C 6,7 C 80 % 1017,8 hPa 0,0 l/m 3,2 km/h (1 Bft) N-NW 337 0 min 0,0 UV-I 0 W/m 4,4 C 7,6 C 4,8 km/h (1 Bft)
03.05.2022 05:30 7,6 C 6,7 C 80 % 1017,8 hPa 0,0 l/m 1,6 km/h (1 Bft) N-NW 337 0 min 0,0 UV-I 0 W/m 4,4 C 7,6 C 3,2 km/h (1 Bft)
03.05.2022 05:31 7,6 C 6,7 C 80 % 1017,8 hPa 0,0 l/m 1,6 km/h (1 Bft) N-NW 337 0 min 0,0 UV-I 0 W/m 4,4 C 7,6 C 3,2 km/h (1 Bft)
03.05.2022 05:32 7,6 C 6,7 C 81 % 1017,8 hPa 0,0 l/m 1,6 km/h (1 Bft) N-NW 337 0 min 0,0 UV-I 0 W/m 4,6 C 7,6 C 4,8 km/h (1 Bft)
03.05.2022 05:33 7,6 C 6,7 C 80 % 1017,9 hPa 0,0 l/m 1,6 km/h (1 Bft) N-NW 337 0 min 0,0 UV-I 0 W/m 4,4 C 7,6 C 6,4 km/h (2 Bft)
03.05.2022 05:34 7,6 C 6,7 C 81 % 1017,9 hPa 0,0 l/m 3,2 km/h (1 Bft) N-NW 337 0 min 0,0 UV-I 0 W/m 4,6 C 7,6 C 6,4 km/h (2 Bft)
03.05.2022 05:35 7,6 C 6,7 C 81 % 1017,9 hPa 0,0 l/m 3,2 km/h (1 Bft) N-NW 337 0 min 0,0 UV-I 0 W/m 4,6 C 7,6 C 4,8 km/h (1 Bft)
03.05.2022 05:36 7,6 C 6,7 C 80 % 1017,8 hPa 0,0 l/m 4,8 km/h (1 Bft) N 360 0 min 0,0 UV-I 0 W/m 4,4 C 7,6 C 6,4 km/h (2 Bft)
03.05.2022 05:37 7,6 C 6,7 C 80 % 1017,8 hPa 0,0 l/m 4,8 km/h (1 Bft) N-NW 337 0 min 0,0 UV-I 0 W/m 4,4 C 7,6 C 8,0 km/h (2 Bft)
03.05.2022 05:38 7,6 C 6,7 C 80 % 1017,9 hPa 0,0 l/m 3,2 km/h (1 Bft) N 360 0 min 0,0 UV-I 0 W/m 4,4 C 7,6 C 4,8 km/h (1 Bft)
03.05.2022 05:39 7,7 C 6,7 C 80 % 1017,9 hPa 0,0 l/m 4,8 km/h (1 Bft) N-NW 337 0 min 0,0 UV-I 0 W/m 4,5 C 7,7 C 6,4 km/h (2 Bft)
03.05.2022 05:40 7,6 C 6,7 C 80 % 1017,9 hPa 0,0 l/m 3,2 km/h (1 Bft) N-NW 337 0 min 0,0 UV-I 0 W/m 4,4 C 7,6 C 4,8 km/h (1 Bft)
03.05.2022 05:41 7,7 C 6,7 C 80 % 1017,8 hPa 0,0 l/m 3,2 km/h (1 Bft) N-NW 337 0 min 0,0 UV-I 0 W/m 4,5 C 7,7 C 4,8 km/h (1 Bft)
03.05.2022 05:42 7,6 C 6,7 C 80 % 1017,8 hPa 0,0 l/m 3,2 km/h (1 Bft) N-NW 337 0 min 0,0 UV-I 0 W/m 4,4 C 7,6 C 4,8 km/h (1 Bft)
03.05.2022 05:43 7,7 C 6,7 C 80 % 1017,8 hPa 0,0 l/m 4,8 km/h (1 Bft) N-NW 337 0 min 0,0 UV-I 0 W/m 4,5 C 7,7 C 6,4 km/h (2 Bft)
03.05.2022 05:44 7,7 C 6,7 C 80 % 1017,8 hPa 0,0 l/m 3,2 km/h (1 Bft) N-NW 337 0 min 0,0 UV-I 0 W/m 4,5 C 7,7 C 4,8 km/h (1 Bft)
03.05.2022 05:45 7,7 C 6,7 C 80 % 1017,7 hPa 0,0 l/m 3,2 km/h (1 Bft) N-NW 337 0 min 0,0 UV-I 0 W/m 4,5 C 7,7 C 4,8 km/h (1 Bft)
03.05.2022 05:46 7,6 C 6,7 C 80 % 1017,8 hPa 0,0 l/m 3,2 km/h (1 Bft) N-NW 337 0 min 0,0 UV-I 0 W/m 4,4 C 7,6 C 6,4 km/h (2 Bft)
03.05.2022 05:47 7,6 C 6,7 C 80 % 1017,8 hPa 0,0 l/m 4,8 km/h (1 Bft) N-NW 337 0 min 0,0 UV-I 0 W/m 4,4 C 7,6 C 6,4 km/h (2 Bft)
03.05.2022 05:48 7,6 C 6,7 C 80 % 1017,8 hPa 0,0 l/m 3,2 km/h (1 Bft) N-NW 337 0 min 0,0 UV-I 0 W/m 4,4 C 7,6 C 4,8 km/h (1 Bft)
03.05.2022 05:49 7,6 C 6,7 C 80 % 1017,7 hPa 0,0 l/m 3,2 km/h (1 Bft) N-NW 337 0 min 0,0 UV-I 0 W/m 4,4 C 7,6 C 4,8 km/h (1 Bft)
03.05.2022 05:50 7,6 C 6,7 C 80 % 1017,8 hPa 0,0 l/m 3,2 km/h (1 Bft) N-NW 337 0 min 0,0 UV-I 0 W/m 4,4 C 7,6 C 6,4 km/h (2 Bft)
03.05.2022 05:51 7,6 C 6,7 C 80 % 1017,8 hPa 0,0 l/m 3,2 km/h (1 Bft) N-NW 337 0 min 0,0 UV-I 0 W/m 4,4 C 7,6 C 4,8 km/h (1 Bft)
03.05.2022 05:52 7,6 C 6,7 C 80 % 1017,8 hPa 0,0 l/m 3,2 km/h (1 Bft) N-NW 337 0 min 0,0 UV-I 0 W/m 4,4 C 7,6 C 4,8 km/h (1 Bft)
03.05.2022 05:53 7,6 C 6,7 C 80 % 1017,8 hPa 0,0 l/m 3,2 km/h (1 Bft) N-NW 337 0 min 0,0 UV-I 0 W/m 4,4 C 7,6 C 4,8 km/h (1 Bft)
03.05.2022 05:54 7,6 C 6,7 C 80 % 1017,7 hPa 0,0 l/m 3,2 km/h (1 Bft) N-NW 337 0 min 0,0 UV-I 0 W/m 4,4 C 7,6 C 4,8 km/h (1 Bft)
03.05.2022 05:55 7,6 C 6,7 C 80 % 1017,7 hPa 0,0 l/m 3,2 km/h (1 Bft) N-NW 337 0 min 0,0 UV-I 0 W/m 4,4 C 7,6 C 4,8 km/h (1 Bft)
03.05.2022 05:56 7,6 C 6,7 C 80 % 1017,8 hPa 0,0 l/m 3,2 km/h (1 Bft) N-NW 337 0 min 0,0 UV-I 0 W/m 4,4 C 7,6 C 3,2 km/h (1 Bft)
03.05.2022 05:57 7,6 C 6,7 C 80 % 1017,7 hPa 0,0 l/m 1,6 km/h (1 Bft) N-NW 337 0 min 0,0 UV-I 0 W/m 4,4 C 7,6 C 3,2 km/h (1 Bft)
03.05.2022 05:58 7,6 C 6,7 C 80 % 1017,7 hPa 0,0 l/m 0,0 km/h (0 Bft) N-NW 337 0 min 0,0 UV-I 0 W/m 4,4 C 7,6 C 1,6 km/h (1 Bft)
03.05.2022 05:59 7,6 C 6,7 C 80 % 1017,7 hPa 0,0 l/m 1,6 km/h (1 Bft) N-NW 337 0 min 0,0 UV-I 0 W/m 4,4 C 7,6 C 3,2 km/h (1 Bft)
03.05.2022 06:00 7,6 C 6,7 C 81 % 1017,8 hPa 0,0 l/m 1,6 km/h (1 Bft) N-NW 337 0 min 0,0 UV-I 0 W/m 4,6 C 7,6 C 3,2 km/h (1 Bft)
03.05.2022 06:01 7,6 C 6,7 C 81 % 1017,8 hPa 0,0 l/m 1,6 km/h (1 Bft) N-NW 337 0 min 0,0 UV-I 0 W/m 4,6 C 7,6 C 3,2 km/h (1 Bft)
03.05.2022 06:02 7,5 C 6,7 C 81 % 1017,7 hPa 0,0 l/m 1,6 km/h (1 Bft) N-NW 337 0 min 0,0 UV-I 0 W/m 4,5 C 7,5 C 3,2 km/h (1 Bft)
03.05.2022 06:03 7,4 C 6,7 C 82 % 1017,8 hPa 0,0 l/m 1,6 km/h (1 Bft) N-NW 337 0 min 0,0 UV-I 0 W/m 4,5 C 7,4 C 1,6 km/h (1 Bft)
03.05.2022 06:04 7,4 C 6,7 C 82 % 1017,7 hPa 0,0 l/m 1,6 km/h (1 Bft) N-NW 337 0 min 0,0 UV-I 0 W/m 4,5 C 7,4 C 3,2 km/h (1 Bft)
03.05.2022 06:05 7,4 C 6,7 C 82 % 1017,8 hPa 0,0 l/m 1,6 km/h (1 Bft) N-NW 337 0 min 0,0 UV-I 0 W/m 4,5 C 7,4 C 3,2 km/h (1 Bft)
03.05.2022 06:06 7,4 C 6,7 C 82 % 1017,7 hPa 0,0 l/m 1,6 km/h (1 Bft) N-NW 337 0 min 0,0 UV-I 0 W/m 4,5 C 7,4 C 1,6 km/h (1 Bft)
03.05.2022 06:07 7,3 C 6,7 C 82 % 1017,7 hPa 0,0 l/m 0,0 km/h (0 Bft) N-NW 337 0 min 0,0 UV-I 0 W/m 4,4 C 7,3 C 1,6 km/h (1 Bft)
03.05.2022 06:08 7,3 C 6,1 C 82 % 1017,8 hPa 0,0 l/m 1,6 km/h (1 Bft) N-NW 337 0 min 0,0 UV-I 0 W/m 4,4 C 7,3 C 1,6 km/h (1 Bft)
03.05.2022 06:09 7,3 C 6,1 C 82 % 1017,7 hPa 0,0 l/m 0,0 km/h (0 Bft) N-NW 337 0 min 0,0 UV-I 0 W/m 4,4 C 7,3 C 1,6 km/h (1 Bft)
03.05.2022 06:10 7,3 C 6,1 C 82 % 1017,7 hPa 0,0 l/m 0,0 km/h (0 Bft) N 0 0 min 0,0 UV-I 0 W/m 4,4 C 7,3 C 0,0 km/h (0 Bft)
03.05.2022 06:11 7,3 C 6,1 C 82 % 1017,7 hPa 0,0 l/m 0,0 km/h (0 Bft) N 0 0 min 0,0 UV-I 0 W/m 4,4 C 7,3 C 0,0 km/h (0 Bft)
03.05.2022 06:12 7,3 C 6,1 C 82 % 1017,7 hPa 0,0 l/m 0,0 km/h (0 Bft) N 0 0 min 0,0 UV-I 0 W/m 4,4 C 7,3 C 0,0 km/h (0 Bft)
03.05.2022 06:13 7,3 C 6,1 C 82 % 1017,6 hPa 0,0 l/m 0,0 km/h (0 Bft) N 0 0 min 0,0 UV-I 0 W/m 4,4 C 7,3 C 0,0 km/h (0 Bft)
03.05.2022 06:14 7,4 C 6,1 C 83 % 1017,6 hPa 0,0 l/m 0,0 km/h (0 Bft) N 0 0 min 0,0 UV-I 0 W/m 4,7 C 7,4 C 0,0 km/h (0 Bft)
03.05.2022 06:15 7,3 C 6,1 C 83 % 1017,7 hPa 0,0 l/m 0,0 km/h (0 Bft) N 0 0 min 0,0 UV-I 0 W/m 4,6 C 7,3 C 0,0 km/h (0 Bft)
03.05.2022 06:16 7,4 C 6,1 C 83 % 1017,6 hPa 0,0 l/m 0,0 km/h (0 Bft) N 0 0 min 0,0 UV-I 0 W/m 4,7 C 7,4 C 0,0 km/h (0 Bft)
03.05.2022 06:17 7,3 C 6,1 C 83 % 1017,6 hPa 0,0 l/m 0,0 km/h (0 Bft) N 0 0 min 0,0 UV-I 0 W/m 4,6 C 7,3 C 0,0 km/h (0 Bft)
03.05.2022 06:18 7,3 C 6,1 C 83 % 1017,6 hPa 0,0 l/m 0,0 km/h (0 Bft) N 0 0 min 0,0 UV-I 0 W/m 4,6 C 7,3 C 0,0 km/h (0 Bft)
03.05.2022 06:19 7,3 C 6,1 C 83 % 1017,7 hPa 0,0 l/m 0,0 km/h (0 Bft) N-NW 337 0 min 0,0 UV-I 0 W/m 4,6 C 7,3 C 1,6 km/h (1 Bft)
03.05.2022 06:20 7,3 C 6,1 C 83 % 1017,7 hPa 0,0 l/m 1,6 km/h (1 Bft) N-NW 337 0 min 0,0 UV-I 0 W/m 4,6 C 7,3 C 3,2 km/h (1 Bft)
03.05.2022 06:21 7,3 C 6,1 C 83 % 1017,8 hPa 0,0 l/m 1,6 km/h (1 Bft) N-NW 337 0 min 0,0 UV-I 0 W/m 4,6 C 7,3 C 1,6 km/h (1 Bft)
03.05.2022 06:22 7,2 C 6,1 C 83 % 1017,7 hPa 0,0 l/m 0,0 km/h (0 Bft) N-NW 337 0 min 0,0 UV-I 0 W/m 4,5 C 7,2 C 1,6 km/h (1 Bft)
03.05.2022 06:23 7,2 C 6,1 C 83 % 1017,7 hPa 0,0 l/m 0,0 km/h (0 Bft) N 0 0 min 0,0 UV-I 0 W/m 4,5 C 7,2 C 0,0 km/h (0 Bft)
03.05.2022 06:24 7,2 C 6,1 C 83 % 1017,7 hPa 0,0 l/m 0,0 km/h (0 Bft) N 0 0 min 0,0 UV-I 0 W/m 4,5 C 7,2 C 0,0 km/h (0 Bft)
03.05.2022 06:25 7,2 C 6,1 C 83 % 1017,8 hPa 0,0 l/m 0,0 km/h (0 Bft) N 0 0 min 0,0 UV-I 0 W/m 4,5 C 7,2 C 0,0 km/h (0 Bft)
03.05.2022 06:26 7,3 C 6,1 C 83 % 1017,7 hPa 0,0 l/m 0,0 km/h (0 Bft) N 0 0 min 0,0 UV-I 0 W/m 4,6 C 7,3 C 0,0 km/h (0 Bft)
03.05.2022 06:27 7,3 C 6,1 C 83 % 1017,6 hPa 0,0 l/m 0,0 km/h (0 Bft) N 0 0 min 0,0 UV-I 0 W/m 4,6 C 7,3 C 0,0 km/h (0 Bft)
03.05.2022 06:28 7,3 C 6,1 C 83 % 1017,7 hPa 0,0 l/m 0,0 km/h (0 Bft) N 0 0 min 0,0 UV-I 0 W/m 4,6 C 7,3 C 0,0 km/h (0 Bft)
03.05.2022 06:29 7,3 C 6,1 C 83 % 1017,6 hPa 0,0 l/m 0,0 km/h (0 Bft) N-NW 337 0 min 0,0 UV-I 0 W/m 4,6 C 7,3 C 3,2 km/h (1 Bft)
03.05.2022 06:30 7,3 C 6,1 C 83 % 1017,7 hPa 0,0 l/m 1,6 km/h (1 Bft) N-NW 337 0 min 0,0 UV-I 0 W/m 4,6 C 7,3 C 3,2 km/h (1 Bft)
03.05.2022 06:31 7,3 C 6,1 C 83 % 1017,6 hPa 0,0 l/m 1,6 km/h (1 Bft) N-NW 337 0 min 0,0 UV-I 5 W/m 4,6 C 7,3 C 3,2 km/h (1 Bft)
03.05.2022 06:32 7,3 C 6,1 C 83 % 1017,6 hPa 0,0 l/m 1,6 km/h (1 Bft) N-NW 337 0 min 0,0 UV-I 5 W/m 4,6 C 7,3 C 3,2 km/h (1 Bft)
03.05.2022 06:33 7,3 C 6,1 C 83 % 1017,6 hPa 0,0 l/m 1,6 km/h (1 Bft) N-NW 337 0 min 0,0 UV-I 5 W/m 4,6 C 7,3 C 3,2 km/h (1 Bft)
03.05.2022 06:34 7,3 C 6,1 C 83 % 1017,7 hPa 0,0 l/m 0,0 km/h (0 Bft) N-NW 337 0 min 0,0 UV-I 5 W/m 4,6 C 7,3 C 1,6 km/h (1 Bft)
03.05.2022 06:35 7,3 C 6,1 C 82 % 1017,6 hPa 0,0 l/m 1,6 km/h (1 Bft) N-NW 337 0 min 0,0 UV-I 7 W/m 4,4 C 7,3 C 3,2 km/h (1 Bft)
03.05.2022 06:36 7,4 C 6,7 C 82 % 1017,6 hPa 0,0 l/m 1,6 km/h (1 Bft) N-NW 337 0 min 0,0 UV-I 7 W/m 4,5 C 7,4 C 3,2 km/h (1 Bft)
03.05.2022 06:37 7,4 C 6,7 C 82 % 1017,6 hPa 0,0 l/m 1,6 km/h (1 Bft) N-NW 337 0 min 0,0 UV-I 7 W/m 4,5 C 7,4 C 1,6 km/h (1 Bft)
03.05.2022 06:38 7,4 C 6,7 C 82 % 1017,7 hPa 0,0 l/m 1,6 km/h (1 Bft) N-NW 337 0 min 0,0 UV-I 9 W/m 4,5 C 7,4 C 3,2 km/h (1 Bft)
03.05.2022 06:39 7,4 C 6,7 C 82 % 1017,6 hPa 0,0 l/m 0,0 km/h (0 Bft) N-NW 337 0 min 0,0 UV-I 9 W/m 4,5 C 7,4 C 1,6 km/h (1 Bft)
03.05.2022 06:40 7,4 C 6,7 C 82 % 1017,7 hPa 0,0 l/m 0,0 km/h (0 Bft) N-NW 337 0 min 0,0 UV-I 9 W/m 4,5 C 7,4 C 1,6 km/h (1 Bft)
03.05.2022 06:41 7,4 C 6,7 C 83 % 1017,7 hPa 0,0 l/m 0,0 km/h (0 Bft) N 0 0 min 0,0 UV-I 11 W/m 4,7 C 7,4 C 0,0 km/h (0 Bft)
03.05.2022 06:42 7,4 C 6,7 C 83 % 1017,6 hPa 0,0 l/m 0,0 km/h (0 Bft) N-NW 337 0 min 0,0 UV-I 11 W/m 4,7 C 7,4 C 1,6 km/h (1 Bft)
03.05.2022 06:43 7,4 C 6,7 C 83 % 1017,7 hPa 0,0 l/m 1,6 km/h (1 Bft) N-NW 337 0 min 0,0 UV-I 11 W/m 4,7 C 7,4 C 3,2 km/h (1 Bft)
03.05.2022 06:44 7,4 C 6,7 C 83 % 1017,7 hPa 0,0 l/m 3,2 km/h (1 Bft) N-NW 337 0 min 0,0 UV-I 11 W/m 4,7 C 7,4 C 4,8 km/h (1 Bft)
03.05.2022 06:45 7,4 C 6,7 C 83 % 1017,8 hPa 0,0 l/m 1,6 km/h (1 Bft) N-NW 337 0 min 0,0 UV-I 11 W/m 4,7 C 7,4 C 3,2 km/h (1 Bft)
03.05.2022 06:46 7,4 C 6,7 C 83 % 1017,7 hPa 0,0 l/m 1,6 km/h (1 Bft) N-NW 337 0 min 0,0 UV-I 11 W/m 4,7 C 7,4 C 3,2 km/h (1 Bft)
03.05.2022 06:47 7,4 C 6,7 C 84 % 1017,7 hPa 0,0 l/m 1,6 km/h (1 Bft) N-NW 337 0 min 0,0 UV-I 12 W/m 4,9 C 7,4 C 1,6 km/h (1 Bft)
03.05.2022 06:48 7,4 C 6,7 C 84 % 1017,7 hPa 0,0 l/m 1,6 km/h (1 Bft) N-NW 337 0 min 0,0 UV-I 12 W/m 4,9 C 7,4 C 4,8 km/h (1 Bft)
03.05.2022 06:49 7,4 C 6,7 C 84 % 1017,7 hPa 0,0 l/m 3,2 km/h (1 Bft) N-NW 337 0 min 0,0 UV-I 12 W/m 4,9 C 7,4 C 4,8 km/h (1 Bft)
03.05.2022 06:50 7,4 C 6,7 C 84 % 1017,7 hPa 0,0 l/m 1,6 km/h (1 Bft) N-NW 337 0 min 0,0 UV-I 12 W/m 4,9 C 7,4 C 3,2 km/h (1 Bft)
03.05.2022 06:51 7,4 C 6,7 C 84 % 1017,8 hPa 0,0 l/m 1,6 km/h (1 Bft) N-NW 337 0 min 0,0 UV-I 12 W/m 4,9 C 7,4 C 3,2 km/h (1 Bft)
03.05.2022 06:52 7,4 C 6,7 C 84 % 1017,7 hPa 0,0 l/m 1,6 km/h (1 Bft) N-NW 337 0 min 0,0 UV-I 14 W/m 4,9 C 7,4 C 1,6 km/h (1 Bft)
03.05.2022 06:53 7,4 C 7,2 C 84 % 1017,7 hPa 0,0 l/m 0,0 km/h (0 Bft) N 0 0 min 0,0 UV-I 14 W/m 4,9 C 7,4 C 0,0 km/h (0 Bft)
03.05.2022 06:54 7,4 C 7,2 C 84 % 1017,7 hPa 0,0 l/m 0,0 km/h (0 Bft) N 0 0 min 0,0 UV-I 14 W/m 4,9 C 7,4 C 0,0 km/h (0 Bft)
03.05.2022 06:55 7,4 C 7,2 C 84 % 1017,8 hPa 0,0 l/m 0,0 km/h (0 Bft) N 0 0 min 0,0 UV-I 16 W/m 4,9 C 7,4 C 0,0 km/h (0 Bft)
03.05.2022 06:56 7,4 C 7,2 C 84 % 1017,7 hPa 0,0 l/m 0,0 km/h (0 Bft) N 0 0 min 0,0 UV-I 16 W/m 4,9 C 7,4 C 0,0 km/h (0 Bft)
03.05.2022 06:57 7,4 C 7,2 C 84 % 1017,7 hPa 0,0 l/m 0,0 km/h (0 Bft) N 0 0 min 0,0 UV-I 16 W/m 4,9 C 7,4 C 0,0 km/h (0 Bft)
03.05.2022 06:58 7,4 C 7,2 C 84 % 1017,8 hPa 0,0 l/m 0,0 km/h (0 Bft) N 0 0 min 0,0 UV-I 18 W/m 4,9 C 7,4 C 0,0 km/h (0 Bft)
03.05.2022 06:59 7,4 C 7,2 C 85 % 1017,8 hPa 0,0 l/m 0,0 km/h (0 Bft) N 0 0 min 0,0 UV-I 18 W/m 5,0 C 7,4 C 0,0 km/h (0 Bft)
03.05.2022 07:00 7,3 C 7,2 C 85 % 1017,7 hPa 0,0 l/m 0,0 km/h (0 Bft) N 0 0 min 0,0 UV-I 19 W/m 4,9 C 7,3 C 0,0 km/h (0 Bft)
03.05.2022 07:01 7,4 C 7,2 C 84 % 1017,8 hPa 0,0 l/m 0,0 km/h (0 Bft) N 0 0 min 0,0 UV-I 19 W/m 4,9 C 7,4 C 0,0 km/h (0 Bft)
03.05.2022 07:02 7,4 C 7,2 C 85 % 1017,8 hPa 0,0 l/m 0,0 km/h (0 Bft) N 0 0 min 0,0 UV-I 21 W/m 5,0 C 7,4 C 0,0 km/h (0 Bft)
03.05.2022 07:03 7,4 C 7,2 C 85 % 1017,8 hPa 0,0 l/m 0,0 km/h (0 Bft) N 0 0 min 0,0 UV-I 21 W/m 5,0 C 7,4 C 0,0 km/h (0 Bft)
03.05.2022 07:04 7,4 C 7,2 C 85 % 1017,7 hPa 0,0 l/m 0,0 km/h (0 Bft) N 0 0 min 0,0 UV-I 21 W/m 5,0 C 7,4 C 0,0 km/h (0 Bft)
03.05.2022 07:05 7,4 C 7,2 C 85 % 1017,9 hPa 0,0 l/m 0,0 km/h (0 Bft) N 0 0 min 0,0 UV-I 23 W/m 5,0 C 7,4 C 0,0 km/h (0 Bft)
03.05.2022 07:06 7,4 C 7,2 C 85 % 1017,7 hPa 0,0 l/m 0,0 km/h (0 Bft) N 0 0 min 0,0 UV-I 23 W/m 5,0 C 7,4 C 0,0 km/h (0 Bft)
03.05.2022 07:07 7,4 C 7,2 C 85 % 1017,8 hPa 0,0 l/m 0,0 km/h (0 Bft) N 0 0 min 0,0 UV-I 24 W/m 5,0 C 7,4 C 0,0 km/h (0 Bft)
03.05.2022 07:08 7,4 C 7,2 C 85 % 1017,9 hPa 0,0 l/m 0,0 km/h (0 Bft) N 0 0 min 0,0 UV-I 25 W/m 5,0 C 7,4 C 0,0 km/h (0 Bft)
03.05.2022 07:09 7,4 C 7,2 C 85 % 1017,9 hPa 0,0 l/m 0,0 km/h (0 Bft) N 0 0 min 0,0 UV-I 25 W/m 5,0 C 7,4 C 0,0 km/h (0 Bft)
03.05.2022 07:10 7,4 C 7,2 C 85 % 1017,8 hPa 0,0 l/m 0,0 km/h (0 Bft) N 0 0 min 0,0 UV-I 25 W/m 5,0 C 7,4 C 0,0 km/h (0 Bft)
03.05.2022 07:11 7,4 C 7,2 C 85 % 1017,8 hPa 0,0 l/m 0,0 km/h (0 Bft) N-NW 337 0 min 0,0 UV-I 25 W/m 5,0 C 7,4 C 1,6 km/h (1 Bft)
03.05.2022 07:12 7,4 C 7,2 C 85 % 1017,9 hPa 0,0 l/m 1,6 km/h (1 Bft) N-NW 337 0 min 0,0 UV-I 26 W/m 5,0 C 7,4 C 3,2 km/h (1 Bft)
03.05.2022 07:13 7,5 C 7,2 C 85 % 1017,9 hPa 0,0 l/m 1,6 km/h (1 Bft) N-NW 337 0 min 0,0 UV-I 26 W/m 5,1 C 7,5 C 3,2 km/h (1 Bft)
03.05.2022 07:14 7,6 C 7,2 C 85 % 1017,8 hPa 0,0 l/m 1,6 km/h (1 Bft) N-NW 337 0 min 0,0 UV-I 28 W/m 5,2 C 7,6 C 3,2 km/h (1 Bft)
03.05.2022 07:15 7,6 C 7,2 C 85 % 1017,9 hPa 0,0 l/m 1,6 km/h (1 Bft) N-NW 337 0 min 0,0 UV-I 28 W/m 5,2 C 7,6 C 3,2 km/h (1 Bft)
03.05.2022 07:16 7,6 C 7,2 C 84 % 1017,9 hPa 0,0 l/m 3,2 km/h (1 Bft) N-NW 337 0 min 0,0 UV-I 30 W/m 5,1 C 7,6 C 4,8 km/h (1 Bft)
03.05.2022 07:17 7,6 C 7,2 C 84 % 1018,0 hPa 0,0 l/m 3,2 km/h (1 Bft) N-NW 337 0 min 0,0 UV-I 30 W/m 5,1 C 7,6 C 3,2 km/h (1 Bft)
03.05.2022 07:18 7,7 C 7,2 C 83 % 1017,9 hPa 0,0 l/m 3,2 km/h (1 Bft) N-NW 337 0 min 0,0 UV-I 30 W/m 5,0 C 7,7 C 4,8 km/h (1 Bft)
03.05.2022 07:19 7,7 C 7,8 C 83 % 1017,9 hPa 0,0 l/m 3,2 km/h (1 Bft) N-NW 337 0 min 0,0 UV-I 30 W/m 5,0 C 7,7 C 4,8 km/h (1 Bft)
03.05.2022 07:20 7,8 C 7,8 C 83 % 1017,9 hPa 0,0 l/m 3,2 km/h (1 Bft) N-NW 337 0 min 0,0 UV-I 30 W/m 5,1 C 7,8 C 4,8 km/h (1 Bft)
03.05.2022 07:21 7,8 C 7,8 C 83 % 1018,0 hPa 0,0 l/m 3,2 km/h (1 Bft) N-NW 337 0 min 0,0 UV-I 30 W/m 5,1 C 7,8 C 4,8 km/h (1 Bft)
03.05.2022 07:22 7,8 C 7,8 C 82 % 1018,0 hPa 0,0 l/m 1,6 km/h (1 Bft) N-NW 337 0 min 0,0 UV-I 30 W/m 4,9 C 7,8 C 3,2 km/h (1 Bft)
03.05.2022 07:23 7,8 C 7,8 C 82 % 1018,0 hPa 0,0 l/m 3,2 km/h (1 Bft) N-NW 337 0 min 0,0 UV-I 30 W/m 4,9 C 7,8 C 4,8 km/h (1 Bft)
03.05.2022 07:24 7,9 C 7,8 C 82 % 1018,0 hPa 0,0 l/m 1,6 km/h (1 Bft) N-NW 337 0 min 0,0 UV-I 30 W/m 5,0 C 7,9 C 3,2 km/h (1 Bft)
03.05.2022 07:25 7,9 C 7,8 C 82 % 1018,1 hPa 0,0 l/m 3,2 km/h (1 Bft) N-NW 337 0 min 0,0 UV-I 30 W/m 5,0 C 7,9 C 4,8 km/h (1 Bft)
03.05.2022 07:26 7,9 C 7,8 C 82 % 1018,1 hPa 0,0 l/m 3,2 km/h (1 Bft) N-NW 337 0 min 0,0 UV-I 32 W/m 5,0 C 7,9 C 4,8 km/h (1 Bft)
03.05.2022 07:27 7,9 C 7,8 C 82 % 1018,1 hPa 0,0 l/m 3,2 km/h (1 Bft) N-NW 337 0 min 0,0 UV-I 32 W/m 5,0 C 7,9 C 4,8 km/h (1 Bft)
03.05.2022 07:28 8,0 C 7,8 C 82 % 1018,1 hPa 0,0 l/m 1,6 km/h (1 Bft) N-NW 337 0 min 0,0 UV-I 32 W/m 5,1 C 8,0 C 3,2 km/h (1 Bft)
03.05.2022 07:29 8,0 C 7,8 C 82 % 1018,1 hPa 0,0 l/m 3,2 km/h (1 Bft) N-NW 337 0 min 0,0 UV-I 33 W/m 5,1 C 8,0 C 4,8 km/h (1 Bft)
03.05.2022 07:30 8,1 C 7,8 C 82 % 1018,1 hPa 0,0 l/m 3,2 km/h (1 Bft) N-NW 337 0 min 0,0 UV-I 34 W/m 5,2 C 8,1 C 4,8 km/h (1 Bft)
03.05.2022 07:31 8,1 C 7,8 C 82 % 1018,0 hPa 0,0 l/m 3,2 km/h (1 Bft) N-NW 337 0 min 0,0 UV-I 35 W/m 5,2 C 8,1 C 4,8 km/h (1 Bft)
03.05.2022 07:32 8,1 C 7,8 C 82 % 1018,1 hPa 0,0 l/m 3,2 km/h (1 Bft) N-NW 337 0 min 0,0 UV-I 35 W/m 5,2 C 8,1 C 4,8 km/h (1 Bft)
03.05.2022 07:33 8,1 C 7,8 C 82 % 1018,2 hPa 0,0 l/m 4,8 km/h (1 Bft) N-NW 337 0 min 0,0 UV-I 37 W/m 5,2 C 8,1 C 6,4 km/h (2 Bft)
03.05.2022 07:34 8,1 C 8,3 C 82 % 1018,2 hPa 0,0 l/m 3,2 km/h (1 Bft) N-NW 337 0 min 0,0 UV-I 37 W/m 5,2 C 8,1 C 6,4 km/h (2 Bft)
03.05.2022 07:35 8,1 C 8,3 C 82 % 1018,1 hPa 0,0 l/m 3,2 km/h (1 Bft) N-NW 337 0 min 0,0 UV-I 37 W/m 5,2 C 8,1 C 4,8 km/h (1 Bft)
03.05.2022 07:36 8,1 C 8,3 C 82 % 1018,1 hPa 0,0 l/m 3,2 km/h (1 Bft) N-NW 337 0 min 0,0 UV-I 39 W/m 5,2 C 8,1 C 3,2 km/h (1 Bft)
03.05.2022 07:37 8,1 C 8,3 C 82 % 1018,1 hPa 0,0 l/m 3,2 km/h (1 Bft) N-NW 337 0 min 0,0 UV-I 40 W/m 5,2 C 8,1 C 4,8 km/h (1 Bft)
03.05.2022 07:38 8,2 C 8,3 C 82 % 1018,1 hPa 0,0 l/m 3,2 km/h (1 Bft) N-NW 337 0 min 0,0 UV-I 40 W/m 5,3 C 8,2 C 4,8 km/h (1 Bft)
03.05.2022 07:39 8,1 C 8,3 C 82 % 1018,1 hPa 0,0 l/m 4,8 km/h (1 Bft) N-NW 337 0 min 0,0 UV-I 42 W/m 5,2 C 8,1 C 4,8 km/h (1 Bft)
03.05.2022 07:40 8,2 C 8,3 C 82 % 1018,2 hPa 0,0 l/m 1,6 km/h (1 Bft) N-NW 337 0 min 0,0 UV-I 42 W/m 5,3 C 8,2 C 3,2 km/h (1 Bft)
03.05.2022 07:41 8,2 C 8,3 C 82 % 1018,2 hPa 0,0 l/m 1,6 km/h (1 Bft) N-NW 337 0 min 0,0 UV-I 44 W/m 5,3 C 8,2 C 4,8 km/h (1 Bft)
03.05.2022 07:42 8,2 C 8,3 C 82 % 1018,2 hPa 0,0 l/m 1,6 km/h (1 Bft) N-NW 337 0 min 0,0 UV-I 47 W/m 5,3 C 8,2 C 3,2 km/h (1 Bft)
03.05.2022 07:43 8,2 C 8,3 C 82 % 1018,2 hPa 0,0 l/m 3,2 km/h (1 Bft) N-NW 337 0 min 0,0 UV-I 47 W/m 5,3 C 8,2 C 4,8 km/h (1 Bft)
03.05.2022 07:44 8,2 C 8,3 C 82 % 1018,2 hPa 0,0 l/m 3,2 km/h (1 Bft) N-NW 337 0 min 0,0 UV-I 49 W/m 5,3 C 8,2 C 4,8 km/h (1 Bft)
03.05.2022 07:45 8,2 C 8,3 C 82 % 1018,2 hPa 0,0 l/m 4,8 km/h (1 Bft) N-NW 337 0 min 0,0 UV-I 49 W/m 5,3 C 8,2 C 6,4 km/h (2 Bft)
03.05.2022 07:46 8,2 C 8,3 C 82 % 1018,2 hPa 0,0 l/m 4,8 km/h (1 Bft) N-NW 337 0 min 0,0 UV-I 51 W/m 5,3 C 8,2 C 8,0 km/h (2 Bft)
03.05.2022 07:50 8,2 C 8,3 C 82 % 1018,2 hPa 0,0 l/m 3,4 km/h (1 Bft) N 360 0 min 0,0 UV-I 54 W/m 5,3 C 8,2 C 4,8 km/h (1 Bft)
03.05.2022 07:52 8,2 C 8,3 C 81 % 1018,3 hPa 0,0 l/m 4,7 km/h (1 Bft) N 360 0 min 0,0 UV-I 57 W/m 5,1 C 8,2 C 6,4 km/h (2 Bft)
03.05.2022 07:54 8,2 C 8,3 C 81 % 1018,1 hPa 0,0 l/m 4,1 km/h (1 Bft) N 5 0 min 0,0 UV-I 58 W/m 5,1 C 8,2 C 6,4 km/h (2 Bft)
03.05.2022 07:56 8,2 C 8,3 C 81 % 1018,2 hPa 0,0 l/m 4,0 km/h (1 Bft) N 5 0 min 0,0 UV-I 59 W/m 5,1 C 8,2 C 6,4 km/h (2 Bft)
03.05.2022 07:58 8,2 C 8,9 C 81 % 1018,3 hPa 0,0 l/m 4,6 km/h (1 Bft) N 5 0 min 0,0 UV-I 62 W/m 5,1 C 8,2 C 6,4 km/h (2 Bft)
03.05.2022 08:00 8,3 C 8,9 C 81 % 1018,3 hPa 0,0 l/m 5,0 km/h (1 Bft) N 5 0 min 0,0 UV-I 63 W/m 5,2 C 8,3 C 8,0 km/h (2 Bft)
03.05.2022 08:02 8,3 C 8,9 C 81 % 1018,3 hPa 0,0 l/m 5,1 km/h (1 Bft) N 5 0 min 0,0 UV-I 65 W/m 5,2 C 8,3 C 6,4 km/h (2 Bft)
03.05.2022 08:04 8,3 C 8,9 C 81 % 1018,4 hPa 0,0 l/m 5,0 km/h (1 Bft) N 5 0 min 0,0 UV-I 66 W/m 5,2 C 8,3 C 6,4 km/h (2 Bft)
03.05.2022 08:06 8,3 C 8,9 C 81 % 1018,2 hPa 0,0 l/m 5,6 km/h (1 Bft) N 5 0 min 0,0 UV-I 67 W/m 5,2 C 8,3 C 8,0 km/h (2 Bft)
03.05.2022 08:08 8,3 C 8,9 C 81 % 1018,2 hPa 0,0 l/m 5,1 km/h (1 Bft) N 11 0 min 0,0 UV-I 69 W/m 5,2 C 8,3 C 8,0 km/h (2 Bft)
03.05.2022 08:10 8,3 C 8,9 C 81 % 1018,2 hPa 0,0 l/m 5,1 km/h (1 Bft) N 11 0 min 0,0 UV-I 72 W/m 5,2 C 8,3 C 6,4 km/h (2 Bft)
03.05.2022 08:12 8,4 C 8,9 C 81 % 1018,3 hPa 0,0 l/m 5,8 km/h (2 Bft) N-NO 13 0 min 0,0 UV-I 75 W/m 5,3 C 8,4 C 8,0 km/h (2 Bft)
03.05.2022 08:14 8,4 C 8,9 C 81 % 1018,2 hPa 0,0 l/m 7,5 km/h (2 Bft) N-NO 20 0 min 0,0 UV-I 77 W/m 5,3 C 7,5 C 11,3 km/h (2 Bft)
03.05.2022 08:16 8,4 C 9,4 C 80 % 1018,3 hPa 0,0 l/m 5,5 km/h (1 Bft) N-NO 20 0 min 0,0 UV-I 81 W/m 5,2 C 8,4 C 8,0 km/h (2 Bft)
03.05.2022 08:18 8,5 C 9,4 C 80 % 1018,2 hPa 0,0 l/m 5,7 km/h (1 Bft) N-NO 20 0 min 0,0 UV-I 84 W/m 5,3 C 8,5 C 8,0 km/h (2 Bft)
03.05.2022 08:20 8,5 C 9,4 C 80 % 1018,2 hPa 0,0 l/m 5,7 km/h (1 Bft) N-NO 19 0 min 0,5 UV-I 88 W/m 5,3 C 8,5 C 8,0 km/h (2 Bft)
03.05.2022 08:22 8,5 C 9,4 C 80 % 1018,2 hPa 0,0 l/m 5,3 km/h (1 Bft) N-NO 20 0 min 0,5 UV-I 90 W/m 5,3 C 8,5 C 6,4 km/h (2 Bft)
03.05.2022 08:24 8,6 C 9,4 C 80 % 1018,3 hPa 0,0 l/m 4,4 km/h (1 Bft) N-NO 18 0 min 0,5 UV-I 93 W/m 5,3 C 8,6 C 6,4 km/h (2 Bft)
03.05.2022 08:26 8,7 C 9,4 C 81 % 1018,4 hPa 0,0 l/m 2,2 km/h (1 Bft) N-NO 18 0 min 0,5 UV-I 94 W/m 5,6 C 8,7 C 3,2 km/h (1 Bft)
03.05.2022 08:28 8,7 C 10,0 C 81 % 1018,3 hPa 0,0 l/m 3,2 km/h (1 Bft) N-NO 18 0 min 0,5 UV-I 91 W/m 5,6 C 8,7 C 4,8 km/h (1 Bft)
03.05.2022 08:30 8,7 C 10,0 C 80 % 1018,3 hPa 0,0 l/m 4,8 km/h (1 Bft) N 5 0 min 0,5 UV-I 91 W/m 5,4 C 8,7 C 9,7 km/h (2 Bft)
03.05.2022 08:32 8,7 C 10,0 C 80 % 1018,3 hPa 0,0 l/m 3,9 km/h (1 Bft) N 11 0 min 0,5 UV-I 92 W/m 5,4 C 8,7 C 6,4 km/h (2 Bft)
03.05.2022 08:34 8,8 C 10,0 C 80 % 1018,3 hPa 0,0 l/m 4,1 km/h (1 Bft) N 355 0 min 0,5 UV-I 97 W/m 5,5 C 8,8 C 9,7 km/h (2 Bft)
03.05.2022 08:36 8,8 C 10,0 C 80 % 1018,3 hPa 0,0 l/m 5,6 km/h (1 Bft) N-NO 19 0 min 0,5 UV-I 100 W/m 5,5 C 8,8 C 8,0 km/h (2 Bft)
03.05.2022 08:38 8,8 C 10,0 C 80 % 1018,3 hPa 0,0 l/m 9,0 km/h (2 Bft) N 5 0 min 0,5 UV-I 103 W/m 5,5 C 6,9 C 12,9 km/h (3 Bft)
03.05.2022 08:40 8,9 C 10,0 C 80 % 1018,3 hPa 0,0 l/m 8,0 km/h (2 Bft) N 355 0 min 0,5 UV-I 104 W/m 5,6 C 7,7 C 12,9 km/h (3 Bft)
03.05.2022 08:42 8,9 C 10,0 C 80 % 1018,3 hPa 0,0 l/m 8,5 km/h (2 Bft) N-NO 14 0 min 0,6 UV-I 109 W/m 5,6 C 7,3 C 14,5 km/h (3 Bft)
03.05.2022 08:44 9,0 C 10,0 C 80 % 1018,3 hPa 0,0 l/m 6,1 km/h (2 Bft) NO 34 0 min 0,6 UV-I 115 W/m 5,7 C 9,0 C 12,9 km/h (3 Bft)
03.05.2022 08:46 9,1 C 10,0 C 80 % 1018,4 hPa 0,0 l/m 8,0 km/h (2 Bft) N 9 0 min 0,6 UV-I 121 W/m 5,8 C 7,9 C 14,5 km/h (3 Bft)
03.05.2022 08:48 9,1 C 10,6 C 79 % 1018,3 hPa 0,0 l/m 8,3 km/h (2 Bft) N 360 0 min 0,7 UV-I 130 W/m 5,7 C 7,7 C 16,1 km/h (3 Bft)
03.05.2022 08:50 9,1 C 10,6 C 79 % 1018,3 hPa 0,0 l/m 7,2 km/h (2 Bft) N 351 0 min 0,7 UV-I 139 W/m 5,7 C 8,5 C 12,9 km/h (3 Bft)
03.05.2022 08:52 9,2 C 10,6 C 80 % 1018,4 hPa 0,0 l/m 8,0 km/h (2 Bft) N-NO 16 0 min 0,7 UV-I 145 W/m 5,9 C 8,0 C 12,9 km/h (3 Bft)
03.05.2022 08:54 9,3 C 10,6 C 80 % 1018,4 hPa 0,0 l/m 8,4 km/h (2 Bft) N-NO 20 0 min 0,7 UV-I 146 W/m 6,0 C 7,8 C 14,5 km/h (3 Bft)
03.05.2022 08:56 9,3 C 10,6 C 79 % 1018,4 hPa 0,0 l/m 9,8 km/h (2 Bft) N 5 0 min 0,7 UV-I 143 W/m 5,8 C 6,9 C 14,5 km/h (3 Bft)
03.05.2022 08:58 9,3 C 10,6 C 79 % 1018,4 hPa 0,0 l/m 10,1 km/h (2 Bft) N 9 0 min 0,7 UV-I 143 W/m 5,8 C 6,8 C 16,1 km/h (3 Bft)
03.05.2022 09:00 9,3 C 11,1 C 79 % 1018,4 hPa 0,0 l/m 7,6 km/h (2 Bft) N 355 0 min 0,7 UV-I 146 W/m 5,8 C 8,4 C 12,9 km/h (3 Bft)
03.05.2022 09:02 9,3 C 11,1 C 78 % 1018,5 hPa 0,0 l/m 10,4 km/h (2 Bft) N-NO 15 0 min 0,8 UV-I 151 W/m 5,7 C 6,6 C 16,1 km/h (3 Bft)
03.05.2022 09:04 9,4 C 11,1 C 79 % 1018,4 hPa 0,0 l/m 8,6 km/h (2 Bft) N 9 0 min 0,8 UV-I 153 W/m 5,9 C 7,8 C 14,5 km/h (3 Bft)
03.05.2022 09:06 9,4 C 11,1 C 79 % 1018,5 hPa 0,0 l/m 10,9 km/h (2 Bft) N-NO 17 0 min 0,8 UV-I 151 W/m 5,9 C 6,4 C 16,1 km/h (3 Bft)
03.05.2022 09:08 9,4 C 11,1 C 79 % 1018,5 hPa 0,0 l/m 7,9 km/h (2 Bft) N 10 0 min 0,8 UV-I 150 W/m 5,9 C 8,3 C 11,3 km/h (2 Bft)
03.05.2022 09:10 9,5 C 11,1 C 79 % 1018,6 hPa 0,0 l/m 6,4 km/h (2 Bft) N-NO 26 0 min 0,8 UV-I 154 W/m 6,0 C 9,5 C 11,3 km/h (2 Bft)
03.05.2022 09:12 9,6 C 11,1 C 79 % 1018,5 hPa 0,0 l/m 6,4 km/h (2 Bft) N 9 0 min 0,8 UV-I 157 W/m 6,1 C 9,6 C 12,9 km/h (3 Bft)
03.05.2022 09:14 9,7 C 11,7 C 79 % 1018,5 hPa 0,0 l/m 7,6 km/h (2 Bft) N-NO 23 0 min 0,8 UV-I 162 W/m 6,2 C 8,8 C 12,9 km/h (3 Bft)
03.05.2022 09:16 9,7 C 11,7 C 79 % 1018,5 hPa 0,0 l/m 6,5 km/h (2 Bft) N-NO 15 0 min 0,9 UV-I 178 W/m 6,2 C 9,7 C 11,3 km/h (2 Bft)
03.05.2022 09:18 9,8 C 11,7 C 79 % 1018,5 hPa 0,0 l/m 8,1 km/h (2 Bft) N-NO 12 0 min 0,9 UV-I 195 W/m 6,3 C 8,6 C 12,9 km/h (3 Bft)
03.05.2022 09:20 9,8 C 11,7 C 78 % 1018,5 hPa 0,0 l/m 7,9 km/h (2 Bft) N-NO 18 0 min 0,9 UV-I 172 W/m 6,1 C 8,7 C 12,9 km/h (3 Bft)
03.05.2022 09:22 9,9 C 11,7 C 79 % 1018,5 hPa 0,0 l/m 5,9 km/h (2 Bft) N-NO 28 0 min 0,9 UV-I 177 W/m 6,4 C 9,9 C 11,3 km/h (2 Bft)
03.05.2022 09:24 9,9 C 11,7 C 78 % 1018,5 hPa 0,0 l/m 6,5 km/h (2 Bft) N 5 0 min 0,9 UV-I 179 W/m 6,2 C 9,9 C 9,7 km/h (2 Bft)
03.05.2022 09:26 9,9 C 11,7 C 78 % 1018,7 hPa 0,0 l/m 7,1 km/h (2 Bft) N-NO 20 0 min 0,9 UV-I 171 W/m 6,2 C 9,4 C 11,3 km/h (2 Bft)
03.05.2022 09:28 10,0 C 11,7 C 78 % 1018,6 hPa 0,0 l/m 6,7 km/h (2 Bft) NO 35 0 min 0,9 UV-I 169 W/m 6,3 C 9,8 C 9,7 km/h (2 Bft)
03.05.2022 09:30 10,1 C 12,2 C 78 % 1018,6 hPa 0,0 l/m 8,6 km/h (2 Bft) N-NO 24 0 min 0,9 UV-I 169 W/m 6,4 C 8,6 C 14,5 km/h (3 Bft)
03.05.2022 09:32 10,1 C 12,2 C 77 % 1018,6 hPa 0,0 l/m 7,9 km/h (2 Bft) N-NO 28 0 min 0,9 UV-I 168 W/m 6,3 C 9,0 C 11,3 km/h (2 Bft)
03.05.2022 09:34 10,1 C 12,2 C 78 % 1018,6 hPa 0,0 l/m 8,1 km/h (2 Bft) N-NW 337 0 min 0,9 UV-I 167 W/m 6,4 C 8,9 C 11,3 km/h (2 Bft)
03.05.2022 09:36 10,2 C 12,2 C 78 % 1018,6 hPa 0,0 l/m 6,5 km/h (2 Bft) N-NO 27 0 min 0,9 UV-I 166 W/m 6,5 C 10,2 C 12,9 km/h (3 Bft)
03.05.2022 09:38 10,3 C 12,8 C 78 % 1018,6 hPa 0,0 l/m 7,3 km/h (2 Bft) N-NO 15 0 min 0,9 UV-I 167 W/m 6,6 C 9,7 C 12,9 km/h (3 Bft)
03.05.2022 09:40 10,3 C 12,8 C 77 % 1018,7 hPa 0,0 l/m 8,1 km/h (2 Bft) N 355 0 min 0,9 UV-I 170 W/m 6,4 C 9,1 C 12,9 km/h (3 Bft)
03.05.2022 09:42 10,4 C 12,8 C 78 % 1018,7 hPa 0,0 l/m 7,1 km/h (2 Bft) N 355 0 min 1,0 UV-I 173 W/m 6,7 C 9,9 C 12,9 km/h (3 Bft)
03.05.2022 09:44 10,5 C 12,8 C 78 % 1018,5 hPa 0,0 l/m 8,8 km/h (2 Bft) N 5 0 min 1,0 UV-I 176 W/m 6,8 C 8,9 C 12,9 km/h (3 Bft)
03.05.2022 09:46 10,6 C 12,8 C 78 % 1018,7 hPa 0,0 l/m 6,2 km/h (2 Bft) N-NO 19 0 min 1,0 UV-I 178 W/m 6,9 C 10,6 C 9,7 km/h (2 Bft)
03.05.2022 09:48 10,7 C 12,8 C 78 % 1018,6 hPa 0,0 l/m 7,2 km/h (2 Bft) N-NO 15 0 min 1,0 UV-I 178 W/m 7,0 C 10,1 C 12,9 km/h (3 Bft)
03.05.2022 09:50 10,8 C 13,3 C 77 % 1018,6 hPa 0,0 l/m 7,1 km/h (2 Bft) N-NO 13 0 min 1,0 UV-I 183 W/m 6,9 C 10,3 C 12,9 km/h (3 Bft)
03.05.2022 09:52 10,8 C 13,3 C 77 % 1018,6 hPa 0,0 l/m 7,6 km/h (2 Bft) N-NO 24 0 min 1,1 UV-I 196 W/m 6,9 C 10,0 C 12,9 km/h (3 Bft)
03.05.2022 09:54 10,9 C 13,3 C 78 % 1018,6 hPa 0,0 l/m 9,2 km/h (2 Bft) N 9 0 min 1,1 UV-I 204 W/m 7,2 C 9,0 C 16,1 km/h (3 Bft)
03.05.2022 09:56 11,1 C 13,9 C 77 % 1018,6 hPa 0,0 l/m 9,0 km/h (2 Bft) N-NO 23 0 min 1,2 UV-I 211 W/m 7,2 C 9,4 C 16,1 km/h (3 Bft)
03.05.2022 09:58 11,1 C 13,9 C 76 % 1018,6 hPa 0,0 l/m 10,4 km/h (2 Bft) NO 34 0 min 1,2 UV-I 217 W/m 7,0 C 8,6 C 14,5 km/h (3 Bft)
03.05.2022 10:00 11,2 C 13,9 C 77 % 1018,6 hPa 0,0 l/m 6,1 km/h (2 Bft) N-NO 28 0 min 1,2 UV-I 226 W/m 7,3 C 11,2 C 8,0 km/h (2 Bft)
03.05.2022 10:02 11,3 C 14,4 C 76 % 1018,6 hPa 0,0 l/m 7,3 km/h (2 Bft) N-NO 13 0 min 1,3 UV-I 241 W/m 7,2 C 10,7 C 11,3 km/h (2 Bft)
03.05.2022 10:04 11,4 C 14,4 C 76 % 1018,6 hPa 0,0 l/m 8,0 km/h (2 Bft) N 350 0 min 1,3 UV-I 254 W/m 7,3 C 10,3 C 12,9 km/h (3 Bft)
03.05.2022 10:06 11,6 C 14,4 C 76 % 1018,7 hPa 0,0 l/m 5,7 km/h (1 Bft) N-NO 14 0 min 1,4 UV-I 269 W/m 7,5 C 11,6 C 9,7 km/h (2 Bft)
03.05.2022 10:08 11,7 C 15,0 C 75 % 1018,6 hPa 0,0 l/m 10,0 km/h (2 Bft) NW 317 0 min 1,5 UV-I 283 W/m 7,4 C 9,5 C 16,1 km/h (3 Bft)
03.05.2022 10:10 11,7 C 15,0 C 75 % 1018,6 hPa 0,0 l/m 9,7 km/h (2 Bft) N-NO 19 0 min 1,6 UV-I 285 W/m 7,4 C 9,6 C 14,5 km/h (3 Bft)
03.05.2022 10:12 11,8 C 15,0 C 74 % 1018,6 hPa 0,0 l/m 10,0 km/h (2 Bft) N 355 0 min 1,6 UV-I 296 W/m 7,3 C 9,6 C 16,1 km/h (3 Bft)
03.05.2022 10:14 11,8 C 15,0 C 73 % 1018,7 hPa 0,0 l/m 11,4 km/h (2 Bft) N-NO 13 0 min 1,7 UV-I 313 W/m 7,1 C 8,9 C 16,1 km/h (3 Bft)
03.05.2022 10:16 11,9 C 15,6 C 74 % 1018,8 hPa 0,0 l/m 8,3 km/h (2 Bft) N 11 0 min 1,9 UV-I 334 W/m 7,4 C 10,7 C 14,5 km/h (3 Bft)
03.05.2022 10:18 12,1 C 16,1 C 74 % 1018,8 hPa 0,0 l/m 7,8 km/h (2 Bft) N 10 2 min 1,9 UV-I 347 W/m 7,6 C 11,2 C 16,1 km/h (3 Bft)
03.05.2022 10:20 12,2 C 16,1 C 74 % 1018,7 hPa 0,0 l/m 9,8 km/h (2 Bft) N 5 2 min 2,1 UV-I 387 W/m 7,7 C 10,1 C 19,3 km/h (3 Bft)
03.05.2022 10:22 12,3 C 16,7 C 72 % 1018,7 hPa 0,0 l/m 10,1 km/h (2 Bft) N 360 2 min 2,4 UV-I 508 W/m 7,4 C 10,1 C 17,7 km/h (3 Bft)
03.05.2022 10:24 12,5 C 16,7 C 71 % 1018,8 hPa 0,0 l/m 14,1 km/h (3 Bft) N-NW 342 2 min 2,6 UV-I 594 W/m 7,4 C 8,5 C 19,3 km/h (3 Bft)
03.05.2022 10:26 12,8 C 17,2 C 74 % 1018,8 hPa 0,0 l/m 9,9 km/h (2 Bft) N 5 2 min 2,7 UV-I 567 W/m 8,3 C 10,7 C 17,7 km/h (3 Bft)
03.05.2022 10:28 12,8 C 17,2 C 71 % 1018,9 hPa 0,0 l/m 14,3 km/h (3 Bft) N 5 2 min 2,5 UV-I 458 W/m 7,7 C 8,8 C 20,9 km/h (4 Bft)
03.05.2022 10:30 12,8 C 17,2 C 71 % 1018,8 hPa 0,0 l/m 14,6 km/h (3 Bft) N 5 2 min 2,5 UV-I 430 W/m 7,7 C 8,7 C 25,7 km/h (4 Bft)
03.05.2022 10:32 12,9 C 17,8 C 73 % 1018,8 hPa 0,0 l/m 13,3 km/h (3 Bft) N-NO 22 2 min 2,8 UV-I 492 W/m 8,2 C 9,3 C 22,5 km/h (4 Bft)
03.05.2022 10:34 12,9 C 17,8 C 70 % 1018,8 hPa 0,0 l/m 13,7 km/h (3 Bft) N 5 2 min 2,7 UV-I 498 W/m 7,6 C 9,1 C 22,5 km/h (4 Bft)
03.05.2022 10:36 12,9 C 17,2 C 70 % 1018,9 hPa 0,0 l/m 14,0 km/h (3 Bft) N 355 2 min 2,6 UV-I 552 W/m 7,6 C 9,0 C 20,9 km/h (4 Bft)
03.05.2022 10:38 12,8 C 17,2 C 70 % 1018,9 hPa 0,0 l/m 15,8 km/h (3 Bft) N 5 2 min 2,5 UV-I 450 W/m 7,5 C 8,2 C 20,9 km/h (4 Bft)
03.05.2022 10:40 13,1 C 17,8 C 72 % 1018,9 hPa 0,0 l/m 8,0 km/h (2 Bft) N-NO 30 2 min 2,5 UV-I 446 W/m 8,2 C 12,1 C 14,5 km/h (3 Bft)
03.05.2022 10:42 13,1 C 17,8 C 71 % 1018,9 hPa 0,0 l/m 13,4 km/h (3 Bft) N-NO 15 2 min 2,5 UV-I 406 W/m 8,0 C 9,5 C 17,7 km/h (3 Bft)
03.05.2022 10:44 13,2 C 18,9 C 71 % 1018,8 hPa 0,0 l/m 14,1 km/h (3 Bft) N-NW 343 2 min 2,9 UV-I 440 W/m 8,1 C 9,3 C 20,9 km/h (4 Bft)
03.05.2022 10:46 13,4 C 19,4 C 70 % 1018,8 hPa 0,0 l/m 15,1 km/h (3 Bft) N 360 2 min 3,5 UV-I 652 W/m 8,0 C 9,2 C 22,5 km/h (4 Bft)
03.05.2022 10:48 13,6 C 19,4 C 68 % 1018,8 hPa 0,0 l/m 17,9 km/h (3 Bft) N 360 2 min 3,2 UV-I 793 W/m 7,8 C 8,5 C 24,1 km/h (4 Bft)
03.05.2022 10:50 13,6 C 18,9 C 67 % 1018,8 hPa 0,0 l/m 19,8 km/h (3 Bft) N 355 2 min 2,9 UV-I 493 W/m 7,6 C 8,0 C 25,7 km/h (4 Bft)
03.05.2022 10:52 13,3 C 18,3 C 67 % 1018,8 hPa 0,0 l/m 18,3 km/h (3 Bft) N 355 2 min 2,8 UV-I 476 W/m 7,3 C 8,0 C 25,7 km/h (4 Bft)
03.05.2022 10:54 13,3 C 18,3 C 68 % 1018,9 hPa 0,0 l/m 17,2 km/h (3 Bft) NW 324 2 min 3,1 UV-I 530 W/m 7,5 C 8,4 C 24,1 km/h (4 Bft)
03.05.2022 10:56 13,3 C 17,8 C 67 % 1019,0 hPa 0,0 l/m 19,3 km/h (3 Bft) N-NO 14 2 min 2,8 UV-I 460 W/m 7,3 C 7,7 C 25,7 km/h (4 Bft)
03.05.2022 10:58 13,2 C 17,8 C 67 % 1018,9 hPa 0,0 l/m 17,3 km/h (3 Bft) N-NW 348 2 min 2,7 UV-I 403 W/m 7,2 C 8,2 C 22,5 km/h (4 Bft)
03.05.2022 11:00 13,1 C 17,2 C 69 % 1019,0 hPa 0,0 l/m 15,5 km/h (3 Bft) N-NO 17 2 min 2,7 UV-I 404 W/m 7,5 C 8,7 C 20,9 km/h (4 Bft)
03.05.2022 11:02 13,1 C 17,8 C 69 % 1018,9 hPa 0,0 l/m 15,3 km/h (3 Bft) N-NW 336 2 min 2,7 UV-I 416 W/m 7,5 C 8,8 C 19,3 km/h (3 Bft)
03.05.2022 11:04 13,2 C 17,8 C 68 % 1019,0 hPa 0,0 l/m 11,6 km/h (2 Bft) N 355 2 min 2,8 UV-I 427 W/m 7,4 C 10,4 C 19,3 km/h (3 Bft)
03.05.2022 11:06 13,3 C 18,3 C 68 % 1018,9 hPa 0,0 l/m 12,1 km/h (2 Bft) NO 46 2 min 2,7 UV-I 409 W/m 7,5 C 10,3 C 16,1 km/h (3 Bft)
03.05.2022 11:08 13,4 C 18,3 C 68 % 1018,9 hPa 0,0 l/m 13,6 km/h (3 Bft) N-NW 335 2 min 2,7 UV-I 402 W/m 7,6 C 9,8 C 20,9 km/h (4 Bft)
03.05.2022 11:10 13,4 C 18,3 C 68 % 1019,0 hPa 0,0 l/m 12,0 km/h (2 Bft) N 355 2 min 2,7 UV-I 408 W/m 7,6 C 10,4 C 24,1 km/h (4 Bft)
03.05.2022 11:12 13,4 C 17,8 C 67 % 1019,0 hPa 0,0 l/m 11,8 km/h (2 Bft) N 5 2 min 2,8 UV-I 412 W/m 7,4 C 10,5 C 19,3 km/h (3 Bft)
03.05.2022 11:14 13,3 C 17,8 C 67 % 1019,0 hPa 0,0 l/m 12,9 km/h (3 Bft) NW 325 2 min 2,8 UV-I 421 W/m 7,3 C 9,9 C 20,9 km/h (4 Bft)
03.05.2022 11:16 13,3 C 18,3 C 67 % 1019,1 hPa 0,0 l/m 13,7 km/h (3 Bft) N-NW 340 2 min 2,9 UV-I 432 W/m 7,3 C 9,6 C 22,5 km/h (4 Bft)
03.05.2022 11:18 13,4 C 18,3 C 68 % 1019,0 hPa 0,0 l/m 14,5 km/h (3 Bft) N-NO 31 2 min 3,0 UV-I 448 W/m 7,6 C 9,4 C 20,9 km/h (4 Bft)
03.05.2022 11:20 13,6 C 19,4 C 68 % 1019,0 hPa 0,0 l/m 10,7 km/h (2 Bft) N-NO 16 2 min 3,3 UV-I 489 W/m 7,8 C 11,2 C 14,5 km/h (3 Bft)
03.05.2022 11:22 13,8 C 19,4 C 66 % 1019,0 hPa 0,0 l/m 14,8 km/h (3 Bft) N 349 2 min 3,1 UV-I 452 W/m 7,6 C 9,8 C 22,5 km/h (4 Bft)
03.05.2022 11:24 13,7 C 19,4 C 65 % 1019,1 hPa 0,0 l/m 16,6 km/h (3 Bft) N-NW 346 2 min 3,6 UV-I 450 W/m 7,2 C 9,1 C 22,5 km/h (4 Bft)
03.05.2022 11:26 14,0 C 21,1 C 67 % 1018,9 hPa 0,0 l/m 12,6 km/h (3 Bft) N 360 2 min 4,0 UV-I 761 W/m 8,0 C 10,9 C 20,9 km/h (4 Bft)
03.05.2022 11:28 14,3 C 21,7 C 65 % 1019,0 hPa 0,0 l/m 16,7 km/h (3 Bft) N-NO 19 2 min 4,2 UV-I 821 W/m 7,8 C 9,8 C 22,5 km/h (4 Bft)
03.05.2022 11:30 14,6 C 22,8 C 68 % 1018,9 hPa 0,0 l/m 14,9 km/h (3 Bft) NO 38 2 min 4,1 UV-I 807 W/m 8,8 C 10,7 C 19,3 km/h (3 Bft)
03.05.2022 11:32 14,8 C 23,3 C 64 % 1018,8 hPa 0,0 l/m 19,6 km/h (3 Bft) O-NO 73 2 min 4,2 UV-I 778 W/m 8,1 C 9,6 C 27,4 km/h (4 Bft)
03.05.2022 11:34 14,4 C 22,2 C 62 % 1018,9 hPa 0,0 l/m 19,9 km/h (4 Bft) N-NO 19 2 min 3,7 UV-I 672 W/m 7,2 C 9,0 C 27,4 km/h (4 Bft)
03.05.2022 11:36 14,3 C 20,6 C 64 % 1019,0 hPa 0,0 l/m 18,6 km/h (3 Bft) N-NO 17 2 min 3,4 UV-I 455 W/m 7,6 C 9,2 C 27,4 km/h (4 Bft)
03.05.2022 11:38 14,1 C 19,4 C 63 % 1018,9 hPa 0,0 l/m 24,0 km/h (4 Bft) N-NO 15 2 min 3,3 UV-I 431 W/m 7,2 C 7,6 C 30,6 km/h (5 Bft)
03.05.2022 11:40 13,8 C 18,9 C 63 % 1018,8 hPa 0,0 l/m 22,5 km/h (4 Bft) NO 37 2 min 3,6 UV-I 521 W/m 6,9 C 7,6 C 30,6 km/h (5 Bft)
03.05.2022 11:42 13,8 C 19,4 C 63 % 1019,0 hPa 0,0 l/m 20,3 km/h (4 Bft) N-NO 13 2 min 3,6 UV-I 535 W/m 6,9 C 8,1 C 27,4 km/h (4 Bft)
03.05.2022 11:44 13,9 C 20,6 C 66 % 1019,0 hPa 0,0 l/m 16,7 km/h (3 Bft) N-NW 341 2 min 3,9 UV-I 637 W/m 7,7 C 9,3 C 27,4 km/h (4 Bft)
03.05.2022 11:46 14,2 C 21,1 C 66 % 1018,9 hPa 0,0 l/m 16,2 km/h (3 Bft) N-NO 26 2 min 4,1 UV-I 726 W/m 7,9 C 9,8 C 24,1 km/h (4 Bft)
03.05.2022 11:48 14,3 C 21,1 C 64 % 1019,0 hPa 0,0 l/m 18,4 km/h (3 Bft) N 355 2 min 3,8 UV-I 649 W/m 7,6 C 9,3 C 29,0 km/h (5 Bft)
03.05.2022 11:50 14,3 C 21,1 C 64 % 1019,0 hPa 0,0 l/m 17,5 km/h (3 Bft) N 360 2 min 3,7 UV-I 555 W/m 7,6 C 9,5 C 24,1 km/h (4 Bft)
03.05.2022 11:52 14,3 C 20,6 C 64 % 1019,1 hPa 0,0 l/m 15,6 km/h (3 Bft) N 360 2 min 3,5 UV-I 475 W/m 7,6 C 10,1 C 22,5 km/h (4 Bft)
03.05.2022 11:54 14,3 C 20,0 C 63 % 1019,0 hPa 0,0 l/m 15,4 km/h (3 Bft) N-NW 329 2 min 3,4 UV-I 416 W/m 7,4 C 10,2 C 22,5 km/h (4 Bft)
03.05.2022 11:56 14,3 C 19,4 C 65 % 1019,0 hPa 0,0 l/m 15,5 km/h (3 Bft) N-NO 32 2 min 3,5 UV-I 446 W/m 7,8 C 10,2 C 27,4 km/h (4 Bft)
03.05.2022 11:58 14,2 C 19,4 C 61 % 1018,9 hPa 0,0 l/m 18,2 km/h (3 Bft) N 360 2 min 3,7 UV-I 492 W/m 6,8 C 9,2 C 24,1 km/h (4 Bft)
03.05.2022 12:00 14,3 C 20,6 C 66 % 1018,9 hPa 0,0 l/m 15,8 km/h (3 Bft) N 355 2 min 4,0 UV-I 538 W/m 8,0 C 10,1 C 24,1 km/h (4 Bft)
03.05.2022 12:02 14,3 C 21,7 C 62 % 1018,9 hPa 0,0 l/m 22,0 km/h (4 Bft) N-NO 24 2 min 4,5 UV-I 694 W/m 7,1 C 8,3 C 29,0 km/h (5 Bft)
03.05.2022 12:04 14,5 C 22,2 C 65 % 1019,0 hPa 0,0 l/m 14,7 km/h (3 Bft) N-NO 26 2 min 4,3 UV-I 712 W/m 8,0 C 10,7 C 24,1 km/h (4 Bft)
03.05.2022 12:06 14,4 C 22,2 C 63 % 1018,9 hPa 0,0 l/m 19,0 km/h (3 Bft) NO 34 2 min 4,2 UV-I 646 W/m 7,4 C 9,2 C 24,1 km/h (4 Bft)
03.05.2022 12:08 14,9 C 23,3 C 66 % 1018,9 hPa 0,0 l/m 10,6 km/h (2 Bft) N 350 2 min 4,5 UV-I 720 W/m 8,6 C 12,7 C 19,3 km/h (3 Bft)
03.05.2022 12:10 15,2 C 23,3 C 64 % 1019,0 hPa 0,0 l/m 17,7 km/h (3 Bft) N-NO 17 2 min 4,7 UV-I 809 W/m 8,4 C 10,6 C 27,4 km/h (4 Bft)
03.05.2022 12:12 15,2 C 23,3 C 59 % 1019,0 hPa 0,0 l/m 20,0 km/h (4 Bft) NO 41 2 min 4,8 UV-I 848 W/m 7,2 C 10,0 C 30,6 km/h (5 Bft)
03.05.2022 12:14 15,0 C 23,3 C 59 % 1019,0 hPa 0,0 l/m 20,5 km/h (4 Bft) N-NO 28 2 min 4,8 UV-I 833 W/m 7,1 C 9,6 C 27,4 km/h (4 Bft)
03.05.2022 12:16 14,9 C 22,8 C 62 % 1018,9 hPa 0,0 l/m 21,7 km/h (4 Bft) NO 35 2 min 4,8 UV-I 816 W/m 7,7 C 9,2 C 30,6 km/h (5 Bft)
03.05.2022 12:18 15,0 C 23,3 C 63 % 1019,0 hPa 0,0 l/m 16,6 km/h (3 Bft) N-NO 18 2 min 4,8 UV-I 817 W/m 8,0 C 10,7 C 24,1 km/h (4 Bft)
03.05.2022 12:20 15,3 C 23,9 C 62 % 1019,0 hPa 0,0 l/m 16,1 km/h (3 Bft) N-NO 23 2 min 4,8 UV-I 792 W/m 8,1 C 11,2 C 22,5 km/h (4 Bft)
03.05.2022 12:22 15,3 C 24,4 C 62 % 1019,0 hPa 0,0 l/m 14,2 km/h (3 Bft) N 360 2 min 4,7 UV-I 748 W/m 8,1 C 11,8 C 20,9 km/h (4 Bft)
03.05.2022 12:24 15,3 C 24,4 C 61 % 1019,0 hPa 0,0 l/m 16,1 km/h (3 Bft) N-NW 348 2 min 4,9 UV-I 807 W/m 7,8 C 11,2 C 25,7 km/h (4 Bft)
03.05.2022 12:26 15,2 C 23,3 C 57 % 1019,0 hPa 0,0 l/m 22,4 km/h (4 Bft) N 349 2 min 4,9 UV-I 791 W/m 6,7 C 9,4 C 30,6 km/h (5 Bft)
03.05.2022 12:28 14,8 C 21,7 C 57 % 1018,9 hPa 0,0 l/m 23,4 km/h (4 Bft) N-NO 13 2 min 4,8 UV-I 764 W/m 6,4 C 8,7 C 29,0 km/h (5 Bft)
03.05.2022 12:30 14,6 C 21,7 C 57 % 1018,9 hPa 0,0 l/m 21,1 km/h (4 Bft) N 360 2 min 4,8 UV-I 760 W/m 6,2 C 9,0 C 25,7 km/h (4 Bft)
03.05.2022 12:32 14,9 C 22,8 C 62 % 1018,9 hPa 0,0 l/m 16,5 km/h (3 Bft) N-NO 20 2 min 4,9 UV-I 779 W/m 7,7 C 10,6 C 22,5 km/h (4 Bft)
03.05.2022 12:34 14,9 C 23,3 C 60 % 1019,0 hPa 0,0 l/m 16,6 km/h (3 Bft) N-NO 28 2 min 4,9 UV-I 791 W/m 7,2 C 10,6 C 24,1 km/h (4 Bft)
03.05.2022 12:36 15,1 C 23,3 C 59 % 1018,9 hPa 0,0 l/m 19,7 km/h (3 Bft) N 360 2 min 4,9 UV-I 796 W/m 7,1 C 10,0 C 25,7 km/h (4 Bft)
03.05.2022 12:38 15,1 C 23,3 C 61 % 1018,9 hPa 0,0 l/m 16,0 km/h (3 Bft) N-NO 13 2 min 4,9 UV-I 779 W/m 7,6 C 11,0 C 24,1 km/h (4 Bft)
03.05.2022 12:40 15,3 C 24,4 C 63 % 1018,9 hPa 0,0 l/m 13,0 km/h (3 Bft) N 5 2 min 5,0 UV-I 797 W/m 8,3 C 12,2 C 19,3 km/h (3 Bft)
03.05.2022 12:42 15,4 C 24,4 C 60 % 1018,8 hPa 0,0 l/m 14,9 km/h (3 Bft) O-NO 57 2 min 5,0 UV-I 793 W/m 7,7 C 11,7 C 19,3 km/h (3 Bft)
03.05.2022 12:44 15,3 C 24,4 C 62 % 1018,8 hPa 0,0 l/m 16,8 km/h (3 Bft) N-NO 15 2 min 5,0 UV-I 791 W/m 8,1 C 11,0 C 24,1 km/h (4 Bft)
03.05.2022 12:46 15,3 C 25,0 C 62 % 1018,9 hPa 0,0 l/m 15,5 km/h (3 Bft) N 350 2 min 5,0 UV-I 787 W/m 8,1 C 11,4 C 22,5 km/h (4 Bft)
03.05.2022 12:48 15,4 C 25,0 C 62 % 1018,8 hPa 0,0 l/m 14,6 km/h (3 Bft) N 11 2 min 5,0 UV-I 788 W/m 8,2 C 11,8 C 22,5 km/h (4 Bft)
03.05.2022 12:50 15,4 C 25,0 C 61 % 1018,8 hPa 0,0 l/m 15,0 km/h (3 Bft) N-NW 348 2 min 5,0 UV-I 786 W/m 7,9 C 11,7 C 22,5 km/h (4 Bft)
03.05.2022 12:52 15,5 C 25,6 C 62 % 1018,9 hPa 0,0 l/m 15,3 km/h (3 Bft) N-NO 28 2 min 5,0 UV-I 788 W/m 8,3 C 11,7 C 20,9 km/h (4 Bft)
03.05.2022 12:54 15,4 C 25,0 C 59 % 1018,8 hPa 0,0 l/m 15,4 km/h (3 Bft) N 355 2 min 5,1 UV-I 790 W/m 7,4 C 11,5 C 20,9 km/h (4 Bft)
03.05.2022 12:56 15,6 C 25,6 C 60 % 1018,9 hPa 0,0 l/m 11,9 km/h (2 Bft) N-NO 14 2 min 5,1 UV-I 793 W/m 7,9 C 13,0 C 16,1 km/h (3 Bft)
03.05.2022 12:58 15,4 C 25,0 C 60 % 1018,8 hPa 0,0 l/m 17,5 km/h (3 Bft) NO 43 2 min 5,2 UV-I 797 W/m 7,7 C 10,9 C 22,5 km/h (4 Bft)
03.05.2022 13:00 15,3 C 25,0 C 62 % 1018,8 hPa 0,0 l/m 12,4 km/h (3 Bft) N-NO 13 2 min 5,1 UV-I 789 W/m 8,1 C 12,5 C 22,5 km/h (4 Bft)
03.05.2022 13:02 15,2 C 24,4 C 58 % 1018,9 hPa 0,0 l/m 18,1 km/h (3 Bft) N-NO 15 2 min 5,2 UV-I 801 W/m 7,0 C 10,5 C 22,5 km/h (4 Bft)
03.05.2022 13:04 15,2 C 23,9 C 59 % 1018,8 hPa 0,0 l/m 19,1 km/h (3 Bft) N 355 2 min 5,2 UV-I 808 W/m 7,2 C 10,2 C 27,4 km/h (4 Bft)
03.05.2022 13:06 15,2 C 24,4 C 60 % 1018,8 hPa 0,0 l/m 16,1 km/h (3 Bft) N-NO 17 2 min 5,2 UV-I 799 W/m 7,5 C 11,1 C 20,9 km/h (4 Bft)
03.05.2022 13:08 15,2 C 25,0 C 57 % 1018,8 hPa 0,0 l/m 17,3 km/h (3 Bft) N-NO 15 2 min 5,2 UV-I 801 W/m 6,7 C 10,7 C 24,1 km/h (4 Bft)
03.05.2022 13:10 15,2 C 24,4 C 61 % 1018,8 hPa 0,0 l/m 16,3 km/h (3 Bft) N-NW 330 2 min 5,2 UV-I 795 W/m 7,7 C 11,0 C 22,5 km/h (4 Bft)
03.05.2022 13:12 15,4 C 24,4 C 58 % 1018,8 hPa 0,0 l/m 14,3 km/h (3 Bft) N-NO 14 2 min 5,2 UV-I 810 W/m 7,2 C 11,9 C 24,1 km/h (4 Bft)
03.05.2022 13:14 15,3 C 24,4 C 56 % 1018,6 hPa 0,0 l/m 17,2 km/h (3 Bft) N-NO 15 2 min 5,2 UV-I 812 W/m 6,6 C 10,9 C 22,5 km/h (4 Bft)
03.05.2022 13:16 15,3 C 24,4 C 57 % 1018,7 hPa 0,0 l/m 13,7 km/h (3 Bft) N-NW 342 2 min 5,2 UV-I 810 W/m 6,8 C 12,0 C 17,7 km/h (3 Bft)
03.05.2022 13:18 15,4 C 25,0 C 57 % 1018,7 hPa 0,0 l/m 11,5 km/h (2 Bft) N 355 2 min 5,2 UV-I 799 W/m 6,9 C 12,9 C 19,3 km/h (3 Bft)
03.05.2022 13:20 15,5 C 25,6 C 58 % 1018,7 hPa 0,0 l/m 17,1 km/h (3 Bft) N-NO 17 2 min 5,2 UV-I 790 W/m 7,3 C 11,2 C 24,1 km/h (4 Bft)
03.05.2022 13:22 15,5 C 25,6 C 62 % 1018,7 hPa 0,0 l/m 12,3 km/h (3 Bft) N 5 2 min 5,2 UV-I 793 W/m 8,3 C 12,7 C 17,7 km/h (3 Bft)
03.05.2022 13:24 15,4 C 26,1 C 60 % 1018,6 hPa 0,0 l/m 11,2 km/h (2 Bft) N-NO 24 2 min 5,3 UV-I 803 W/m 7,7 C 13,0 C 19,3 km/h (3 Bft)
03.05.2022 13:26 15,5 C 26,1 C 58 % 1018,6 hPa 0,0 l/m 11,6 km/h (2 Bft) N 9 2 min 5,3 UV-I 805 W/m 7,3 C 13,0 C 17,7 km/h (3 Bft)
03.05.2022 13:28 15,6 C 26,7 C 58 % 1018,6 hPa 0,0 l/m 12,6 km/h (3 Bft) N-NW 332 2 min 5,3 UV-I 810 W/m 7,4 C 12,7 C 19,3 km/h (3 Bft)
03.05.2022 13:30 15,7 C 26,7 C 60 % 1018,6 hPa 0,0 l/m 15,4 km/h (3 Bft) N-NW 344 2 min 5,3 UV-I 814 W/m 8,0 C 11,9 C 20,9 km/h (4 Bft)
03.05.2022 13:32 15,7 C 26,1 C 57 % 1018,7 hPa 0,0 l/m 12,9 km/h (3 Bft) N 360 2 min 5,4 UV-I 826 W/m 7,2 C 12,7 C 22,5 km/h (4 Bft)
03.05.2022 13:34 15,7 C 27,2 C 60 % 1018,7 hPa 0,0 l/m 11,2 km/h (2 Bft) N 5 2 min 5,3 UV-I 832 W/m 8,0 C 13,4 C 16,1 km/h (3 Bft)
03.05.2022 13:36 15,8 C 26,7 C 58 % 1018,6 hPa 0,0 l/m 15,9 km/h (3 Bft) N-NO 19 2 min 5,4 UV-I 833 W/m 7,6 C 11,9 C 22,5 km/h (4 Bft)
03.05.2022 13:38 15,8 C 26,1 C 59 % 1018,6 hPa 0,0 l/m 13,9 km/h (3 Bft) N-NW 344 2 min 5,4 UV-I 828 W/m 7,8 C 12,5 C 19,3 km/h (3 Bft)
03.05.2022 13:40 15,7 C 26,7 C 58 % 1018,6 hPa 0,0 l/m 11,0 km/h (2 Bft) N-NW 346 2 min 5,4 UV-I 825 W/m 7,5 C 13,5 C 17,7 km/h (3 Bft)
03.05.2022 13:42 15,5 C 26,7 C 59 % 1018,6 hPa 0,0 l/m 9,4 km/h (2 Bft) N-NO 19 2 min 5,4 UV-I 827 W/m 7,5 C 13,9 C 16,1 km/h (3 Bft)
03.05.2022 13:44 15,4 C 26,1 C 58 % 1018,6 hPa 0,0 l/m 14,3 km/h (3 Bft) N-NO 26 2 min 5,3 UV-I 755 W/m 7,2 C 11,9 C 20,9 km/h (4 Bft)
03.05.2022 13:46 15,4 C 26,1 C 58 % 1018,5 hPa 0,0 l/m 17,3 km/h (3 Bft) NO 39 2 min 5,3 UV-I 693 W/m 7,2 C 11,0 C 25,7 km/h (4 Bft)
03.05.2022 13:48 15,6 C 26,1 C 57 % 1018,5 hPa 0,0 l/m 15,4 km/h (3 Bft) N-NW 348 2 min 5,2 UV-I 797 W/m 7,1 C 11,8 C 20,9 km/h (4 Bft)
03.05.2022 13:50 15,7 C 25,6 C 59 % 1018,5 hPa 0,0 l/m 11,8 km/h (2 Bft) N 5 2 min 5,2 UV-I 787 W/m 7,7 C 13,2 C 16,1 km/h (3 Bft)
03.05.2022 13:52 15,6 C 25,6 C 56 % 1018,5 hPa 0,0 l/m 15,4 km/h (3 Bft) N 360 2 min 5,2 UV-I 788 W/m 6,9 C 11,8 C 19,3 km/h (3 Bft)
03.05.2022 13:54 15,5 C 26,1 C 56 % 1018,4 hPa 0,0 l/m 16,2 km/h (3 Bft) N-NO 15 2 min 5,1 UV-I 774 W/m 6,8 C 11,4 C 24,1 km/h (4 Bft)
03.05.2022 13:56 15,5 C 25,6 C 58 % 1018,4 hPa 0,0 l/m 14,0 km/h (3 Bft) N-NO 16 2 min 5,1 UV-I 787 W/m 7,3 C 12,1 C 20,9 km/h (4 Bft)
03.05.2022 13:58 15,7 C 26,1 C 60 % 1018,4 hPa 0,0 l/m 11,5 km/h (2 Bft) N 9 2 min 5,2 UV-I 798 W/m 8,0 C 13,3 C 16,1 km/h (3 Bft)
03.05.2022 14:00 15,9 C 26,7 C 58 % 1018,5 hPa 0,0 l/m 14,2 km/h (3 Bft) N-NO 32 2 min 5,2 UV-I 796 W/m 7,6 C 12,5 C 22,5 km/h (4 Bft)
03.05.2022 14:02 15,9 C 26,1 C 58 % 1018,5 hPa 0,0 l/m 12,7 km/h (3 Bft) N 5 2 min 5,2 UV-I 794 W/m 7,6 C 13,1 C 19,3 km/h (3 Bft)
03.05.2022 14:04 15,7 C 26,7 C 56 % 1018,5 hPa 0,0 l/m 12,2 km/h (2 Bft) N 355 2 min 5,2 UV-I 806 W/m 6,9 C 13,0 C 17,7 km/h (3 Bft)
03.05.2022 14:06 15,6 C 25,6 C 57 % 1018,4 hPa 0,0 l/m 8,8 km/h (2 Bft) N 355 2 min 5,2 UV-I 811 W/m 7,1 C 14,3 C 16,1 km/h (3 Bft)
03.05.2022 14:08 15,8 C 25,6 C 57 % 1018,4 hPa 0,0 l/m 11,6 km/h (2 Bft) N 10 2 min 5,2 UV-I 808 W/m 7,3 C 13,3 C 17,7 km/h (3 Bft)
03.05.2022 14:10 15,8 C 26,1 C 59 % 1018,4 hPa 0,0 l/m 9,5 km/h (2 Bft) NO 42 2 min 5,2 UV-I 801 W/m 7,8 C 14,2 C 19,3 km/h (3 Bft)
03.05.2022 14:12 15,8 C 26,7 C 58 % 1018,4 hPa 0,0 l/m 17,2 km/h (3 Bft) N-NO 20 2 min 5,2 UV-I 816 W/m 7,6 C 11,5 C 24,1 km/h (4 Bft)
03.05.2022 14:14 15,9 C 26,7 C 58 % 1018,4 hPa 0,0 l/m 12,0 km/h (2 Bft) N-NO 17 2 min 5,1 UV-I 793 W/m 7,6 C 13,3 C 17,7 km/h (3 Bft)
03.05.2022 14:16 15,8 C 26,7 C 57 % 1018,3 hPa 0,0 l/m 14,6 km/h (3 Bft) N 9 2 min 5,2 UV-I 799 W/m 7,3 C 12,3 C 20,9 km/h (4 Bft)
03.05.2022 14:18 16,0 C 26,7 C 58 % 1018,4 hPa 0,0 l/m 15,6 km/h (3 Bft) N 9 2 min 5,0 UV-I 767 W/m 7,7 C 12,2 C 22,5 km/h (4 Bft)
03.05.2022 14:20 15,9 C 26,7 C 57 % 1018,3 hPa 0,0 l/m 15,0 km/h (3 Bft) NO 41 2 min 5,1 UV-I 783 W/m 7,4 C 12,3 C 20,9 km/h (4 Bft)
03.05.2022 14:22 15,7 C 26,7 C 58 % 1018,4 hPa 0,0 l/m 14,8 km/h (3 Bft) N-NO 26 2 min 5,0 UV-I 819 W/m 7,5 C 12,1 C 17,7 km/h (3 Bft)
03.05.2022 14:24 15,4 C 26,7 C 56 % 1018,3 hPa 0,0 l/m 8,9 km/h (2 Bft) O-NO 67 2 min 5,0 UV-I 781 W/m 6,7 C 14,1 C 16,1 km/h (3 Bft)
03.05.2022 14:26 15,6 C 26,1 C 58 % 1018,3 hPa 0,0 l/m 8,2 km/h (2 Bft) NO 36 2 min 5,1 UV-I 779 W/m 7,4 C 14,6 C 12,9 km/h (3 Bft)
03.05.2022 14:28 15,7 C 26,1 C 56 % 1018,3 hPa 0,0 l/m 14,2 km/h (3 Bft) N 5 2 min 5,1 UV-I 810 W/m 6,9 C 12,3 C 19,3 km/h (3 Bft)
03.05.2022 14:30 15,8 C 25,6 C 58 % 1018,3 hPa 0,0 l/m 15,8 km/h (3 Bft) N-NO 17 2 min 5,1 UV-I 810 W/m 7,6 C 11,9 C 22,5 km/h (4 Bft)
03.05.2022 14:32 16,0 C 26,7 C 59 % 1018,3 hPa 0,0 l/m 10,8 km/h (2 Bft) N-NO 30 2 min 5,1 UV-I 808 W/m 8,0 C 13,9 C 17,7 km/h (3 Bft)
03.05.2022 14:34 15,8 C 26,1 C 56 % 1018,3 hPa 0,0 l/m 14,2 km/h (3 Bft) N-NO 32 2 min 5,1 UV-I 800 W/m 7,0 C 12,4 C 20,9 km/h (4 Bft)
03.05.2022 14:36 15,9 C 26,7 C 56 % 1018,3 hPa 0,0 l/m 12,2 km/h (2 Bft) N-NO 17 2 min 5,0 UV-I 797 W/m 7,1 C 13,2 C 19,3 km/h (3 Bft)
03.05.2022 14:38 15,9 C 26,7 C 56 % 1018,3 hPa 0,0 l/m 8,6 km/h (2 Bft) N-NO 12 2 min 4,9 UV-I 799 W/m 7,1 C 14,8 C 14,5 km/h (3 Bft)
03.05.2022 14:40 16,0 C 27,2 C 59 % 1018,2 hPa 0,0 l/m 12,6 km/h (3 Bft) N-NO 20 2 min 5,1 UV-I 810 W/m 8,0 C 13,2 C 22,5 km/h (4 Bft)
03.05.2022 14:42 16,2 C 27,2 C 56 % 1018,3 hPa 0,0 l/m 10,0 km/h (2 Bft) NO 36 2 min 5,0 UV-I 810 W/m 7,4 C 14,4 C 16,1 km/h (3 Bft)
03.05.2022 14:44 16,3 C 27,8 C 58 % 1018,2 hPa 0,0 l/m 7,1 km/h (2 Bft) N 9 2 min 5,0 UV-I 809 W/m 8,0 C 15,9 C 16,1 km/h (3 Bft)
03.05.2022 14:46 16,3 C 27,8 C 54 % 1018,3 hPa 0,0 l/m 13,1 km/h (3 Bft) N-NO 23 2 min 5,0 UV-I 821 W/m 7,0 C 13,4 C 17,7 km/h (3 Bft)
03.05.2022 14:48 16,3 C 27,2 C 54 % 1018,2 hPa 0,0 l/m 8,7 km/h (2 Bft) N 355 2 min 5,0 UV-I 824 W/m 7,0 C 15,1 C 16,1 km/h (3 Bft)
03.05.2022 14:50 16,0 C 26,7 C 54 % 1018,2 hPa 0,0 l/m 9,7 km/h (2 Bft) NW 324 2 min 5,0 UV-I 804 W/m 6,7 C 14,4 C 19,3 km/h (3 Bft)
03.05.2022 14:52 16,1 C 26,1 C 56 % 1018,2 hPa 0,0 l/m 4,2 km/h (1 Bft) N 5 2 min 4,8 UV-I 775 W/m 7,3 C 16,1 C 16,1 km/h (3 Bft)
03.05.2022 14:54 16,1 C 26,7 C 57 % 1018,1 hPa 0,0 l/m 9,2 km/h (2 Bft) N-NO 32 2 min 4,7 UV-I 796 W/m 7,6 C 14,7 C 17,7 km/h (3 Bft)
03.05.2022 14:56 16,3 C 27,2 C 58 % 1018,2 hPa 0,0 l/m 13,2 km/h (3 Bft) N-NO 28 2 min 5,0 UV-I 826 W/m 8,0 C 13,3 C 17,7 km/h (3 Bft)
03.05.2022 14:58 16,4 C 27,2 C 57 % 1018,2 hPa 0,0 l/m 14,0 km/h (3 Bft) N 351 2 min 5,0 UV-I 833 W/m 7,9 C 13,2 C 24,1 km/h (4 Bft)
03.05.2022 15:00 16,3 C 26,7 C 54 % 1018,2 hPa 0,0 l/m 11,5 km/h (2 Bft) N-NO 30 2 min 4,9 UV-I 822 W/m 7,0 C 14,0 C 20,9 km/h (4 Bft)
03.05.2022 15:02 16,3 C 27,8 C 56 % 1018,2 hPa 0,0 l/m 11,4 km/h (2 Bft) N-NO 24 2 min 4,8 UV-I 789 W/m 7,5 C 14,0 C 19,3 km/h (3 Bft)
03.05.2022 15:04 16,2 C 27,2 C 55 % 1018,2 hPa 0,0 l/m 10,1 km/h (2 Bft) N 360 2 min 4,8 UV-I 769 W/m 7,2 C 14,4 C 19,3 km/h (3 Bft)
03.05.2022 15:06 16,2 C 27,2 C 56 % 1018,1 hPa 0,0 l/m 8,6 km/h (2 Bft) N-NW 334 2 min 4,7 UV-I 739 W/m 7,4 C 15,1 C 16,1 km/h (3 Bft)
03.05.2022 15:08 16,4 C 26,7 C 54 % 1018,1 hPa 0,0 l/m 11,1 km/h (2 Bft) W-NW 292 2 min 4,8 UV-I 783 W/m 7,1 C 14,2 C 17,7 km/h (3 Bft)
03.05.2022 15:10 16,3 C 26,1 C 55 % 1018,1 hPa 0,0 l/m 13,6 km/h (3 Bft) N 360 2 min 4,8 UV-I 780 W/m 7,2 C 13,2 C 19,3 km/h (3 Bft)
03.05.2022 15:12 16,3 C 25,6 C 56 % 1018,1 hPa 0,0 l/m 9,1 km/h (2 Bft) N-NW 340 2 min 4,7 UV-I 783 W/m 7,5 C 14,9 C 16,1 km/h (3 Bft)
03.05.2022 15:14 16,2 C 26,1 C 56 % 1018,1 hPa 0,0 l/m 4,6 km/h (1 Bft) NO 43 2 min 4,7 UV-I 774 W/m 7,4 C 16,2 C 14,5 km/h (3 Bft)
03.05.2022 15:16 16,2 C 26,7 C 56 % 1018,0 hPa 0,0 l/m 11,5 km/h (2 Bft) N-NW 345 2 min 4,7 UV-I 768 W/m 7,4 C 13,8 C 16,1 km/h (3 Bft)
03.05.2022 15:18 16,2 C 26,7 C 56 % 1018,1 hPa 0,0 l/m 6,8 km/h (2 Bft) N 5 2 min 4,7 UV-I 774 W/m 7,4 C 16,0 C 14,5 km/h (3 Bft)
03.05.2022 15:20 16,3 C 27,8 C 57 % 1018,1 hPa 0,0 l/m 9,5 km/h (2 Bft) N-NO 21 2 min 4,6 UV-I 765 W/m 7,8 C 14,8 C 16,1 km/h (3 Bft)
03.05.2022 15:22 16,2 C 28,3 C 56 % 1017,9 hPa 0,0 l/m 12,3 km/h (3 Bft) N-NO 18 2 min 4,6 UV-I 750 W/m 7,4 C 13,5 C 24,1 km/h (4 Bft)
03.05.2022 15:24 16,2 C 27,2 C 58 % 1018,0 hPa 0,0 l/m 13,1 km/h (3 Bft) NO 34 2 min 4,5 UV-I 734 W/m 7,9 C 13,3 C 19,3 km/h (3 Bft)
03.05.2022 15:26 16,3 C 27,2 C 56 % 1017,9 hPa 0,0 l/m 14,7 km/h (3 Bft) NO 37 2 min 4,5 UV-I 743 W/m 7,5 C 12,9 C 22,5 km/h (4 Bft)
03.05.2022 15:28 16,3 C 27,2 C 55 % 1017,9 hPa 0,0 l/m 15,0 km/h (3 Bft) N-NO 25 2 min 4,5 UV-I 739 W/m 7,2 C 12,8 C 20,9 km/h (4 Bft)
03.05.2022 15:30 16,6 C 27,2 C 58 % 1017,9 hPa 0,0 l/m 13,5 km/h (3 Bft) N-NO 26 2 min 4,4 UV-I 736 W/m 8,3 C 13,6 C 24,1 km/h (4 Bft)
03.05.2022 15:32 16,8 C 27,8 C 58 % 1017,8 hPa 0,0 l/m 12,4 km/h (3 Bft) N-NO 13 2 min 4,5 UV-I 756 W/m 8,5 C 14,2 C 17,7 km/h (3 Bft)
03.05.2022 15:34 16,7 C 28,3 C 57 % 1017,8 hPa 0,0 l/m 11,5 km/h (2 Bft) N-NO 15 2 min 4,5 UV-I 728 W/m 8,1 C 14,4 C 20,9 km/h (4 Bft)
03.05.2022 15:36 16,4 C 27,8 C 52 % 1017,9 hPa 0,0 l/m 15,1 km/h (3 Bft) N 5 2 min 4,5 UV-I 776 W/m 6,5 C 12,9 C 19,3 km/h (3 Bft)
03.05.2022 15:38 16,3 C 27,2 C 55 % 1017,7 hPa 0,0 l/m 14,0 km/h (3 Bft) NO 34 2 min 4,3 UV-I 749 W/m 7,2 C 13,1 C 19,3 km/h (3 Bft)
03.05.2022 15:40 16,3 C 27,2 C 56 % 1017,7 hPa 0,0 l/m 15,7 km/h (3 Bft) N 9 2 min 4,1 UV-I 703 W/m 7,5 C 12,6 C 19,3 km/h (3 Bft)
03.05.2022 15:42 16,4 C 27,2 C 54 % 1017,8 hPa 0,0 l/m 13,3 km/h (3 Bft) N-NW 348 2 min 4,1 UV-I 699 W/m 7,1 C 13,4 C 19,3 km/h (3 Bft)
03.05.2022 15:44 16,5 C 27,8 C 55 % 1017,8 hPa 0,0 l/m 10,1 km/h (2 Bft) NO 43 2 min 4,3 UV-I 664 W/m 7,4 C 14,7 C 14,5 km/h (3 Bft)
03.05.2022 15:46 16,5 C 27,8 C 55 % 1017,8 hPa 0,0 l/m 12,0 km/h (2 Bft) N 360 2 min 4,3 UV-I 707 W/m 7,4 C 14,0 C 16,1 km/h (3 Bft)
03.05.2022 15:48 16,5 C 27,8 C 54 % 1017,8 hPa 0,0 l/m 15,8 km/h (3 Bft) N-NW 341 2 min 4,2 UV-I 730 W/m 7,2 C 12,8 C 24,1 km/h (4 Bft)
03.05.2022 15:50 16,5 C 27,2 C 54 % 1017,8 hPa 0,0 l/m 14,5 km/h (3 Bft) N 360 2 min 4,1 UV-I 724 W/m 7,2 C 13,2 C 19,3 km/h (3 Bft)
03.05.2022 15:52 16,4 C 26,7 C 54 % 1017,9 hPa 0,0 l/m 10,2 km/h (2 Bft) N 9 2 min 3,6 UV-I 701 W/m 7,1 C 14,6 C 16,1 km/h (3 Bft)
03.05.2022 15:54 16,1 C 23,3 C 53 % 1017,8 hPa 0,0 l/m 12,2 km/h (2 Bft) N-NW 348 0 min 2,7 UV-I 249 W/m 6,5 C 13,5 C 20,9 km/h (4 Bft)
03.05.2022 15:56 15,8 C 22,2 C 55 % 1017,9 hPa 0,0 l/m 10,2 km/h (2 Bft) N-NO 26 0 min 3,0 UV-I 254 W/m 6,8 C 13,9 C 19,3 km/h (3 Bft)
03.05.2022 15:58 15,9 C 24,4 C 57 % 1017,9 hPa 0,0 l/m 11,4 km/h (2 Bft) N 5 2 min 3,9 UV-I 605 W/m 7,4 C 13,5 C 17,7 km/h (3 Bft)
03.05.2022 16:00 16,1 C 26,7 C 56 % 1017,8 hPa 0,0 l/m 5,1 km/h (1 Bft) N 5 2 min 3,9 UV-I 708 W/m 7,3 C 16,1 C 8,0 km/h (2 Bft)
03.05.2022 16:02 16,5 C 27,2 C 57 % 1017,9 hPa 0,0 l/m 8,6 km/h (2 Bft) N 9 2 min 3,9 UV-I 697 W/m 8,0 C 15,4 C 16,1 km/h (3 Bft)
03.05.2022 16:04 16,7 C 27,8 C 56 % 1017,8 hPa 0,0 l/m 11,3 km/h (2 Bft) N 360 2 min 3,9 UV-I 694 W/m 7,9 C 14,5 C 19,3 km/h (3 Bft)
03.05.2022 16:06 16,6 C 28,3 C 56 % 1017,8 hPa 0,0 l/m 11,9 km/h (2 Bft) N-NO 33 2 min 3,9 UV-I 710 W/m 7,8 C 14,2 C 17,7 km/h (3 Bft)
03.05.2022 16:08 16,3 C 27,2 C 54 % 1017,8 hPa 0,0 l/m 11,6 km/h (2 Bft) N-NO 25 2 min 3,0 UV-I 558 W/m 7,0 C 13,9 C 17,7 km/h (3 Bft)
03.05.2022 16:10 15,9 C 25,0 C 55 % 1017,8 hPa 0,0 l/m 12,9 km/h (3 Bft) NO 45 0 min 3,0 UV-I 232 W/m 6,9 C 13,0 C 20,9 km/h (4 Bft)
03.05.2022 16:12 15,9 C 23,9 C 57 % 1017,8 hPa 0,0 l/m 15,4 km/h (3 Bft) N 5 0 min 3,5 UV-I 263 W/m 7,4 C 12,2 C 22,5 km/h (4 Bft)
03.05.2022 16:14 16,2 C 25,0 C 55 % 1017,8 hPa 0,0 l/m 12,5 km/h (3 Bft) N-NW 344 2 min 3,7 UV-I 700 W/m 7,2 C 13,5 C 20,9 km/h (4 Bft)
03.05.2022 16:16 16,4 C 26,1 C 53 % 1017,7 hPa 0,0 l/m 12,4 km/h (3 Bft) N-NW 344 2 min 3,7 UV-I 678 W/m 6,8 C 13,7 C 19,3 km/h (3 Bft)
03.05.2022 16:18 16,3 C 26,1 C 54 % 1017,7 hPa 0,0 l/m 7,1 km/h (2 Bft) N-NO 16 2 min 3,6 UV-I 669 W/m 7,0 C 15,9 C 12,9 km/h (3 Bft)
03.05.2022 16:20 16,4 C 27,2 C 56 % 1017,7 hPa 0,0 l/m 13,3 km/h (3 Bft) N-NO 24 2 min 3,6 UV-I 657 W/m 7,6 C 13,4 C 17,7 km/h (3 Bft)
03.05.2022 16:22 16,3 C 25,6 C 54 % 1017,7 hPa 0,0 l/m 10,9 km/h (2 Bft) N-NO 24 2 min 3,6 UV-I 658 W/m 7,0 C 14,2 C 14,5 km/h (3 Bft)
03.05.2022 16:24 16,4 C 26,1 C 54 % 1017,8 hPa 0,0 l/m 13,2 km/h (3 Bft) NO 35 2 min 3,5 UV-I 653 W/m 7,1 C 13,5 C 16,1 km/h (3 Bft)
03.05.2022 16:26 16,4 C 26,7 C 54 % 1017,8 hPa 0,0 l/m 8,5 km/h (2 Bft) N 10 2 min 3,5 UV-I 657 W/m 7,1 C 15,3 C 12,9 km/h (3 Bft)
03.05.2022 16:28 16,6 C 27,8 C 52 % 1017,7 hPa 0,0 l/m 9,4 km/h (2 Bft) NW 322 2 min 3,5 UV-I 657 W/m 6,7 C 15,1 C 17,7 km/h (3 Bft)
03.05.2022 16:30 16,6 C 27,2 C 53 % 1017,8 hPa 0,0 l/m 10,4 km/h (2 Bft) W 270 2 min 3,5 UV-I 656 W/m 7,0 C 14,7 C 16,1 km/h (3 Bft)
03.05.2022 16:32 16,5 C 27,2 C 52 % 1017,7 hPa 0,0 l/m 7,2 km/h (2 Bft) N 5 2 min 3,4 UV-I 648 W/m 6,6 C 16,1 C 12,9 km/h (3 Bft)
03.05.2022 16:34 16,7 C 28,3 C 54 % 1017,7 hPa 0,0 l/m 5,4 km/h (1 Bft) NW 319 2 min 3,4 UV-I 643 W/m 7,3 C 16,7 C 12,9 km/h (3 Bft)
03.05.2022 16:36 16,7 C 27,2 C 53 % 1017,7 hPa 0,0 l/m 6,7 km/h (2 Bft) N-NW 345 2 min 3,3 UV-I 635 W/m 7,1 C 16,6 C 12,9 km/h (3 Bft)
03.05.2022 16:38 16,8 C 27,2 C 52 % 1017,7 hPa 0,0 l/m 5,4 km/h (1 Bft) N 9 2 min 3,3 UV-I 633 W/m 6,9 C 16,8 C 12,9 km/h (3 Bft)
03.05.2022 16:40 17,1 C 27,8 C 55 % 1017,7 hPa 0,0 l/m 4,9 km/h (1 Bft) N 355 2 min 3,3 UV-I 618 W/m 8,0 C 17,1 C 11,3 km/h (2 Bft)
03.05.2022 16:42 17,1 C 27,8 C 52 % 1017,6 hPa 0,0 l/m 10,9 km/h (2 Bft) N 355 2 min 3,2 UV-I 605 W/m 7,2 C 15,1 C 17,7 km/h (3 Bft)
03.05.2022 16:44 16,8 C 26,7 C 51 % 1017,6 hPa 0,0 l/m 15,8 km/h (3 Bft) N-NW 336 2 min 3,1 UV-I 600 W/m 6,6 C 13,1 C 22,5 km/h (4 Bft)
03.05.2022 16:46 16,6 C 26,7 C 51 % 1017,6 hPa 0,0 l/m 15,9 km/h (3 Bft) N-NW 346 2 min 3,1 UV-I 596 W/m 6,4 C 12,9 C 22,5 km/h (4 Bft)
03.05.2022 16:48 16,4 C 26,1 C 53 % 1017,6 hPa 0,0 l/m 11,8 km/h (2 Bft) N-NW 346 2 min 3,1 UV-I 591 W/m 6,8 C 14,0 C 16,1 km/h (3 Bft)
03.05.2022 16:50 16,4 C 26,7 C 55 % 1017,6 hPa 0,0 l/m 8,5 km/h (2 Bft) N-NW 347 2 min 3,0 UV-I 574 W/m 7,3 C 15,3 C 14,5 km/h (3 Bft)
03.05.2022 16:52 16,4 C 26,7 C 51 % 1017,6 hPa 0,0 l/m 11,6 km/h (2 Bft) N 351 2 min 2,9 UV-I 561 W/m 6,2 C 14,0 C 16,1 km/h (3 Bft)
03.05.2022 16:54 16,3 C 27,2 C 54 % 1017,6 hPa 0,0 l/m 10,6 km/h (2 Bft) N-NW 348 2 min 2,9 UV-I 560 W/m 7,0 C 14,3 C 19,3 km/h (3 Bft)
03.05.2022 16:56 16,3 C 26,7 C 55 % 1017,6 hPa 0,0 l/m 13,6 km/h (3 Bft) N-NO 21 2 min 2,9 UV-I 559 W/m 7,2 C 13,2 C 20,9 km/h (4 Bft)
03.05.2022 16:58 16,4 C 27,8 C 54 % 1017,6 hPa 0,0 l/m 8,4 km/h (2 Bft) N 355 2 min 2,9 UV-I 560 W/m 7,1 C 15,4 C 16,1 km/h (3 Bft)
03.05.2022 17:00 16,6 C 27,2 C 55 % 1017,6 hPa 0,0 l/m 10,6 km/h (2 Bft) N-NW 336 2 min 2,9 UV-I 568 W/m 7,5 C 14,6 C 17,7 km/h (3 Bft)
03.05.2022 17:02 16,6 C 26,1 C 51 % 1017,6 hPa 0,0 l/m 10,8 km/h (2 Bft) N-NW 333 2 min 2,9 UV-I 573 W/m 6,4 C 14,6 C 17,7 km/h (3 Bft)
03.05.2022 17:04 16,6 C 26,7 C 51 % 1017,7 hPa 0,0 l/m 9,4 km/h (2 Bft) N-NW 347 2 min 2,8 UV-I 569 W/m 6,4 C 15,1 C 16,1 km/h (3 Bft)
03.05.2022 17:06 16,6 C 26,1 C 52 % 1017,7 hPa 0,0 l/m 8,8 km/h (2 Bft) N 350 2 min 2,7 UV-I 557 W/m 6,7 C 15,4 C 17,7 km/h (3 Bft)
03.05.2022 17:08 16,3 C 25,6 C 51 % 1017,6 hPa 0,0 l/m 16,8 km/h (3 Bft) N 350 2 min 2,7 UV-I 545 W/m 6,1 C 12,2 C 20,9 km/h (4 Bft)
03.05.2022 17:10 16,2 C 25,6 C 52 % 1017,7 hPa 0,0 l/m 13,0 km/h (3 Bft) N 9 2 min 2,6 UV-I 532 W/m 6,3 C 13,3 C 19,3 km/h (3 Bft)
03.05.2022 17:12 16,2 C 26,1 C 53 % 1017,7 hPa 0,0 l/m 10,8 km/h (2 Bft) N-NW 348 2 min 2,6 UV-I 533 W/m 6,6 C 14,1 C 16,1 km/h (3 Bft)
03.05.2022 17:14 16,1 C 25,6 C 51 % 1017,7 hPa 0,0 l/m 11,0 km/h (2 Bft) N 5 2 min 2,6 UV-I 522 W/m 6,0 C 13,9 C 17,7 km/h (3 Bft)
03.05.2022 17:16 16,1 C 25,6 C 50 % 1017,8 hPa 0,0 l/m 11,0 km/h (2 Bft) N 9 2 min 2,5 UV-I 508 W/m 5,7 C 13,9 C 17,7 km/h (3 Bft)
03.05.2022 17:18 16,3 C 26,1 C 54 % 1017,7 hPa 0,0 l/m 11,1 km/h (2 Bft) N 360 2 min 2,5 UV-I 508 W/m 7,0 C 14,1 C 16,1 km/h (3 Bft)
03.05.2022 17:20 16,4 C 26,1 C 50 % 1017,7 hPa 0,0 l/m 10,3 km/h (2 Bft) N-NW 336 2 min 2,4 UV-I 502 W/m 6,0 C 14,5 C 16,1 km/h (3 Bft)
03.05.2022 17:22 16,2 C 26,1 C 52 % 1017,8 hPa 0,0 l/m 11,6 km/h (2 Bft) N 5 2 min 2,4 UV-I 498 W/m 6,3 C 13,8 C 17,7 km/h (3 Bft)
03.05.2022 17:24 16,2 C 25,6 C 51 % 1017,6 hPa 0,0 l/m 16,7 km/h (3 Bft) N-NO 22 2 min 2,4 UV-I 502 W/m 6,1 C 12,1 C 20,9 km/h (4 Bft)
03.05.2022 17:26 16,1 C 26,1 C 51 % 1017,7 hPa 0,0 l/m 8,6 km/h (2 Bft) N 351 2 min 2,4 UV-I 500 W/m 6,0 C 15,0 C 14,5 km/h (3 Bft)
03.05.2022 17:28 16,1 C 26,1 C 51 % 1017,7 hPa 0,0 l/m 11,4 km/h (2 Bft) N-NW 346 2 min 2,3 UV-I 489 W/m 6,0 C 13,8 C 17,7 km/h (3 Bft)
03.05.2022 17:30 16,2 C 25,6 C 52 % 1017,7 hPa 0,0 l/m 7,1 km/h (2 Bft) NO 34 2 min 2,2 UV-I 464 W/m 6,3 C 15,8 C 14,5 km/h (3 Bft)
03.05.2022 17:32 16,2 C 25,0 C 51 % 1017,7 hPa 0,0 l/m 16,1 km/h (3 Bft) N-NW 340 2 min 2,2 UV-I 457 W/m 6,1 C 12,3 C 20,9 km/h (4 Bft)
03.05.2022 17:34 16,1 C 24,4 C 51 % 1017,7 hPa 0,0 l/m 11,0 km/h (2 Bft) NW 324 2 min 2,2 UV-I 465 W/m 6,0 C 13,9 C 19,3 km/h (3 Bft)
03.05.2022 17:36 16,1 C 25,0 C 51 % 1017,7 hPa 0,0 l/m 8,6 km/h (2 Bft) N 350 2 min 2,2 UV-I 463 W/m 6,0 C 15,0 C 16,1 km/h (3 Bft)
03.05.2022 17:38 16,0 C 25,0 C 50 % 1017,6 hPa 0,0 l/m 11,0 km/h (2 Bft) N-NW 335 2 min 2,1 UV-I 451 W/m 5,6 C 13,8 C 17,7 km/h (3 Bft)
03.05.2022 17:40 15,9 C 25,0 C 51 % 1017,7 hPa 0,0 l/m 8,2 km/h (2 Bft) N-NW 346 2 min 2,1 UV-I 450 W/m 5,8 C 14,9 C 14,5 km/h (3 Bft)
03.05.2022 17:42 15,9 C 25,0 C 51 % 1017,6 hPa 0,0 l/m 5,4 km/h (1 Bft) N-NW 340 2 min 2,1 UV-I 454 W/m 5,8 C 15,9 C 14,5 km/h (3 Bft)
03.05.2022 17:44 15,9 C 24,4 C 51 % 1017,6 hPa 0,0 l/m 11,7 km/h (2 Bft) N-NW 331 2 min 2,1 UV-I 448 W/m 5,8 C 13,4 C 19,3 km/h (3 Bft)
03.05.2022 17:46 15,9 C 24,4 C 51 % 1017,7 hPa 0,0 l/m 8,9 km/h (2 Bft) N 355 2 min 2,0 UV-I 440 W/m 5,8 C 14,6 C 17,7 km/h (3 Bft)
03.05.2022 17:48 16,1 C 25,0 C 53 % 1017,6 hPa 0,0 l/m 6,4 km/h (2 Bft) NW 323 2 min 2,0 UV-I 432 W/m 6,5 C 16,1 C 12,9 km/h (3 Bft)
03.05.2022 17:50 16,2 C 25,0 C 50 % 1017,6 hPa 0,0 l/m 7,7 km/h (2 Bft) N 355 2 min 1,9 UV-I 427 W/m 5,8 C 15,5 C 12,9 km/h (3 Bft)
03.05.2022 17:52 16,1 C 24,4 C 52 % 1017,7 hPa 0,0 l/m 9,2 km/h (2 Bft) N-NW 329 2 min 1,9 UV-I 424 W/m 6,2 C 14,7 C 14,5 km/h (3 Bft)
03.05.2022 17:54 16,1 C 24,4 C 52 % 1017,6 hPa 0,0 l/m 10,3 km/h (2 Bft) N-NW 348 2 min 1,9 UV-I 417 W/m 6,2 C 14,2 C 17,7 km/h (3 Bft)
03.05.2022 17:56 16,1 C 25,0 C 51 % 1017,6 hPa 0,0 l/m 11,3 km/h (2 Bft) N 349 2 min 1,8 UV-I 412 W/m 6,0 C 13,8 C 19,3 km/h (3 Bft)
03.05.2022 17:58 15,9 C 23,9 C 51 % 1017,6 hPa 0,0 l/m 17,1 km/h (3 Bft) N 355 2 min 1,8 UV-I 405 W/m 5,8 C 11,7 C 22,5 km/h (4 Bft)
03.05.2022 18:00 15,9 C 23,9 C 53 % 1017,5 hPa 0,0 l/m 12,8 km/h (3 Bft) N 5 2 min 1,7 UV-I 392 W/m 6,3 C 13,0 C 19,3 km/h (3 Bft)
03.05.2022 18:02 16,0 C 24,4 C 56 % 1017,6 hPa 0,0 l/m 7,6 km/h (2 Bft) N-NO 13 2 min 1,7 UV-I 384 W/m 7,2 C 15,4 C 16,1 km/h (3 Bft)
03.05.2022 18:04 15,9 C 23,9 C 54 % 1017,6 hPa 0,0 l/m 13,2 km/h (3 Bft) N 360 2 min 1,7 UV-I 375 W/m 6,6 C 12,9 C 17,7 km/h (3 Bft)
03.05.2022 18:06 15,8 C 23,9 C 55 % 1017,7 hPa 0,0 l/m 14,8 km/h (3 Bft) N 11 2 min 1,6 UV-I 367 W/m 6,8 C 12,2 C 19,3 km/h (3 Bft)
03.05.2022 18:08 15,7 C 23,3 C 53 % 1017,7 hPa 0,0 l/m 14,5 km/h (3 Bft) N 9 2 min 1,6 UV-I 356 W/m 6,1 C 12,2 C 20,9 km/h (4 Bft)
03.05.2022 18:10 15,5 C 22,8 C 53 % 1017,7 hPa 0,0 l/m 13,1 km/h (3 Bft) N 5 0 min 1,4 UV-I 258 W/m 6,0 C 12,4 C 17,7 km/h (3 Bft)
03.05.2022 18:12 15,4 C 22,2 C 57 % 1017,7 hPa 0,0 l/m 13,4 km/h (3 Bft) N-NO 25 0 min 1,5 UV-I 325 W/m 6,9 C 12,2 C 17,7 km/h (3 Bft)
03.05.2022 18:14 15,4 C 23,3 C 56 % 1017,7 hPa 0,0 l/m 11,4 km/h (2 Bft) N-NO 28 2 min 1,5 UV-I 365 W/m 6,7 C 13,0 C 22,5 km/h (4 Bft)
03.05.2022 18:16 15,4 C 22,2 C 54 % 1017,7 hPa 0,0 l/m 15,1 km/h (3 Bft) N-NO 33 2 min 1,5 UV-I 344 W/m 6,1 C 11,6 C 20,9 km/h (4 Bft)
03.05.2022 18:18 15,3 C 21,7 C 54 % 1017,7 hPa 0,0 l/m 14,7 km/h (3 Bft) N-NO 15 0 min 1,4 UV-I 341 W/m 6,0 C 11,7 C 19,3 km/h (3 Bft)
03.05.2022 18:20 15,3 C 22,2 C 55 % 1017,8 hPa 0,0 l/m 10,3 km/h (2 Bft) N-NO 13 0 min 1,4 UV-I 340 W/m 6,3 C 13,3 C 16,1 km/h (3 Bft)
03.05.2022 18:22 15,3 C 22,8 C 55 % 1017,8 hPa 0,0 l/m 13,2 km/h (3 Bft) N-NW 344 0 min 1,4 UV-I 341 W/m 6,3 C 12,2 C 17,7 km/h (3 Bft)
03.05.2022 18:24 15,3 C 22,2 C 53 % 1017,8 hPa 0,0 l/m 12,6 km/h (3 Bft) N 355 0 min 1,3 UV-I 338 W/m 5,8 C 12,4 C 17,7 km/h (3 Bft)
03.05.2022 18:26 15,3 C 22,8 C 54 % 1017,7 hPa 0,0 l/m 7,3 km/h (2 Bft) N-NO 26 0 min 1,3 UV-I 327 W/m 6,0 C 14,8 C 11,3 km/h (2 Bft)
03.05.2022 18:28 15,3 C 22,8 C 54 % 1017,7 hPa 0,0 l/m 12,2 km/h (2 Bft) N-NW 346 0 min 1,3 UV-I 317 W/m 6,0 C 12,5 C 17,7 km/h (3 Bft)
03.05.2022 18:30 15,3 C 22,2 C 56 % 1017,7 hPa 0,0 l/m 11,1 km/h (2 Bft) N 360 0 min 1,3 UV-I 313 W/m 6,6 C 13,0 C 16,1 km/h (3 Bft)
03.05.2022 18:32 15,2 C 22,8 C 54 % 1017,7 hPa 0,0 l/m 12,6 km/h (3 Bft) N-NW 334 0 min 1,2 UV-I 305 W/m 6,0 C 12,3 C 20,9 km/h (4 Bft)
03.05.2022 18:34 15,2 C 21,7 C 53 % 1017,7 hPa 0,0 l/m 14,8 km/h (3 Bft) N 349 0 min 1,2 UV-I 293 W/m 5,7 C 11,5 C 20,9 km/h (4 Bft)
03.05.2022 18:36 15,1 C 21,1 C 53 % 1017,7 hPa 0,0 l/m 16,7 km/h (3 Bft) N 355 0 min 1,1 UV-I 281 W/m 5,6 C 10,8 C 20,9 km/h (4 Bft)
03.05.2022 18:38 15,0 C 20,6 C 53 % 1017,7 hPa 0,0 l/m 13,7 km/h (3 Bft) N 360 0 min 1,1 UV-I 279 W/m 5,5 C 11,6 C 17,7 km/h (3 Bft)
03.05.2022 18:40 15,0 C 20,6 C 53 % 1017,8 hPa 0,0 l/m 10,1 km/h (2 Bft) N-NW 346 0 min 1,1 UV-I 282 W/m 5,5 C 13,1 C 16,1 km/h (3 Bft)
03.05.2022 18:42 15,0 C 20,6 C 57 % 1017,7 hPa 0,0 l/m 9,4 km/h (2 Bft) N 5 0 min 1,1 UV-I 282 W/m 6,6 C 13,4 C 14,5 km/h (3 Bft)
03.05.2022 18:44 14,9 C 20,6 C 56 % 1017,7 hPa 0,0 l/m 10,3 km/h (2 Bft) N 360 0 min 1,0 UV-I 277 W/m 6,2 C 12,9 C 19,3 km/h (3 Bft)
03.05.2022 18:46 14,9 C 19,4 C 55 % 1017,7 hPa 0,0 l/m 12,3 km/h (3 Bft) N 355 0 min 1,0 UV-I 268 W/m 5,9 C 12,0 C 19,3 km/h (3 Bft)
03.05.2022 18:48 14,8 C 18,3 C 53 % 1017,8 hPa 0,0 l/m 14,8 km/h (3 Bft) N-NW 339 0 min 1,0 UV-I 262 W/m 5,3 C 11,0 C 19,3 km/h (3 Bft)
03.05.2022 18:50 14,8 C 17,2 C 53 % 1017,7 hPa 0,0 l/m 16,7 km/h (3 Bft) N-NW 345 0 min 1,0 UV-I 257 W/m 5,3 C 10,4 C 22,5 km/h (4 Bft)
03.05.2022 18:52 14,7 C 17,2 C 54 % 1017,7 hPa 0,0 l/m 14,1 km/h (3 Bft) N-NW 348 0 min 0,9 UV-I 246 W/m 5,5 C 11,1 C 19,3 km/h (3 Bft)
03.05.2022 18:54 14,6 C 16,7 C 54 % 1017,7 hPa 0,0 l/m 16,1 km/h (3 Bft) N 360 0 min 0,9 UV-I 243 W/m 5,4 C 10,3 C 20,9 km/h (4 Bft)
03.05.2022 18:56 14,6 C 16,1 C 55 % 1017,7 hPa 0,0 l/m 11,2 km/h (2 Bft) N 355 0 min 0,9 UV-I 242 W/m 5,7 C 12,1 C 16,1 km/h (3 Bft)
03.05.2022 18:58 14,5 C 15,6 C 55 % 1017,7 hPa 0,0 l/m 12,6 km/h (3 Bft) N-NO 19 0 min 0,9 UV-I 242 W/m 5,6 C 11,5 C 17,7 km/h (3 Bft)
03.05.2022 19:00 14,4 C 15,6 C 55 % 1017,7 hPa 0,0 l/m 9,0 km/h (2 Bft) N 5 0 min 0,8 UV-I 238 W/m 5,5 C 12,9 C 14,5 km/h (3 Bft)
03.05.2022 19:02 14,4 C 15,6 C 55 % 1017,7 hPa 0,0 l/m 13,7 km/h (3 Bft) N 5 0 min 0,8 UV-I 232 W/m 5,5 C 10,9 C 20,9 km/h (4 Bft)
03.05.2022 19:04 14,4 C 15,6 C 55 % 1017,7 hPa 0,0 l/m 9,7 km/h (2 Bft) N 10 0 min 0,8 UV-I 232 W/m 5,5 C 12,6 C 14,5 km/h (3 Bft)
03.05.2022 19:06 14,3 C 15,6 C 57 % 1017,7 hPa 0,0 l/m 7,4 km/h (2 Bft) N 349 0 min 0,8 UV-I 230 W/m 5,9 C 13,7 C 16,1 km/h (3 Bft)
03.05.2022 19:08 14,3 C 16,1 C 56 % 1017,7 hPa 0,0 l/m 10,5 km/h (2 Bft) NO 36 0 min 0,7 UV-I 223 W/m 5,6 C 12,1 C 14,5 km/h (3 Bft)
03.05.2022 19:10 14,2 C 16,7 C 56 % 1017,8 hPa 0,0 l/m 12,5 km/h (3 Bft) N-NO 22 0 min 0,7 UV-I 215 W/m 5,6 C 11,1 C 22,5 km/h (4 Bft)
03.05.2022 19:12 14,2 C 16,7 C 55 % 1017,8 hPa 0,0 l/m 18,1 km/h (3 Bft) N 355 0 min 0,7 UV-I 208 W/m 5,3 C 9,2 C 24,1 km/h (4 Bft)
03.05.2022 19:14 14,2 C 16,7 C 55 % 1017,8 hPa 0,0 l/m 14,1 km/h (3 Bft) N-NO 17 0 min 0,7 UV-I 197 W/m 5,3 C 10,5 C 17,7 km/h (3 Bft)
03.05.2022 19:16 14,1 C 16,7 C 55 % 1017,8 hPa 0,0 l/m 14,5 km/h (3 Bft) N 5 0 min 0,6 UV-I 192 W/m 5,2 C 10,3 C 20,9 km/h (4 Bft)
03.05.2022 19:18 14,1 C 16,7 C 55 % 1017,8 hPa 0,0 l/m 15,8 km/h (3 Bft) N 5 0 min 0,6 UV-I 184 W/m 5,2 C 9,8 C 24,1 km/h (4 Bft)
03.05.2022 19:20 13,9 C 16,7 C 55 % 1018,0 hPa 0,0 l/m 12,4 km/h (3 Bft) N-NW 345 0 min 0,6 UV-I 175 W/m 5,0 C 10,8 C 16,1 km/h (3 Bft)
03.05.2022 19:22 13,9 C 16,7 C 56 % 1017,9 hPa 0,0 l/m 11,7 km/h (2 Bft) N 5 0 min 0,6 UV-I 166 W/m 5,3 C 11,1 C 16,1 km/h (3 Bft)
03.05.2022 19:24 13,8 C 16,7 C 57 % 1017,9 hPa 0,0 l/m 9,6 km/h (2 Bft) N-NW 338 0 min 0,5 UV-I 164 W/m 5,4 C 12,0 C 16,1 km/h (3 Bft)
03.05.2022 19:26 13,8 C 16,7 C 56 % 1018,0 hPa 0,0 l/m 10,1 km/h (2 Bft) N 5 0 min 0,5 UV-I 158 W/m 5,2 C 11,7 C 17,7 km/h (3 Bft)
03.05.2022 19:28 13,8 C 16,7 C 57 % 1017,8 hPa 0,0 l/m 9,4 km/h (2 Bft) N-NO 24 0 min 0,5 UV-I 150 W/m 5,4 C 12,1 C 16,1 km/h (3 Bft)
03.05.2022 19:30 13,7 C 16,1 C 57 % 1017,8 hPa 0,0 l/m 11,7 km/h (2 Bft) N-NW 344 0 min 0,5 UV-I 140 W/m 5,3 C 10,9 C 19,3 km/h (3 Bft)
03.05.2022 19:32 13,7 C 15,6 C 56 % 1017,9 hPa 0,0 l/m 14,9 km/h (3 Bft) N-NW 337 0 min 0,5 UV-I 133 W/m 5,1 C 9,7 C 19,3 km/h (3 Bft)
03.05.2022 19:34 13,7 C 15,6 C 56 % 1017,9 hPa 0,0 l/m 13,2 km/h (3 Bft) N 5 0 min 0,2 UV-I 126 W/m 5,1 C 10,3 C 19,3 km/h (3 Bft)
03.05.2022 19:36 13,6 C 15,0 C 56 % 1017,9 hPa 0,0 l/m 12,9 km/h (3 Bft) N 355 0 min 0,0 UV-I 123 W/m 5,0 C 10,3 C 20,9 km/h (4 Bft)
03.05.2022 19:38 13,6 C 14,4 C 56 % 1017,8 hPa 0,0 l/m 10,7 km/h (2 Bft) N 349 0 min 0,0 UV-I 129 W/m 5,0 C 11,2 C 16,1 km/h (3 Bft)
03.05.2022 19:40 13,5 C 14,4 C 59 % 1018,0 hPa 0,0 l/m 7,8 km/h (2 Bft) N 350 0 min 0,0 UV-I 133 W/m 5,6 C 12,6 C 17,7 km/h (3 Bft)
03.05.2022 19:42 13,4 C 14,4 C 57 % 1018,0 hPa 0,0 l/m 13,4 km/h (3 Bft) N-NO 12 0 min 0,0 UV-I 128 W/m 5,1 C 9,9 C 17,7 km/h (3 Bft)
03.05.2022 19:44 13,4 C 13,9 C 57 % 1018,0 hPa 0,0 l/m 13,8 km/h (3 Bft) N 360 0 min 0,0 UV-I 115 W/m 5,1 C 9,7 C 17,7 km/h (3 Bft)
03.05.2022 19:46 13,4 C 13,3 C 57 % 1018,0 hPa 0,0 l/m 11,3 km/h (2 Bft) N-NW 346 0 min 0,0 UV-I 94 W/m 5,1 C 10,7 C 17,7 km/h (3 Bft)
03.05.2022 19:48 13,4 C 12,8 C 57 % 1018,0 hPa 0,0 l/m 11,7 km/h (2 Bft) N 355 0 min 0,0 UV-I 96 W/m 5,1 C 10,6 C 16,1 km/h (3 Bft)
03.05.2022 19:50 13,3 C 12,8 C 57 % 1018,0 hPa 0,0 l/m 13,4 km/h (3 Bft) N-NW 346 0 min 0,0 UV-I 96 W/m 5,0 C 9,7 C 19,3 km/h (3 Bft)
03.05.2022 19:52 13,3 C 12,2 C 57 % 1018,1 hPa 0,0 l/m 13,5 km/h (3 Bft) N-NW 340 0 min 0,0 UV-I 97 W/m 5,0 C 9,7 C 19,3 km/h (3 Bft)
03.05.2022 19:54 13,3 C 12,2 C 58 % 1018,0 hPa 0,0 l/m 7,7 km/h (2 Bft) N-NW 336 0 min 0,0 UV-I 92 W/m 5,2 C 12,5 C 12,9 km/h (3 Bft)
03.05.2022 19:56 13,2 C 12,2 C 58 % 1018,0 hPa 0,0 l/m 10,0 km/h (2 Bft) N-NW 343 0 min 0,0 UV-I 88 W/m 5,1 C 11,1 C 16,1 km/h (3 Bft)
03.05.2022 19:58 13,1 C 11,7 C 57 % 1018,1 hPa 0,0 l/m 13,1 km/h (3 Bft) N 355 0 min 0,0 UV-I 82 W/m 4,8 C 9,6 C 20,9 km/h (4 Bft)
03.05.2022 20:00 13,1 C 11,7 C 57 % 1018,0 hPa 0,0 l/m 17,7 km/h (3 Bft) N-NW 342 0 min 0,0 UV-I 76 W/m 4,8 C 8,0 C 20,9 km/h (4 Bft)
03.05.2022 20:02 13,1 C 11,7 C 57 % 1018,0 hPa 0,0 l/m 15,0 km/h (3 Bft) N-NW 347 0 min 0,0 UV-I 69 W/m 4,8 C 8,9 C 19,3 km/h (3 Bft)
03.05.2022 20:04 13,0 C 11,7 C 58 % 1018,0 hPa 0,0 l/m 12,8 km/h (3 Bft) N-NW 345 0 min 0,0 UV-I 53 W/m 4,9 C 9,6 C 17,7 km/h (3 Bft)
03.05.2022 20:06 12,9 C 11,7 C 58 % 1018,0 hPa 0,0 l/m 12,1 km/h (2 Bft) N 355 0 min 0,0 UV-I 43 W/m 4,8 C 9,8 C 16,1 km/h (3 Bft)
03.05.2022 20:08 12,9 C 11,7 C 58 % 1018,0 hPa 0,0 l/m 13,5 km/h (3 Bft) N-NW 336 0 min 0,0 UV-I 41 W/m 4,8 C 9,2 C 19,3 km/h (3 Bft)
03.05.2022 20:10 12,8 C 11,1 C 58 % 1018,0 hPa 0,0 l/m 12,8 km/h (3 Bft) N 5 0 min 0,0 UV-I 40 W/m 4,7 C 9,4 C 17,7 km/h (3 Bft)
03.05.2022 20:12 12,7 C 11,1 C 59 % 1017,9 hPa 0,0 l/m 10,9 km/h (2 Bft) N 350 0 min 0,0 UV-I 38 W/m 4,9 C 10,1 C 16,1 km/h (3 Bft)
03.05.2022 20:14 12,6 C 11,1 C 59 % 1018,0 hPa 0,0 l/m 11,0 km/h (2 Bft) N 350 0 min 0,0 UV-I 36 W/m 4,8 C 10,0 C 16,1 km/h (3 Bft)
03.05.2022 20:16 12,6 C 11,1 C 59 % 1017,9 hPa 0,0 l/m 13,0 km/h (3 Bft) N 5 0 min 0,0 UV-I 34 W/m 4,8 C 9,1 C 19,3 km/h (3 Bft)
03.05.2022 20:18 12,5 C 11,1 C 59 % 1018,0 hPa 0,0 l/m 12,5 km/h (3 Bft) N-NW 344 0 min 0,0 UV-I 32 W/m 4,7 C 9,2 C 17,7 km/h (3 Bft)
03.05.2022 20:20 12,4 C 10,6 C 60 % 1018,0 hPa 0,0 l/m 10,6 km/h (2 Bft) N-NW 331 0 min 0,0 UV-I 30 W/m 4,9 C 9,9 C 16,1 km/h (3 Bft)
03.05.2022 20:22 12,4 C 10,6 C 60 % 1018,0 hPa 0,0 l/m 11,1 km/h (2 Bft) N 5 0 min 0,0 UV-I 27 W/m 4,9 C 9,7 C 19,3 km/h (3 Bft)
03.05.2022 20:24 12,3 C 10,6 C 60 % 1018,0 hPa 0,0 l/m 9,4 km/h (2 Bft) N-NW 344 0 min 0,0 UV-I 25 W/m 4,8 C 10,5 C 12,9 km/h (3 Bft)
03.05.2022 20:26 12,2 C 10,0 C 60 % 1018,0 hPa 0,0 l/m 11,5 km/h (2 Bft) N 360 0 min 0,0 UV-I 24 W/m 4,7 C 9,3 C 17,7 km/h (3 Bft)
03.05.2022 20:28 12,2 C 10,0 C 60 % 1018,0 hPa 0,0 l/m 8,8 km/h (2 Bft) N 5 0 min 0,0 UV-I 21 W/m 4,7 C 10,7 C 16,1 km/h (3 Bft)
03.05.2022 20:30 12,2 C 10,0 C 60 % 1018,0 hPa 0,0 l/m 8,2 km/h (2 Bft) NW 312 0 min 0,0 UV-I 19 W/m 4,7 C 11,0 C 16,1 km/h (3 Bft)
03.05.2022 20:32 12,1 C 10,0 C 60 % 1018,0 hPa 0,0 l/m 8,3 km/h (2 Bft) N-NW 348 0 min 0,0 UV-I 18 W/m 4,6 C 10,9 C 12,9 km/h (3 Bft)
03.05.2022 20:34 12,1 C 10,0 C 61 % 1018,2 hPa 0,0 l/m 9,1 km/h (2 Bft) N 350 0 min 0,0 UV-I 16 W/m 4,8 C 10,4 C 14,5 km/h (3 Bft)
03.05.2022 20:36 12,0 C 10,0 C 61 % 1018,1 hPa 0,0 l/m 8,6 km/h (2 Bft) N 355 0 min 0,0 UV-I 15 W/m 4,7 C 10,6 C 12,9 km/h (3 Bft)
03.05.2022 20:38 11,9 C 9,4 C 61 % 1018,2 hPa 0,0 l/m 7,1 km/h (2 Bft) N 350 0 min 0,0 UV-I 13 W/m 4,6 C 11,4 C 14,5 km/h (3 Bft)
03.05.2022 20:40 11,8 C 9,4 C 61 % 1018,1 hPa 0,0 l/m 8,1 km/h (2 Bft) N 351 0 min 0,0 UV-I 12 W/m 4,5 C 10,7 C 12,9 km/h (3 Bft)
03.05.2022 20:42 11,7 C 8,9 C 61 % 1018,1 hPa 0,0 l/m 8,5 km/h (2 Bft) N 360 0 min 0,0 UV-I 12 W/m 4,4 C 10,3 C 12,9 km/h (3 Bft)
03.05.2022 20:44 11,7 C 8,9 C 61 % 1018,2 hPa 0,0 l/m 7,9 km/h (2 Bft) N-NW 335 0 min 0,0 UV-I 11 W/m 4,4 C 10,7 C 9,7 km/h (2 Bft)
03.05.2022 20:46 11,6 C 8,9 C 62 % 1018,2 hPa 0,0 l/m 8,5 km/h (2 Bft) N-NW 346 0 min 0,0 UV-I 9 W/m 4,6 C 10,2 C 12,9 km/h (3 Bft)
03.05.2022 20:48 11,5 C 8,9 C 62 % 1018,1 hPa 0,0 l/m 5,4 km/h (1 Bft) N-NW 335 0 min 0,0 UV-I 9 W/m 4,5 C 11,5 C 9,7 km/h (2 Bft)
03.05.2022 20:50 11,3 C 8,3 C 63 % 1018,2 hPa 0,0 l/m 6,7 km/h (2 Bft) N 350 0 min 0,0 UV-I 8 W/m 4,5 C 11,1 C 9,7 km/h (2 Bft)
03.05.2022 20:52 11,3 C 8,3 C 63 % 1018,1 hPa 0,0 l/m 7,9 km/h (2 Bft) N-NW 346 0 min 0,0 UV-I 7 W/m 4,5 C 10,3 C 12,9 km/h (3 Bft)
03.05.2022 20:54 11,3 C 8,3 C 63 % 1018,1 hPa 0,0 l/m 6,0 km/h (2 Bft) N-NW 348 0 min 0,0 UV-I 5 W/m 4,5 C 11,3 C 9,7 km/h (2 Bft)
03.05.2022 20:56 11,2 C 8,3 C 63 % 1018,2 hPa 0,0 l/m 6,1 km/h (2 Bft) N-NW 332 0 min 0,0 UV-I 4 W/m 4,4 C 11,2 C 9,7 km/h (2 Bft)
03.05.2022 20:58 11,1 C 8,3 C 63 % 1018,2 hPa 0,0 l/m 5,1 km/h (1 Bft) N 351 0 min 0,0 UV-I 0 W/m 4,3 C 11,1 C 8,0 km/h (2 Bft)
03.05.2022 21:00 11,0 C 8,3 C 64 % 1018,2 hPa 0,0 l/m 4,5 km/h (1 Bft) N-NW 348 0 min 0,0 UV-I 0 W/m 4,5 C 11,0 C 8,0 km/h (2 Bft)
03.05.2022 21:02 10,9 C 7,8 C 64 % 1018,2 hPa 0,0 l/m 5,3 km/h (1 Bft) N-NW 333 0 min 0,0 UV-I 0 W/m 4,4 C 10,9 C 8,0 km/h (2 Bft)
03.05.2022 21:04 10,9 C 7,8 C 64 % 1018,2 hPa 0,0 l/m 6,6 km/h (2 Bft) N-NW 340 0 min 0,0 UV-I 0 W/m 4,4 C 10,8 C 9,7 km/h (2 Bft)
03.05.2022 21:06 10,8 C 7,8 C 64 % 1018,2 hPa 0,0 l/m 6,6 km/h (2 Bft) N 355 0 min 0,0 UV-I 0 W/m 4,3 C 10,7 C 9,7 km/h (2 Bft)
03.05.2022 21:08 10,8 C 7,8 C 64 % 1018,3 hPa 0,0 l/m 7,0 km/h (2 Bft) N 350 0 min 0,0 UV-I 0 W/m 4,3 C 10,4 C 8,0 km/h (2 Bft)
03.05.2022 21:10 10,7 C 7,8 C 65 % 1018,3 hPa 0,0 l/m 6,0 km/h (2 Bft) N 355 0 min 0,0 UV-I 0 W/m 4,4 C 10,7 C 8,0 km/h (2 Bft)
03.05.2022 21:12 10,6 C 7,2 C 65 % 1018,4 hPa 0,0 l/m 4,4 km/h (1 Bft) N 349 0 min 0,0 UV-I 0 W/m 4,3 C 10,6 C 6,4 km/h (2 Bft)
03.05.2022 21:14 10,5 C 7,2 C 65 % 1018,3 hPa 0,0 l/m 4,3 km/h (1 Bft) N 350 0 min 0,0 UV-I 0 W/m 4,2 C 10,5 C 6,4 km/h (2 Bft)
03.05.2022 21:16 10,4 C 7,2 C 65 % 1018,5 hPa 0,0 l/m 4,5 km/h (1 Bft) N 350 0 min 0,0 UV-I 0 W/m 4,1 C 10,4 C 6,4 km/h (2 Bft)
03.05.2022 21:18 10,4 C 6,7 C 65 % 1018,4 hPa 0,0 l/m 4,7 km/h (1 Bft) N 350 0 min 0,0 UV-I 0 W/m 4,1 C 10,4 C 4,8 km/h (1 Bft)
03.05.2022 21:20 10,3 C 7,2 C 66 % 1018,4 hPa 0,0 l/m 4,9 km/h (1 Bft) N 350 0 min 0,0 UV-I 0 W/m 4,2 C 10,3 C 6,4 km/h (2 Bft)
03.05.2022 21:22 10,3 C 6,7 C 66 % 1018,5 hPa 0,0 l/m 4,2 km/h (1 Bft) N 350 0 min 0,0 UV-I 0 W/m 4,2 C 10,3 C 4,8 km/h (1 Bft)
03.05.2022 21:24 10,2 C 6,7 C 66 % 1018,6 hPa 0,0 l/m 3,3 km/h (1 Bft) N 350 0 min 0,0 UV-I 0 W/m 4,1 C 10,2 C 4,8 km/h (1 Bft)
03.05.2022 21:26 10,1 C 6,7 C 67 % 1018,5 hPa 0,0 l/m 2,2 km/h (1 Bft) N 350 0 min 0,0 UV-I 0 W/m 4,3 C 10,1 C 3,2 km/h (1 Bft)
03.05.2022 21:28 9,7 C 6,1 C 68 % 1018,6 hPa 0,0 l/m 1,5 km/h (1 Bft) N 350 0 min 0,0 UV-I 0 W/m 4,1 C 9,7 C 3,2 km/h (1 Bft)
03.05.2022 21:30 9,6 C 6,1 C 68 % 1018,5 hPa 0,0 l/m 0,1 km/h (0 Bft) N 350 0 min 0,0 UV-I 0 W/m 4,0 C 9,6 C 1,6 km/h (1 Bft)
03.05.2022 21:32 9,4 C 6,1 C 69 % 1018,6 hPa 0,0 l/m 0,0 km/h (0 Bft) N 350 0 min 0,0 UV-I 0 W/m 4,0 C 9,4 C 0,0 km/h (0 Bft)
03.05.2022 21:34 9,3 C 6,1 C 69 % 1018,7 hPa 0,0 l/m 0,0 km/h (0 Bft) N 350 0 min 0,0 UV-I 0 W/m 3,9 C 9,3 C 0,0 km/h (0 Bft)
03.05.2022 21:36 9,3 C 6,1 C 69 % 1018,7 hPa 0,0 l/m 0,4 km/h (0 Bft) N 350 0 min 0,0 UV-I 0 W/m 3,9 C 9,3 C 1,6 km/h (1 Bft)
03.05.2022 21:38 9,3 C 6,1 C 69 % 1018,7 hPa 0,0 l/m 0,7 km/h (0 Bft) N 350 0 min 0,0 UV-I 0 W/m 3,9 C 9,3 C 1,6 km/h (1 Bft)
03.05.2022 21:40 9,2 C 6,1 C 70 % 1018,7 hPa 0,0 l/m 0,8 km/h (0 Bft) N 350 0 min 0,0 UV-I 0 W/m 4,0 C 9,2 C 1,6 km/h (1 Bft)
03.05.2022 21:42 9,2 C 6,1 C 70 % 1018,7 hPa 0,0 l/m 0,1 km/h (0 Bft) N 350 0 min 0,0 UV-I 0 W/m 4,0 C 9,2 C 1,6 km/h (1 Bft)
03.05.2022 21:44 9,1 C 5,6 C 70 % 1018,7 hPa 0,0 l/m 0,0 km/h (0 Bft) N 350 0 min 0,0 UV-I 0 W/m 3,9 C 9,1 C 0,0 km/h (0 Bft)
03.05.2022 21:46 8,9 C 5,6 C 71 % 1018,7 hPa 0,0 l/m 0,2 km/h (0 Bft) N 350 0 min 0,0 UV-I 0 W/m 3,9 C 8,9 C 1,6 km/h (1 Bft)
03.05.2022 21:48 8,8 C 5,6 C 71 % 1018,7 hPa 0,0 l/m 1,1 km/h (1 Bft) N 350 0 min 0,0 UV-I 0 W/m 3,8 C 8,8 C 1,6 km/h (1 Bft)
03.05.2022 21:50 8,7 C 5,6 C 72 % 1018,7 hPa 0,0 l/m 0,9 km/h (0 Bft) N 350 0 min 0,0 UV-I 0 W/m 3,9 C 8,7 C 1,6 km/h (1 Bft)
03.05.2022 21:52 8,7 C 5,6 C 72 % 1018,7 hPa 0,0 l/m 0,2 km/h (0 Bft) N 350 0 min 0,0 UV-I 0 W/m 3,9 C 8,7 C 1,6 km/h (1 Bft)
03.05.2022 21:54 8,8 C 5,6 C 72 % 1018,7 hPa 0,0 l/m 0,3 km/h (0 Bft) N 350 0 min 0,0 UV-I 0 W/m 4,0 C 8,8 C 1,6 km/h (1 Bft)
03.05.2022 21:56 8,7 C 5,6 C 72 % 1018,7 hPa 0,0 l/m 0,6 km/h (0 Bft) N 350 0 min 0,0 UV-I 0 W/m 3,9 C 8,7 C 3,2 km/h (1 Bft)
03.05.2022 21:58 8,4 C 5,6 C 72 % 1018,8 hPa 0,0 l/m 1,4 km/h (1 Bft) N 350 0 min 0,0 UV-I 0 W/m 3,7 C 8,4 C 3,2 km/h (1 Bft)
03.05.2022 22:00 8,1 C 5,6 C 73 % 1018,8 hPa 0,0 l/m 0,3 km/h (0 Bft) N 350 0 min 0,0 UV-I 0 W/m 3,6 C 8,1 C 1,6 km/h (1 Bft)
03.05.2022 22:02 7,8 C 5,0 C 74 % 1018,7 hPa 0,0 l/m 0,1 km/h (0 Bft) N 350 0 min 0,0 UV-I 0 W/m 3,5 C 7,8 C 1,6 km/h (1 Bft)
03.05.2022 22:04 7,8 C 5,0 C 74 % 1018,7 hPa 0,0 l/m 0,1 km/h (0 Bft) N 350 0 min 0,0 UV-I 0 W/m 3,5 C 7,8 C 1,6 km/h (1 Bft)
03.05.2022 22:06 7,8 C 5,0 C 75 % 1018,7 hPa 0,0 l/m 0,8 km/h (0 Bft) N 350 0 min 0,0 UV-I 0 W/m 3,7 C 7,8 C 1,6 km/h (1 Bft)
03.05.2022 22:08 7,9 C 5,0 C 75 % 1018,7 hPa 0,0 l/m 0,3 km/h (0 Bft) N 350 0 min 0,0 UV-I 0 W/m 3,7 C 7,9 C 1,6 km/h (1 Bft)
03.05.2022 22:10 8,1 C 5,0 C 75 % 1018,7 hPa 0,0 l/m 0,0 km/h (0 Bft) N 350 0 min 0,0 UV-I 0 W/m 3,9 C 8,1 C 0,0 km/h (0 Bft)
03.05.2022 22:12 8,1 C 5,0 C 74 % 1018,7 hPa 0,0 l/m 0,0 km/h (0 Bft) N 350 0 min 0,0 UV-I 0 W/m 3,8 C 8,1 C 0,0 km/h (0 Bft)
03.05.2022 22:14 7,7 C 4,4 C 74 % 1018,7 hPa 0,0 l/m 0,0 km/h (0 Bft) N 350 0 min 0,0 UV-I 0 W/m 3,4 C 7,7 C 0,0 km/h (0 Bft)
03.05.2022 22:16 7,5 C 4,4 C 75 % 1018,7 hPa 0,0 l/m 0,0 km/h (0 Bft) N 350 0 min 0,0 UV-I 0 W/m 3,4 C 7,5 C 0,0 km/h (0 Bft)
03.05.2022 22:18 7,4 C 4,4 C 76 % 1018,6 hPa 0,0 l/m 0,0 km/h (0 Bft) N 350 0 min 0,0 UV-I 0 W/m 3,5 C 7,4 C 1,6 km/h (1 Bft)
03.05.2022 22:20 7,5 C 4,4 C 76 % 1018,7 hPa 0,0 l/m 0,0 km/h (0 Bft) N 350 0 min 0,0 UV-I 0 W/m 3,5 C 7,5 C 0,0 km/h (0 Bft)
03.05.2022 22:22 7,6 C 4,4 C 76 % 1018,6 hPa 0,0 l/m 0,0 km/h (0 Bft) N 350 0 min 0,0 UV-I 0 W/m 3,6 C 7,6 C 0,0 km/h (0 Bft)
03.05.2022 22:24 7,4 C 4,4 C 76 % 1018,7 hPa 0,0 l/m 0,0 km/h (0 Bft) N 350 0 min 0,0 UV-I 0 W/m 3,5 C 7,4 C 0,0 km/h (0 Bft)
03.05.2022 22:26 7,2 C 4,4 C 76 % 1018,7 hPa 0,0 l/m 0,3 km/h (0 Bft) N 350 0 min 0,0 UV-I 0 W/m 3,3 C 7,2 C 1,6 km/h (1 Bft)
03.05.2022 22:28 7,1 C 3,9 C 77 % 1018,6 hPa 0,0 l/m 0,0 km/h (0 Bft) N 350 0 min 0,0 UV-I 0 W/m 3,3 C 7,1 C 0,0 km/h (0 Bft)
03.05.2022 22:30 6,8 C 3,9 C 77 % 1018,6 hPa 0,0 l/m 1,8 km/h (1 Bft) N 350 0 min 0,0 UV-I 0 W/m 3,1 C 6,8 C 3,2 km/h (1 Bft)
03.05.2022 22:32 6,6 C 3,9 C 77 % 1018,7 hPa 0,0 l/m 1,0 km/h (0 Bft) N 350 0 min 0,0 UV-I 0 W/m 2,9 C 6,6 C 3,2 km/h (1 Bft)
03.05.2022 22:34 6,5 C 3,9 C 78 % 1018,7 hPa 0,0 l/m 0,0 km/h (0 Bft) N 350 0 min 0,0 UV-I 0 W/m 2,9 C 6,5 C 0,0 km/h (0 Bft)
03.05.2022 22:36 6,6 C 3,9 C 78 % 1018,9 hPa 0,0 l/m 0,0 km/h (0 Bft) N 350 0 min 0,0 UV-I 0 W/m 3,0 C 6,6 C 0,0 km/h (0 Bft)
03.05.2022 22:38 6,7 C 3,9 C 78 % 1018,8 hPa 0,0 l/m 0,2 km/h (0 Bft) N 350 0 min 0,0 UV-I 0 W/m 3,1 C 6,7 C 1,6 km/h (1 Bft)
03.05.2022 22:40 6,7 C 3,9 C 78 % 1018,9 hPa 0,0 l/m 0,0 km/h (0 Bft) N 350 0 min 0,0 UV-I 0 W/m 3,1 C 6,7 C 0,0 km/h (0 Bft)
03.05.2022 22:42 6,8 C 3,9 C 78 % 1018,9 hPa 0,0 l/m 0,0 km/h (0 Bft) N 350 0 min 0,0 UV-I 0 W/m 3,2 C 6,8 C 0,0 km/h (0 Bft)
03.05.2022 22:44 6,6 C 3,9 C 77 % 1019,0 hPa 0,0 l/m 0,0 km/h (0 Bft) N 350 0 min 0,0 UV-I 0 W/m 2,9 C 6,6 C 0,0 km/h (0 Bft)
03.05.2022 22:46 6,4 C 3,9 C 78 % 1019,2 hPa 0,0 l/m 0,0 km/h (0 Bft) N 350 0 min 0,0 UV-I 0 W/m 2,8 C 6,4 C 0,0 km/h (0 Bft)
03.05.2022 22:48 6,5 C 4,4 C 79 % 1019,0 hPa 0,0 l/m 0,8 km/h (0 Bft) N 350 0 min 0,0 UV-I 0 W/m 3,1 C 6,5 C 1,6 km/h (1 Bft)
03.05.2022 22:50 6,5 C 4,4 C 79 % 1019,1 hPa 0,0 l/m 0,6 km/h (0 Bft) N 350 0 min 0,0 UV-I 0 W/m 3,1 C 6,5 C 1,6 km/h (1 Bft)
03.05.2022 22:52 6,5 C 4,4 C 79 % 1019,2 hPa 0,0 l/m 0,0 km/h (0 Bft) N 350 0 min 0,0 UV-I 0 W/m 3,1 C 6,5 C 0,0 km/h (0 Bft)
03.05.2022 22:54 6,5 C 3,9 C 79 % 1019,2 hPa 0,0 l/m 0,0 km/h (0 Bft) N 350 0 min 0,0 UV-I 0 W/m 3,1 C 6,5 C 0,0 km/h (0 Bft)
03.05.2022 22:56 6,3 C 3,9 C 79 % 1019,1 hPa 0,0 l/m 0,0 km/h (0 Bft) N 350 0 min 0,0 UV-I 0 W/m 2,9 C 6,3 C 0,0 km/h (0 Bft)
03.05.2022 22:58 6,2 C 3,9 C 79 % 1019,2 hPa 0,0 l/m 0,1 km/h (0 Bft) N 350 0 min 0,0 UV-I 0 W/m 2,8 C 6,2 C 1,6 km/h (1 Bft)
03.05.2022 23:00 6,2 C 3,9 C 80 % 1019,2 hPa 0,0 l/m 1,6 km/h (1 Bft) N 350 0 min 0,0 UV-I 0 W/m 3,0 C 6,2 C 3,2 km/h (1 Bft)
03.05.2022 23:02 6,3 C 3,9 C 80 % 1019,1 hPa 0,0 l/m 1,9 km/h (1 Bft) N 350 0 min 0,0 UV-I 0 W/m 3,1 C 6,3 C 3,2 km/h (1 Bft)
03.05.2022 23:04 6,1 C 3,3 C 79 % 1019,2 hPa 0,0 l/m 0,1 km/h (0 Bft) N 350 0 min 0,0 UV-I 0 W/m 2,7 C 6,1 C 1,6 km/h (1 Bft)
03.05.2022 23:06 5,9 C 3,3 C 80 % 1019,2 hPa 0,0 l/m 0,0 km/h (0 Bft) N 350 0 min 0,0 UV-I 0 W/m 2,7 C 5,9 C 0,0 km/h (0 Bft)
03.05.2022 23:08 5,9 C 3,3 C 80 % 1019,3 hPa 0,0 l/m 0,0 km/h (0 Bft) N 350 0 min 0,0 UV-I 0 W/m 2,7 C 5,9 C 0,0 km/h (0 Bft)
03.05.2022 23:10 5,8 C 3,3 C 80 % 1019,2 hPa 0,0 l/m 0,3 km/h (0 Bft) N 350 0 min 0,0 UV-I 0 W/m 2,6 C 5,8 C 1,6 km/h (1 Bft)
03.05.2022 23:12 5,7 C 2,8 C 80 % 1019,2 hPa 0,0 l/m 0,1 km/h (0 Bft) N 350 0 min 0,0 UV-I 0 W/m 2,5 C 5,7 C 1,6 km/h (1 Bft)
03.05.2022 23:14 5,6 C 2,8 C 81 % 1019,2 hPa 0,0 l/m 0,0 km/h (0 Bft) N 350 0 min 0,0 UV-I 0 W/m 2,6 C 5,6 C 0,0 km/h (0 Bft)
03.05.2022 23:16 5,6 C 2,8 C 81 % 1019,1 hPa 0,0 l/m 0,0 km/h (0 Bft) N 350 0 min 0,0 UV-I 0 W/m 2,6 C 5,6 C 0,0 km/h (0 Bft)
03.05.2022 23:18 5,6 C 3,3 C 81 % 1019,0 hPa 0,0 l/m 0,0 km/h (0 Bft) N 350 0 min 0,0 UV-I 0 W/m 2,6 C 5,6 C 0,0 km/h (0 Bft)
03.05.2022 23:20 5,6 C 2,8 C 81 % 1019,0 hPa 0,0 l/m 0,0 km/h (0 Bft) N 350 0 min 0,0 UV-I 0 W/m 2,6 C 5,6 C 0,0 km/h (0 Bft)
03.05.2022 23:22 5,6 C 3,3 C 81 % 1019,1 hPa 0,0 l/m 0,0 km/h (0 Bft) N 350 0 min 0,0 UV-I 0 W/m 2,6 C 5,6 C 0,0 km/h (0 Bft)
03.05.2022 23:24 5,6 C 3,3 C 81 % 1018,9 hPa 0,0 l/m 0,0 km/h (0 Bft) N 350 0 min 0,0 UV-I 0 W/m 2,6 C 5,6 C 1,6 km/h (1 Bft)
03.05.2022 23:26 5,6 C 3,3 C 82 % 1019,0 hPa 0,0 l/m 0,0 km/h (0 Bft) N 350 0 min 0,0 UV-I 0 W/m 2,8 C 5,6 C 0,0 km/h (0 Bft)
03.05.2022 23:28 5,6 C 3,3 C 82 % 1019,0 hPa 0,0 l/m 0,0 km/h (0 Bft) N 350 0 min 0,0 UV-I 0 W/m 2,8 C 5,6 C 0,0 km/h (0 Bft)
03.05.2022 23:30 5,7 C 3,3 C 81 % 1019,1 hPa 0,0 l/m 0,0 km/h (0 Bft) N 350 0 min 0,0 UV-I 0 W/m 2,7 C 5,7 C 0,0 km/h (0 Bft)
03.05.2022 23:32 5,7 C 3,3 C 81 % 1019,1 hPa 0,0 l/m 0,0 km/h (0 Bft) N 350 0 min 0,0 UV-I 0 W/m 2,7 C 5,7 C 0,0 km/h (0 Bft)
03.05.2022 23:34 5,8 C 3,3 C 82 % 1019,0 hPa 0,0 l/m 0,0 km/h (0 Bft) N 350 0 min 0,0 UV-I 0 W/m 3,0 C 5,8 C 0,0 km/h (0 Bft)
03.05.2022 23:36 5,8 C 3,3 C 80 % 1019,1 hPa 0,0 l/m 0,0 km/h (0 Bft) N 350 0 min 0,0 UV-I 0 W/m 2,6 C 5,8 C 0,0 km/h (0 Bft)
03.05.2022 23:38 5,4 C 2,8 C 80 % 1019,0 hPa 0,0 l/m 0,0 km/h (0 Bft) N 350 0 min 0,0 UV-I 0 W/m 2,2 C 5,4 C 0,0 km/h (0 Bft)
03.05.2022 23:40 5,2 C 2,8 C 81 % 1019,0 hPa 0,0 l/m 0,0 km/h (0 Bft) N 350 0 min 0,0 UV-I 0 W/m 2,2 C 5,2 C 0,0 km/h (0 Bft)
03.05.2022 23:42 5,2 C 2,8 C 82 % 1019,1 hPa 0,0 l/m 0,4 km/h (0 Bft) N 350 0 min 0,0 UV-I 0 W/m 2,4 C 5,2 C 3,2 km/h (1 Bft)
03.05.2022 23:44 5,0 C 2,8 C 82 % 1019,0 hPa 0,0 l/m 0,8 km/h (0 Bft) N 350 0 min 0,0 UV-I 0 W/m 2,2 C 5,0 C 3,2 km/h (1 Bft)
03.05.2022 23:46 4,8 C 2,8 C 82 % 1019,0 hPa 0,0 l/m 0,0 km/h (0 Bft) N 350 0 min 0,0 UV-I 0 W/m 2,0 C 4,8 C 0,0 km/h (0 Bft)
03.05.2022 23:48 4,9 C 2,8 C 83 % 1019,1 hPa 0,0 l/m 0,0 km/h (0 Bft) N 350 0 min 0,0 UV-I 0 W/m 2,3 C 4,9 C 0,0 km/h (0 Bft)
03.05.2022 23:50 4,9 C 2,8 C 83 % 1019,0 hPa 0,0 l/m 0,0 km/h (0 Bft) N 350 0 min 0,0 UV-I 0 W/m 2,3 C 4,9 C 0,0 km/h (0 Bft)
03.05.2022 23:52 4,9 C 2,8 C 83 % 1019,1 hPa 0,0 l/m 0,0 km/h (0 Bft) N 350 0 min 0,0 UV-I 0 W/m 2,3 C 4,9 C 0,0 km/h (0 Bft)
03.05.2022 23:54 4,9 C 2,8 C 83 % 1019,1 hPa 0,0 l/m 0,0 km/h (0 Bft) N 350 0 min 0,0 UV-I 0 W/m 2,3 C 4,9 C 0,0 km/h (0 Bft)
03.05.2022 23:56 4,9 C 2,8 C 83 % 1019,0 hPa 0,0 l/m 0,0 km/h (0 Bft) N 350 0 min 0,0 UV-I 0 W/m 2,3 C 4,9 C 0,0 km/h (0 Bft)
03.05.2022 23:58 4,9 C 2,8 C 83 % 1019,1 hPa 0,0 l/m 0,0 km/h (0 Bft) N 350 0 min 0,0 UV-I 0 W/m 2,3 C 4,9 C 0,0 km/h (0 Bft)
03.05.2022 23:59 4,9 C 2,8 C 83 % 1019,1 hPa 0,0 l/m 0,0 km/h (0 Bft) N 0 0 min 0,0 UV-I 0 W/m 2,3 C 4,9 C 0,0 km/h (0 Bft)
_ Min-Zeit 23:46 23:12 17:16 18:00 - 03:06 - - - - - 23:46 23:46 03:09
Minimum _ 4,8 C 2,8 C 50 % 1017,5 hPa - 0,0 km/h (0 Bft) - - - - - 2,0 C 4,8 C 0,0 km/h (0 Bft)
_ Max-Zeit 16:42 15:22 06:59 00:00 00:00 11:38 - - 10:18 13:32 12:12 11:30 16:40 11:38
Maximum _ 17,2 C 28,3 C 85 % 1019,3 hPa 0,0 l/m 24,0 km/h
N-NO (4 Bft)
- - 2 min 5,4 UV-I 848 W/m 8,8 C 17,1 C 30,6 km/h
N-NO (5 Bft)
Durchschnitt _ 11,3 C 13,7 C 69 % 1018,3 hPa #0,0 l/m 8,0 km/h (2 Bft) N - #7:48 h 3,0 UV-I 411 W/m 5,5 C 9,8 C 12,1 km/h (2 Bft)